     2              OBSERVATION DATA    GPS                 RINEX VERSION / TYPE
srx v1.3 (5/19/93) STARR 93/10/11 17:31:18                  PGM / RUN BY / DATE
                                                            COMMENT
sig: 9 8 7 6 5 4 1 0                                        COMMENT
sig: 9 8 7 6 5 4 1 0                                        COMMENT
sig: 9 8 7 6 5 4 1 0                                        COMMENT
Original Marker Name: 3077                                  COMMENT
Campaign Name: Baja (Dixon) 1993                            COMMENT
4-Character Station Name: 3077                              COMMENT
6-Character Antenna Code: DMRCHT                            COMMENT
Vertical Measurement Point: BPA                             COMMENT
Vertical Offset to Rinex Ref. Point: 0.0000                 COMMENT
Radial Measurement Point: RRP                               COMMENT
Radial Offset to Rinex Ref. Point: 0.0000                   COMMENT
Antenna Height from Field Measurement: 0.0614 m             COMMENT
Additional Antenna Identification Info.:                    COMMENT
Turborogue and Ashtech Choke Ring                           COMMENT
Original XYZ: -2493309.0382 -4655182.3466 3565500.9443      COMMENT
New XYZ position is based on association with SCEC monument COMMENT
E1C8G4G1+0011. Position of that monument is believed to be  COMMENT
valid to within 1 m horizontally; vertical accuracy         COMMENT
should be no worse than 3-times this value.                 COMMENT
                                                            COMMENT
Revised Rinex header created by UCSD GPS archive for        COMMENT
GSAC on 09-Nov-2004 (2004:314) 22:01:44 GMT                 COMMENT
For assistance contact dagnew@ucsd.edu                      COMMENT
or anderson@python.ucsd.edu                                 COMMENT
                                                            COMMENT
3077S                                                       MARKER NAME
THE OBSERVER WAS?___JET PROPULSION LABORATORY               OBSERVER / AGENCY
116 TURBOROGUE SNR-8000 100.1                               REC # / TYPE / VERS
116 DORNE-MARGOL. TYPE T                                    ANT # / TYPE
 -2423924.0000 -4833782.0000  3371721.0000                  APPROX POSITION XYZ
        0.0614        0.0000        0.0000                  ANTENNA: DELTA H/E/N
     1     1     0                                          WAVELENGTH FACT L1/2
     5    L1    L2    P1    P2    C1                        # / TYPES OF OBSERV
   120                                                      INTERVAL
  1993     4     7     0     0    0.000000                  TIME OF FIRST OBS
  1993     4     7    23    58    0.000000                  TIME OF LAST OBS
    23                                                      # OF SATELLITES
          01  2498  2498  2498  2498     0                  PRN / # OF OBS
          02  2829  2829  2788  2829    41                  PRN / # OF OBS
          03  2559  2559  2559  2559     0                  PRN / # OF OBS
          11  3057  3057  3057  3057     0                  PRN / # OF OBS
          12  2805  2805  2805  2805     0                  PRN / # OF OBS
          13  2395  2395  2395  2395     0                  PRN / # OF OBS
          14  2268  2268  2268  2268     0                  PRN / # OF OBS
          15  2756  2756  2756  2756     0                  PRN / # OF OBS
          16  2480  2480  2471  2480     9                  PRN / # OF OBS
          17  2788  2788  2788  2788     0                  PRN / # OF OBS
          18  2681  2681  2681  2681     0                  PRN / # OF OBS
          19  2786  2786  2786  2786     0                  PRN / # OF OBS
          20  2574  2574  2573  2574     1                  PRN / # OF OBS
          21  2668  2668  2668  2668     0                  PRN / # OF OBS
          22  2899  2899  2899  2899     0                  PRN / # OF OBS
          23  2270  2270  2270  2270     0                  PRN / # OF OBS
          24  2425  2425  2374  2425    51                  PRN / # OF OBS
          25  1834  1834  1834  1834     0                  PRN / # OF OBS
          26  3201  3201  3189  3201    12                  PRN / # OF OBS
          27  2890  2890  2890  2890     0                  PRN / # OF OBS
          28  3122  3122  3122  3122     0                  PRN / # OF OBS
          29  2809  2809  2809  2809     0                  PRN / # OF OBS
                                                            END OF HEADER
 93 04 07 00 00 00.0000000  0  6 13 02 24 12 26 27
 -29986522.30109 -23366065.43608  16722290.28309  16722292.56808         0.00001
 -28913017.93808 -22529585.55208  18062058.28508  18062060.01808         0.00001
  -7929221.51608  -6178584.16108  20429811.46108  20429817.72308         0.00001
  -1950264.70008  -1519684.88907  21013771.43108  21013777.41107         0.00001
 -16883258.09608 -13155778.14708  19669428.18908  19669432.71108         0.00001
 -23091438.90708 -17993317.06208  20048740.71608  20048744.78308         0.00001
 93 04 07 00 02 00.0000000  0  6 13 02 24 12 26 27
 -30160675.93309 -23501769.52408  16689149.85109  16689152.15808         0.00001
 -28873284.34308 -22498624.38308  18069619.32308  18069621.09708         0.00001
  -8455570.37708  -6588725.03408  20329649.75108  20329655.82808         0.00001
  -2437108.91708  -1899043.57107  20921127.41108  20921133.72907         0.00001
 -16772296.43108 -13069314.87708  19690543.82908  19690548.49908         0.00001
 -22749450.36308 -17726832.97508  20113819.31308  20113823.51008         0.00001
 93 04 07 00 04 00.0000000  0  6 13 02 24 12 26 27
 -30325228.38709 -23629992.18208  16657836.54909  16657838.79308         0.00001
 -28829598.94408 -22464583.89708  18077932.60008  18077934.25508         0.00001
  -8980524.98708  -6997779.60108  20229753.54608  20229759.34108         0.00001
  -2923268.08808  -2277868.40907  20828614.10708  20828620.25007         0.00001
 -16655841.05108 -12978570.83708  19712704.89708  19712709.57408         0.00001
 -22403728.92108 -17457440.13908  20179608.25208  20179612.38408         0.00001
 93 04 07 00 06 00.0000000  0  6 13 02 24 12 26 27
 -30480113.01109 -23750681.46008  16628362.97509  16628365.20708         0.00001
 -28781986.01108 -22427482.98908  18086993.05308  18086994.78408         0.00001
  -9503556.68408  -7405335.88408  20130223.29008  20130228.89708         0.00001
  -3408503.70008  -2655973.54808  20736276.40008  20736282.35708         0.00001
 -16534104.03608 -12883711.26308  19735871.09208  19735875.71208         0.00001
 -22054593.94108 -17185387.41008  20246046.82208  20246051.19608         0.00001
 93 04 07 00 08 00.0000000  0  6 13 02 24 12 26 27
 -30625277.47709 -23863796.60108  16600739.03709  16600741.36308         0.00001
 -28730058.53008 -22387020.10108  18096874.58608  18096876.27908         0.00001
 -10024615.83608  -7811355.15708  20031068.37908  20031073.82208         0.00001
  -3892584.53708  -3033178.86008  20644158.38508  20644164.30808         0.00001
 -16406602.96808 -12784360.25108  19760134.02908  19760138.75008         0.00001
 -21702336.74008 -16910901.83808  20313079.54508  20313084.32908         0.00001
 93 04 07 00 10 00.0000000  0  6 13 02 24 12 26 27
 -30760667.85509 -23969295.57308  16574975.13409  16574977.39908         0.00001
 -28673670.83108 -22343081.70308  18107604.82608  18107606.57308         0.00001
 -10543486.79208  -8215669.46308  19932329.82008  19932335.25408         0.00001
  -4375269.47908  -3409296.45708  20552306.17008  20552311.80608         0.00001
 -16273787.67208 -12680868.30108  19785408.25308  19785413.31108         0.00001
 -21346984.14808 -16634004.28508  20380701.65708  20380706.37608         0.00001
 93 04 07 00 12 00.0000000  0  6 13 02 24 12 26 27
 -30886304.44309 -24067194.19208  16551067.22709  16551069.48208         0.00001
 -28612648.89408 -22295532.23008  18119217.09908  18119218.85908         0.00001
 -11059868.44108  -8618044.15008  19834065.21308  19834070.42508         0.00001
  -4856383.08308  -3784189.63108  20460752.93008  20460758.58508         0.00001
 -16135508.47208 -12573118.75108  19811722.35708  19811727.46208         0.00001
 -20988555.99208 -16354710.20308  20448908.62708  20448913.55708         0.00001
 93 04 07 00 14 00.0000000  0  6 13 02 24 12 26 27
 -31002262.05809 -24157550.76208  16529001.27509  16529003.50808         0.00001
 -28547349.79608 -22244649.91208  18131643.06508  18131644.80608         0.00001
 -11573631.32108  -9018378.26008  19736298.78708  19736303.88008         0.00001
  -5335793.91208  -4157755.98008  20369523.65508  20369529.27708         0.00001
 -15992502.46408 -12461686.02708  19838935.61408  19838940.96408         0.00001
 -20626836.55308 -16072851.48708  20517741.84108  20517746.95308         0.00001
 93 04 07 00 16 00.0000000  0  6 13 02 24 12 26 27
 -31108637.41309 -24240440.62708  16508758.66809  16508760.89608         0.00001
 -28477368.34808 -22190119.03408  18144960.19808  18144961.88108         0.00001
 -12084733.51208  -9416639.15708  19639038.83508  19639043.76308         0.00001
  -5813387.84908  -4529906.60808  20278640.22008  20278645.68208         0.00001
 -15844595.51108 -12346434.40208  19867081.98208  19867087.25708         0.00001
 -20262486.39908 -15788942.91208  20587075.87508  20587081.00608         0.00001
 93 04 07 00 18 00.0000000  0  6 13 02 24 12 26 27
 -31205516.80709 -24315931.02808  16490323.12209  16490325.30008         0.00001
 -28402914.97008 -22132103.51408  18159128.22808  18159130.01808         0.00001
 -12592629.29508  -9812401.56208  19542389.02608  19542393.77408         0.00001
  -6289028.86108  -4900535.52308  20188128.38308  20188133.72508         0.00001
 -15691853.83108 -12227415.48808  19896148.33908  19896153.69108         0.00001
 -19895339.05008 -15502854.70108  20656942.15908  20656947.43108         0.00001
 93 04 07 00 20 00.0000000  0  6 13 02 24 12 26 27
 -31292896.77009 -24384019.28608  16473695.22709  16473697.47308         0.00001
 -28323598.54308 -22070298.58708  18174221.62308  18174223.52608         0.00001
 -13097159.15008 -10205541.17308  19446379.81908  19446384.47608         0.00001
  -6762485.40108  -5269462.27508  20098032.23408  20098037.48008         0.00001
 -15534723.12308 -12104976.54908  19926049.72008  19926055.05208         0.00001
 -19525585.13908 -15214735.42108  20727304.50508  20727309.84208         0.00001
 93 04 07 00 22 00.0000000  0  6 13 02 24 12 26 27
 -31370834.37309 -24444749.85608  16458864.16809  16458866.35308         0.00001
 -28239614.64908 -22004856.68508  18190203.35508  18190205.26508         0.00001
 -13598330.33708 -10596063.69508  19351009.80708  19351014.25308         0.00001
  -7233578.09008  -5636547.10008  20008386.03508  20008391.01508         0.00001
 -15373024.95508 -11978978.60208  19956820.21008  19956825.85908         0.00001
 -19153490.40908 -14924792.15407  20798112.26408  20798117.78907         0.00001
 93 04 07 00 24 00.0000000  0  6 13 02 24 12 26 27
 -31439407.79109 -24498183.66608  16445815.07009  16445817.22808         0.00001
 -28151010.84108 -21935814.86208  18207064.24008  18207066.04008         0.00001
 -14095920.40808 -10983795.78808  19256321.16508  19256325.64408         0.00001
  -7702142.30308  -6001661.72608  19919220.90308  19919225.77708         0.00001
 -15207206.40508 -11849769.99108  19988374.98008  19988380.84108         0.00001
 -18778891.33508 -14632897.46607  20869396.70408  20869402.29207         0.00001
 93 04 07 00 26 00.0000000  0  6 13 02 24 12 26 27
 -31498708.73809 -24544392.17608  16434530.44509  16434532.62908         0.00001
 -28057435.43908 -21862899.06908  18224871.04908  18224873.17008         0.00001
 -14589708.26408 -11368565.14108  19162356.16008  19162360.40708         0.00001
  -8168017.83608  -6364681.20408  19830567.34708  19830572.25608         0.00001
 -15037339.37808 -11717406.70908  20020699.95508  20020706.07808         0.00001
 -18401950.91008 -14339178.33507  20941126.82208  20941132.51707         0.00001
 93 04 07 00 28 00.0000000  0  6 27 13 02 24 12 26
 -18023246.63708 -14044084.79307  21013192.51808  21013198.33807         0.00001
 -31548821.26409 -24583440.88008  16424994.27609  16424996.53108         0.00001
 -27958975.14308 -21786176.87808  18243607.54608  18243609.57208         0.00001
 -15079304.01808 -11750067.90408  19069188.82908  19069193.05708         0.00001
  -8631028.54108  -6725468.34508  19742458.97608  19742463.78308         0.00001
 -14863489.04208 -11581939.57508  20053783.35608  20053789.19308         0.00001
 93 04 07 00 30 00.0000000  0  6 27 13 02 24 12 26
 -17642396.59807 -13747319.25507  21085666.26707  21085672.26907         0.00001
 -31589812.64609 -24615382.21208  16417193.84309  16417196.12508         0.00001
 -27855467.05208 -21705521.35108  18263304.51308  18263306.56108         0.00001
 -15564436.39108 -12128092.70608  18976871.02908  18976875.14708         0.00001
  -9090979.78508  -7083871.50908  19654933.04808  19654937.47608         0.00001
 -14685973.43008 -11443616.39008  20087563.68608  20087570.18308         0.00001
 93 04 07 00 32 00.0000000  0  6 27 13 24 02 12 26
 -17259526.91407 -13448980.02107  21158524.54707  21158530.57307         0.00001
 -31621760.86309 -24640276.93608  16411114.33509  16411116.56708         0.00001
 -16045318.66808 -12502805.80808  18885361.90208  18885365.88708         0.00001
 -27746932.18508 -21620948.85608  18283958.11008  18283960.19408         0.00001
  -9547678.90608  -7439740.55608  19568025.78008  19568030.24008         0.00001
 -14504743.77708 -11302399.13008  20122051.04508  20122057.80208         0.00001
 93 04 07 00 34 00.0000000  0  6 27 13 24 02 12 26
 -16875018.11207 -13149363.55707  21231694.64607  21231700.83907         0.00001
 -31644800.96209 -24658230.27008  16406729.97309  16406732.13608         0.00001
 -16521625.13508 -12873953.38208  18794723.62308  18794727.42608         0.00001
 -27633431.41408 -21532506.80708  18305556.78208  18305558.68908         0.00001
 -10000982.90608  -7792964.04908  19481764.56108  19481768.98808         0.00001
 -14320316.78708 -11158690.50808  20157147.10008  20157153.50908         0.00001
 93 04 07 00 36 00.0000000  0  6 27 13 24 02 12 26
 -16489042.43907 -12848604.06707  21305143.84107  21305150.13007         0.00001
 -31659056.18109 -24669338.23208  16404017.34209  16404019.47608         0.00001
 -16992853.55208 -13241144.01008  18705051.55708  18705055.22008         0.00001
 -27514818.06108 -21440080.94108  18328127.97708  18328130.20308         0.00001
 -10450734.35008  -8143419.31508  19396179.32508  19396183.73608         0.00001
 -14132503.78208 -11012343.40308  20192887.08008  20192893.73808         0.00001
 93 04 07 00 38 00.0000000  0  6 27 13 24 02 12 26
 -16101493.49307 -12546618.50107  21378892.49707  21378898.88807         0.00001
 -31664646.37209 -24673694.22108  16402953.49909  16402955.72108         0.00001
 -17459200.46308 -13604530.87008  18616308.35308  18616311.87708         0.00001
 -27391097.30508 -21343675.30108  18351671.43808  18351673.66308         0.00001
 -10896763.66508  -8490974.28008  19311302.60408  19311306.79208         0.00001
 -13941648.24308 -10863625.50108  20229206.23208  20229213.16508         0.00001
 93 04 07 00 40 00.0000000  0  6 27 13 24 02 12 26
 -15712830.86107 -12243765.14607  21452852.89207  21452859.70707         0.00001
 -31661752.40009 -24671439.16808  16403504.23509  16403506.44908         0.00001
 -17920794.55508 -13964214.22708  18528469.58208  18528473.20208         0.00001
 -27262462.46808 -21243440.52808  18376150.17908  18376152.25608         0.00001
 -11338959.04208  -8835541.76408  19227155.32808  19227159.50508         0.00001
 -13748003.55908 -10712734.23108  20266056.23308  20266063.32108         0.00001
 93 04 07 00 42 00.0000000  0  6 27 13 24 02 12 26
 -15323083.59807 -11940066.61506  21527019.76707  21527026.68306         0.00001
 -31650484.43709 -24662658.90708  16405648.42409  16405650.61408         0.00001
 -18377025.25708 -14319718.32308  18441651.51908  18441655.16408         0.00001
 -27128441.38908 -21139008.65208  18401653.54508  18401655.71308         0.00001
 -11777133.65408  -9176976.14808  19143773.20808  19143777.21508         0.00001
 -13551836.92608 -10559877.88608  20303385.93408  20303393.29108         0.00001
 93 04 07 00 44 00.0000000  0  6 27 13 24 02 12 26
 -14932372.09107 -11635616.78107  21601370.12207  21601377.36107         0.00001
 -31630937.63909 -24647427.60908  16409368.03509  16409370.21508         0.00001
 -18827727.41508 -14670914.51108  18355885.50008  18355889.13008         0.00001
 -26989457.78608 -21030709.86608  18428101.34908  18428103.66108         0.00001
 -12211074.13408  -9515111.19308  19061196.74708  19061200.69408         0.00001
 -13353130.49308 -10405042.48708  20341198.96908  20341206.59508         0.00001
 93 04 07 00 46 00.0000000  0  5 13 24 02 12 26
 -31603248.95309 -24625851.98008  16414637.03709  16414639.12308         0.00001
 -19272874.97408 -15017782.41908  18271176.42808  18271179.91308         0.00001
 -26845236.69608 -20918329.91108  18455545.84608  18455548.05308         0.00001
 -12640614.25208  -9849817.38208  18979457.67008  18979461.57808         0.00001
 -13152217.31208 -10248487.52808  20379431.82408  20379439.92808         0.00001
 93 04 07 00 48 00.0000000  0  5 13 24 02 12 26
 -31567571.71709 -24598051.49308  16421426.12709  16421428.28008         0.00001
 -19711871.02008 -15359856.94308  18187638.16308  18187641.40108         0.00001
 -26695909.30808 -20801971.01908  18483961.92008  18483964.17708         0.00001
 -13065593.18108 -10180969.42808  18898586.57408  18898590.40008         0.00001
 -12949279.14508 -10090354.66708  20418050.65208  20418058.52708         0.00001
 93 04 07 00 50 00.0000000  0  5 13 24 02 12 26
 -31524042.57609 -24564132.65408  16429709.44009  16429711.53008         0.00001
 -20144878.29808 -15697264.89808  18105239.29308  18105242.58308         0.00001
 -26541366.76808 -20681548.37908  18513370.27308  18513372.67808         0.00001
 -13485834.19308 -10508429.60508  18818617.08108  18818620.73708         0.00001
 -12744390.95508  -9930702.36008  20457040.04408  20457048.32608         0.00001
 93 04 07 00 52 00.0000000  0  5 13 24 02 12 26
 -31472818.57709 -24524217.83408  16439457.02309  16439459.13208         0.00001
 -20571707.76708 -16029858.96908  18024016.02108  18024019.27908         0.00001
 -26381547.34008 -20557013.89408  18543783.16308  18543785.57308         0.00001
 -13901176.79508 -10832072.83608  18739579.79408  18739583.34308         0.00001
 -12537734.30108  -9769672.05408  20496366.24508  20496374.50508         0.00001
 93 04 07 00 54 00.0000000  0  5 13 24 02 12 26
 -31414030.53009 -24478408.93808  16450643.97809  16450646.05308         0.00001
 -20992383.78408 -16357658.13308  17943963.89408  17943966.92708         0.00001
 -26216336.48108 -20428278.31908  18575221.91308  18575224.12708         0.00001
 -14311426.72108 -11151747.78008  18661511.66308  18661515.01908         0.00001
 -12329630.33108  -9607513.98608  20535967.90208  20535976.33608         0.00001
 93 04 07 00 56 00.0000000  0  5 13 24 02 12 26
 -31347804.89209 -24426804.52008  16463246.25309  16463248.39808         0.00001
 -21406479.89908 -16680330.08308  17865163.82508  17865166.69008         0.00001
 -26046065.36708 -20295599.66908  18607623.50508  18607625.80808         0.00001
 -14716389.76208 -11467303.08808  18584449.46408  18584452.76608         0.00001
 -12120146.49508  -9444280.63907  20575831.76208  20575840.55807         0.00001
 93 04 07 00 58 00.0000000  0  5 13 24 02 12 26
 -31274323.62409 -24369546.37108  16477229.30009  16477231.35108         0.00001
 -21813935.40808 -16997827.53108  17787627.23408  17787630.23108         0.00001
 -25870496.80608 -20158793.11508  18641033.11908  18641035.55708         0.00001
 -15115920.60108 -11778625.52108  18508420.86308  18508424.27008         0.00001
 -11909232.02408  -9279932.42707  20615968.17708  20615976.82707         0.00001
 93 04 07 01 00 00.0000000  0  5 13 24 02 12 26
 -31193730.35109 -24306746.37808  16492565.67109  16492567.67108         0.00001
 -22214702.82408 -17310113.45308  17711363.42408  17711366.34208         0.00001
 -25689438.79208 -20017709.04908  18675487.39908  18675489.93608         0.00001
 -15509834.31208 -12085570.97008  18433461.25208  18433464.76908         0.00001
 -11697441.40108  -9114901.49207  20656271.01808  20656279.75907         0.00001
 93 04 07 01 02 00.0000000  0  4 13 24 02 12
 -31106201.16309 -24238541.76208  16509221.85409  16509223.85908         0.00001
 -22608643.46808 -17617079.80908  17636398.83908  17636401.47608         0.00001
 -25503495.43508 -19872818.23808  18710871.36808  18710873.80108         0.00001
 -15897977.37708 -12388019.83108  18359600.05208  18359603.29408         0.00001
 93 04 07 01 04 00.0000000  0  4 13 24 02 12
 -31011896.56009 -24165057.60608  16527167.35509  16527169.36108         0.00001
 -22995186.44708 -17918281.78908  17562841.81608  17562844.46408         0.00001
 -25312310.05908 -19723842.76708  18747252.87908  18747255.38208         0.00001
 -16280179.66008 -12685839.51108  18286869.18808  18286872.32608         0.00001
 93 04 07 01 06 00.0000000  0  5 13 24 02 12 26
 -30910995.56809 -24086433.41008  16546368.12609  16546370.15308         0.00001
 -23374822.51308 -18214101.73508  17490599.21008  17490601.75608         0.00001
 -25115589.69608 -19570554.28608  18784687.61408  18784690.10008         0.00001
 -16656284.80008 -12978908.17308  18215298.46208  18215301.68008         0.00001
        -0.71317        -0.09617  20777896.03117  20777905.71717         0.00011
 93 04 07 01 08 00.0000000  0  5 13 24 02 12 26
 -30803655.21209 -24002791.52308  16566794.23809  16566796.32308         0.00001
 -23747037.96208 -18504139.37308  17419768.72008  17419771.22008         0.00001
 -24913618.52808 -19413174.28108  18823121.59708  18823123.93808         0.00001
 -17026118.31608 -13267089.87408  18144921.33208  18144924.48808         0.00001
    213739.74307    166550.22707  20818569.92607  20818579.50707         0.00001
 93 04 07 01 10 00.0000000  0  5 13 24 02 12 26
 -30690036.45609 -23914257.38308  16588415.14709  16588417.22508         0.00001
 -24111631.08108 -18788237.56608  17350388.59508  17350391.08408         0.00001
 -24706551.33508 -19251823.33108  18862525.31808  18862527.78008         0.00001
 -17389507.10908 -13550249.75808  18075770.63608  18075773.58108         0.00001
    427593.33207    333188.68107  20859265.88107  20859275.62407         0.00001
 93 04 07 01 12 00.0000000  0  5 24 13 02 12 26
 -24468586.50908 -19066384.29908  17282462.01308  17282464.24808         0.00001
 -30570264.09109 -23820928.21108  16611207.07209  16611209.01808         0.00001
 -24494456.38708 -19086554.67008  18902885.66408  18902888.12808         0.00001
 -17746244.96408 -13828227.10308  18007885.49908  18007888.38708         0.00001
    641422.47707    499808.06307  20899956.92907  20899966.91207         0.00001
 93 04 07 01 14 00.0000000  0  5 24 13 02 12 26
 -24817983.03908 -19338641.00708  17215973.92508  17215976.02608         0.00001
 -30444497.32909 -23722928.09008  16635139.67709  16635141.60708         0.00001
 -24277208.94008 -18917271.05208  18944226.49608  18944229.01308         0.00001
 -18096157.72008 -14100886.13908  17941299.10008  17941301.93508         0.00001
    855274.49406    666445.30707  20940651.69206  20940662.17507         0.00001
 93 04 07 01 16 00.0000000  0  5 26 24 13 02 12
   1068328.40106    832460.65107  20981195.45506  20981205.69407         0.00001
 -25159385.11608 -19604668.30808  17151006.95308  17151009.15508         0.00001
 -30312921.59909 -23620401.50508  16660177.57709  16660179.56308         0.00001
 -24054525.22708 -18743751.43208  18986601.84208  18986604.47208         0.00001
 -18439099.40908 -14368113.13108  17876039.25808  17876042.04908         0.00001
 93 04 07 01 18 00.0000000  0  4 24 13 02 12
 -25492750.62708 -19864433.35108  17087569.36808  17087571.52808         0.00001
 -30175699.30009 -23513474.98908  16686290.05709  16686292.05008         0.00001
 -23826848.72508 -18566341.33008  19029927.35708  19029930.22408         0.00001
 -18774901.29408 -14629776.63508  17812138.01308  17812140.75908         0.00001
 93 04 07 01 20 00.0000000  0  4 24 13 02 12
 -25818103.50308 -20117954.81208  17025656.60508  17025658.57908         0.00001
 -30032962.43109 -23402251.40608  16713452.02209  16713453.89008         0.00001
 -23593908.31008 -18384829.45708  19074254.47108  19074257.40608         0.00001
 -19103370.11108 -14885726.08508  17749632.27308  17749634.91308         0.00001
 93 04 07 01 22 00.0000000  0  5 26 24 13 12 02
         0.09516        -0.36316  21101998.83516  21102009.36616         0.00011
 -26135308.54408 -20365127.29208  16965294.22108  16965296.18108         0.00001
 -29884931.98909 -23286902.94908  16741621.25009  16741623.06008         0.00001
 -19424396.70008 -15135876.41308  17688542.76708  17688545.28208         0.00001
 -23355742.73108 -18199246.00608  19119575.96808  19119578.88808         0.00001
 93 04 07 01 24 00.0000000  0  5 26 24 13 12 02
    209595.01906    163319.88806  21141883.67306  21141894.61006         0.00001
 -26443973.66208 -20605645.29208  16906556.97608  16906558.89608         0.00001
 -29731795.12709 -23167575.47308  16770762.15009  16770764.00508         0.00001
 -19737843.76308 -15380120.61808  17628895.52108  17628898.03608         0.00001
 -23112674.02408 -18009841.95308  19165830.38408  19165833.37108         0.00001
 93 04 07 01 26 00.0000000  0  4 24 13 12 02
 -26744059.92408 -20839478.50008  16849452.33308  16849454.12808         0.00001
 -29573676.54609 -23044366.14908  16800851.02909  16800852.90108         0.00001
 -20043516.12508 -15618306.64908  17570727.85708  17570730.28108         0.00001
 -22864661.31808 -17816585.48308  19213025.89108  19213028.72208         0.00001
 93 04 07 01 28 00.0000000  0  4 24 13 12 02
 -27035890.21909 -21066878.50908  16793918.73509  16793920.44208         0.00001
 -29410736.85609 -22917400.13508  16831857.44609  16831859.27408         0.00001
 -20341255.34008 -15850311.04208  17514069.81408  17514072.23108         0.00001
 -22611619.26208 -17619410.01708  19261178.25108  19261181.33208         0.00001
 93 04 07 01 30 00.0000000  0  4 24 13 12 02
 -27319280.57709 -21287701.88208  16739991.06209  16739992.69208         0.00001
 -29243176.63409 -22786833.67908  16863743.10409  16863744.87708         0.00001
 -20630946.99308 -16076044.59708  17458943.10608  17458945.52708         0.00001
 -22353411.31008 -17418209.14408  19310313.82308  19310316.81308         0.00001
 93 04 07 01 32 00.0000000  0  4 24 13 12 02
 -27594018.44609 -21501783.15108  16687710.02109  16687711.66108         0.00001
 -29071179.13008 -22652809.60708  16896473.07708  16896474.87908         0.00001
 -20912461.26608 -16295406.16108  17405372.67908  17405374.94908         0.00001
 -22090470.08208 -17213320.01908  19360350.07808  19360352.90908         0.00001
 93 04 07 01 34 00.0000000  0  4 24 13 12 02
 -27859998.64909 -21709040.22708  16637095.60009  16637097.11408         0.00001
 -28894853.89508 -22515413.28308  16930026.55508  16930028.43108         0.00001
 -21185602.10709 -16508242.97908  17353395.50909  17353397.75808         0.00001
 -21822831.72308 -17004770.84208  19411279.96708  19411282.74208         0.00001
 93 04 07 01 36 00.0000000  0  4 24 13 12 02
 -28116887.89309 -21909213.47708  16588211.03509  16588212.55908         0.00001
 -28714321.74008 -22374738.85808  16964380.69008  16964382.55108         0.00001
 -21450185.54608 -16714411.70908  17303046.71008  17303049.02008         0.00001
 -21550244.94808 -16792365.75908  19463151.59308  19463154.90408         0.00001
 93 04 07 01 38 00.0000000  0  4 24 13 12 02
 -28364860.05909 -22102438.36208  16541023.38409  16541024.81208         0.00001
 -28529723.31208 -22230895.90708  16999508.56108  16999510.49608         0.00001
 -21706055.99909 -16913791.10508  17254356.09209  17254358.31808         0.00001
 -21272992.99308 -16576325.47908  19515911.45008  19515914.51208         0.00001
 93 04 07 01 40 00.0000000  0  4 24 13 12 02
 -28603658.54909 -22288514.85208  16495581.32509  16495582.64308         0.00001
 -28341205.53908 -22083998.92108  17035382.30308  17035384.19908         0.00001
 -21953066.19509 -17106266.41908  17207351.47509  17207353.64608         0.00001
 -20990779.03508 -16356418.75608  19569615.12108  19569618.01708         0.00001
 93 04 07 01 42 00.0000000  0  4 24 13 12 02
 -28833368.03309 -22467509.06708  16451868.92109  16451870.19108         0.00001
 -28148968.04108 -21934203.41708  17071963.81708  17071965.69808         0.00001
 -22191128.39109 -17291769.28008  17162049.64509  17162051.72308         0.00001
 -20703527.69908 -16132586.78408  19624277.01308  19624280.44508         0.00001
 93 04 07 01 44 00.0000000  0  4 24 13 12 02
 -29054207.44409 -22639591.53708  16409844.36409  16409845.68208         0.00001
 -27953139.15008 -21781609.43008  17109228.74808  17109230.60608         0.00001
 -22420089.00509 -17470179.99708  17118479.72409  17118481.84808         0.00001
 -20411915.43708 -15905356.63508  19679769.07308  19679772.45108         0.00001
 93 04 07 01 46 00.0000000  0  5 24 13 12 02 20
 -29265703.75809 -22804393.68208  16369597.82909  16369599.09408         0.00001
 -27753890.81308 -21626350.92408  17147144.43208  17147146.24508         0.00001
 -22639844.66309 -17641418.03008  17076661.51409  17076663.58308         0.00001
 -20115856.25608 -15674661.35008  19736107.29908  19736111.12808         0.00001
        -0.87216        -0.04916  20765561.84216  20765566.50916         0.00011
 93 04 07 01 48 00.0000000  0  5 24 13 12 02 20
 -29467866.89809 -22961923.22108  16331127.39409  16331128.56608         0.00001
 -27551386.38608 -21468555.20708  17185679.71108  17185681.52708         0.00001
 -22850289.04409 -17805400.53808  17036615.23509  17036617.17208         0.00001
 -19815103.51408 -15440308.70608  19793339.06608  19793342.66608         0.00001
   -424517.18306   -330791.54607  20684778.68406  20684783.40607         0.00001
 93 04 07 01 50 00.0000000  0  4 24 13 12 02
 -29661006.17809 -23112421.17908  16294374.01009  16294375.15608         0.00001
 -27345773.83008 -21308337.57908  17224806.39708  17224808.21808         0.00001
 -23051305.74909 -17962036.79208  16998362.90509  16998364.82708         0.00001
 -19509769.14508 -15202386.01708  19851442.34508  19851445.89308         0.00001
 93 04 07 01 52 00.0000000  0  4 24 13 12 02
 -29844767.74509 -23255611.82108  16259405.18809  16259406.30708         0.00001
 -27137207.02208 -21145817.92808  17264495.29808  17264497.08108         0.00001
 -23242793.30309 -18111247.70408  16961923.86709  16961925.83108         0.00001
 -19200224.06708 -14961182.27808  19910346.76608  19910350.56608         0.00001
 93 04 07 01 54 00.0000000  0  4 24 13 12 02
 -30019073.67209 -23391434.42808  16226235.73709  16226236.80908         0.00001
 -26925837.18708 -20981114.11808  17304717.70908  17304719.26208         0.00001
 -23424655.85609 -18252958.61408  16927316.43109  16927318.43308         0.00001
 -18886479.40808 -14716706.10708  19970050.52208  19970054.45308         0.00001
 93 04 07 01 56 00.0000000  0  5 24 13 12 02 16
 -30184380.52309 -23520244.77708  16194778.75209  16194779.75808         0.00001
 -26711832.85908 -20814357.44208  17345441.29508  17345442.95808         0.00001
 -23596819.68009 -18387112.09408  16894554.63609  16894556.57308         0.00001
 -18568471.42808 -14468907.86008  20030565.64408  20030569.41608         0.00001
        -0.72417        -0.30217  20970737.69517  20970743.91017         0.00011
 93 04 07 01 58 00.0000000  0  6 24 13 12 20 02 16
 -30340253.94109 -23641704.40408  16165116.86109  16165117.85408         0.00001
 -26495342.11408 -20645663.28308  17386638.08408  17386639.77008         0.00001
 -23759199.51009 -18513641.69508  16863654.63809  16863656.57508         0.00001
         0.16317         0.31717  20280784.84217  20280788.73317         0.00011
 -18246421.45108 -14217959.99808  20091849.76208  20091853.46408         0.00001
   -374692.48807   -291967.08807  20899435.84107  20899441.67107         0.00001
 93 04 07 02 00 00.0000000  0  6 24 13 12 20 02 16
 -30486810.57509 -23755904.20108  16137227.98009  16137228.91508         0.00001
 -26276466.20008 -20475110.56308  17428288.67008  17428290.30208         0.00001
 -23911671.87009 -18632451.19308  16834640.01309  16834641.88708         0.00001
   -424296.93307   -330620.07307  20200042.87307  20200046.83507         0.00001
 -17920046.38008 -13963641.94507  20153957.23008  20153960.79307         0.00001
   -751536.60107   -585611.01607  20827724.03107  20827729.95707         0.00001
 93 04 07 02 02 00.0000000  0  6 24 13 12 20 02 16
 -30624129.18809 -23862905.53908  16111096.89909  16111097.83608         0.00001
 -26055383.55708 -20302838.32008  17470359.24808  17470360.76508         0.00001
 -24054197.90509 -18743510.28908  16807518.06909  16807519.95308         0.00001
   -848369.24607   -661065.35507  20119343.95107  20119347.90807         0.00001
 -17589825.01608 -13706326.74107  20216796.43208  20216800.06407         0.00001
  -1130734.43307   -881089.01407  20755564.54107  20755570.09107         0.00001
 93 04 07 02 04 00.0000000  0  6 24 13 12 20 02 16
 -30752220.95609 -23962717.12709  16086721.71309  16086722.65409         0.00001
 -25832262.49308 -20128977.70608  17512817.73508  17512819.30308         0.00001
 -24186736.75009 -18846787.13908  16782296.70209  16782298.44008         0.00001
  -1272180.27707   -991307.13507  20038695.28207  20038698.75407         0.00001
 -17256102.95007 -13446283.62107  20280301.49407  20280305.28107         0.00001
  -1511941.51808  -1178132.76707  20683022.71308  20683028.28007         0.00001
 93 04 07 02 06 00.0000000  0  6 24 13 12 20 02 16
 -30870894.14609 -24055189.56409  16064138.81409  16064139.71109         0.00001
 -25607244.45008 -19953638.93108  17555637.24908  17555638.76508         0.00001
 -24309232.32709 -18942238.08108  16758986.37309  16758988.19208         0.00001
  -1695669.77007  -1321298.35507  19958107.55707  19958110.62707         0.00001
 -16918536.57507 -13183244.87607  20344538.34007  20344542.11107         0.00001
  -1895123.60508  -1476715.43107  20610104.91308  20610110.36607         0.00001
 93 04 07 02 08 00.0000000  0  6 24 13 12 20 02 16
 -30980244.40609 -24140397.38109  16043329.98109  16043330.82009         0.00001
 -25380461.00608 -19776924.52208  17598792.69208  17598794.14808         0.00001
 -24421624.96709 -19029816.62008  16737598.63909  16737600.40608         0.00001
  -2118766.15007  -1650983.25307  19877594.45907  19877597.51307         0.00001
 -16577391.88407 -12917417.88807  20409455.92007  20409459.69007         0.00001
  -2280117.56308  -1776709.88807  20536842.17808  20536847.45807         0.00001
 93 04 07 02 10 00.0000000  0  6 24 12 13 20 02 16
 -31080735.94509 -24218702.30909  16024206.97709  16024207.74209         0.00001
 -24523850.75909 -19109472.94708  16718145.69409  16718147.34808         0.00001
 -25152032.02808 -19598927.88308  17642261.26708  17642262.71108         0.00001
  -2541384.17807  -1980295.39108  19797172.35807  19797175.60608         0.00001
 -16232358.09607 -12648560.38007  20475113.39007  20475117.58407         0.00001
  -2666803.42908  -2078022.60107  20463257.54608  20463262.89907         0.00001
 93 04 07 02 12 00.0000000  0  6 24 12 13 20 02 16
 -31171884.97009 -24289727.35709  16006861.79809  16006862.48009         0.00001
 -24615843.30709 -19181155.33408  16700639.99109  16700641.63208         0.00001
 -24922061.12908 -19419729.73408  17686023.13508  17686024.80708         0.00001
  -2963427.59408  -2309159.83508  19716859.70208  19716862.79408         0.00001
 -15883969.62207 -12377088.87307  20541409.95907  20541413.59907         0.00001
  -3054772.06208  -2380334.90607  20389428.74208  20389433.81807         0.00001
 93 04 07 02 14 00.0000000  0  5 24 12 13 20 16
 -31253732.76209 -24353504.69709  15991286.57009  15991287.29109         0.00001
 -24697576.95709 -19244843.77408  16685086.46809  16685088.12108         0.00001
 -24690685.83208 -19239437.24908  17730052.43108  17730054.00608         0.00001
  -3384831.43608  -2637526.01007  19636669.09308  19636671.73407         0.00001
  -3444134.72408  -2683733.45207  20315334.96608  20315339.60707         0.00001
 93 04 07 02 16 00.0000000  0  5 24 12 13 20 16
 -31326741.70409 -24410394.62809  15977393.29409  15977393.92209         0.00001
 -24769025.82809 -19300518.10108  16671490.09009  16671491.78008         0.00001
 -24458033.76608 -19058149.88408  17774324.60308  17774326.09108         0.00001
  -3805519.15508  -2965334.22907  19556614.59708  19556617.11907         0.00001
  -3834958.68108  -2988270.57808  20240962.90908  20240967.43008         0.00001
 93 04 07 02 18 00.0000000  0  5 24 12 13 20 16
 -31390606.12609 -24460158.96409  15965240.20409  15965240.75209         0.00001
 -24830139.30609 -19348138.87908  16659860.44809  16659862.13008         0.00001
 -24224198.97108 -18875940.90308  17818821.80708  17818823.23608         0.00001
  -4225383.89508  -3292501.15607  19476716.67108  19476719.13607         0.00001
  -4226599.43808  -3293444.19808  20166435.41808  20166439.76908         0.00001
 93 04 07 02 20 00.0000000  0  5 24 12 13 20 16
 -31445459.15309 -24502901.44709  15954801.88209  15954802.41409         0.00001
 -24880905.33209 -19387696.71608  16650199.87809  16650201.49708         0.00001
 -23989302.81608 -18692904.89108  17863520.96008  17863522.50408         0.00001
  -4644344.85408  -3618963.81808  19396990.57908  19396992.98008         0.00001
  -4619229.40108  -3599388.68708  20091719.65508  20091723.69508         0.00001
 93 04 07 02 22 00.0000000  0  5 24 12 13 20 16
 -31491043.38109 -24538421.50209  15946127.37909  15946127.89109         0.00001
 -24921277.67609 -19419155.59008  16642517.29409  16642518.79708         0.00001
 -23753420.54708 -18509100.46808  17908407.79408  17908409.40408         0.00001
  -5062277.82508  -3944625.46608  19317460.32508  19317462.58908         0.00001
  -5012861.94308  -3906114.41407  20016812.96408  20016816.82007         0.00001
 93 04 07 02 24 00.0000000  0  5 24 12 13 20 16
 -31527897.40609 -24567138.80709  15939114.19509  15939114.69009         0.00001
 -24951200.52109 -19442472.00308  16636823.00209  16636824.58708         0.00001
 -23516609.29208 -18324572.16108  17953471.47908  17953472.95108         0.00001
  -5479040.07008  -4269374.81608  19238152.74008  19238154.91308         0.00001
  -5407073.45408  -4213291.29008  19941796.21608  19941799.84008         0.00001
 93 04 07 02 26 00.0000000  0  5 24 12 13 20 16
 -31555878.29909 -24588941.99109  15933789.52809  15933790.01509         0.00001
 -24970700.40309 -19457666.63208  16633112.26209  16633113.83408         0.00001
 -23279001.64508 -18139423.32808  17998686.68808  17998688.22308         0.00001
  -5894560.99108  -4593156.88508  19159081.45908  19159083.44108         0.00001
  -5801492.09208  -4520629.62108  19866740.32508  19866743.65708         0.00001
 93 04 07 02 28 00.0000000  0  5 24 12 13 20 16
 -31575187.58409 -24603988.06409  15930115.00809  15930115.45209         0.00001
 -24979762.29109 -19464727.76608  16631387.80209  16631389.32508         0.00001
 -23040673.72408 -17953713.19708  18044038.82308  18044040.53608         0.00001
  -6308719.23708  -4915877.17208  19080269.48908  19080271.10008         0.00001
  -6196354.03608  -4828313.47508  19791600.05308  19791603.05108         0.00001
 93 04 07 02 30 00.0000000  0  5 24 12 13 20 16
 -31585485.60809 -24612012.39109  15928155.28309  15928155.73609         0.00001
 -24978395.19509 -19463662.42008  16631647.92109  16631649.38808         0.00001
 -22801716.41008 -17767512.61708  18089510.92108  18089512.40008         0.00001
  -6721407.87208  -5237452.34608  19001737.08408  19001738.60808         0.00001
  -6591292.99108  -5136057.44408  19716445.17708  19716448.09908         0.00001
 93 04 07 02 32 00.0000000  0  5 24 12 13 20 16
 -31587002.86909 -24613194.58409  15927866.45809  15927866.86009         0.00001
 -24966587.83809 -19454461.80808  16633894.69209  16633896.22708         0.00001
 -22562192.92008 -17580870.90908  18135090.73208  18135092.19408         0.00001
  -7132488.72308  -5557774.70108  18923510.70508  18923512.17608         0.00001
  -6985817.84308  -5443478.73608  19641369.07208  19641371.92208         0.00001
 93 04 07 02 34 00.0000000  0  5 24 12 20 13 16
 -31579828.36309 -24607603.97709  15929231.64109  15929232.01909         0.00001
 -24944386.62609 -19437162.08508  16638119.38809  16638120.89308         0.00001
  -7541872.44508  -5876774.58508  18845607.01808  18845608.78308         0.00001
 -22322208.70408 -17393870.17708  18180758.11708  18180759.64608         0.00001
  -7380245.99708  -5750824.64408  19566311.36608  19566314.16508         0.00001
 93 04 07 02 36 00.0000000  0  5 24 12 20 13 16
 -31564470.19309 -24595636.48609  15932154.22409  15932154.53409         0.00001
 -24911808.39009 -19411776.37308  16644318.78109  16644320.24608         0.00001
  -7949429.79208  -6194351.27708  18768051.03508  18768052.77708         0.00001
 -22081833.46208 -17206564.77208  18226499.97708  18226501.48508         0.00001
  -7774481.15508  -6058020.18708  19491290.43408  19491292.84608         0.00001
 93 04 07 02 38 00.0000000  0  5 24 12 20 13 16
 -31540755.50009 -24577157.42709  15936666.83909  15936667.18709         0.00001
 -24868877.88009 -19378323.96308  16652488.16909  16652489.51908         0.00001
  -8355031.26208  -6510403.95708  18690867.42508  18690868.98708         0.00001
 -21841132.13808 -17019005.25308  18272303.85808  18272305.27208         0.00001
  -8168051.67608  -6364697.87508  19416396.06708  19416398.43708         0.00001
 93 04 07 02 40 00.0000000  0  5 24 12 20 13 16
 -31508675.45809 -24552159.92709  15942771.44009  15942771.76609         0.00001
 -24815669.13009 -19336862.54408  16662613.35209  16662614.75008         0.00001
  -8758583.62108  -6824859.98208  18614073.77208  18614075.30308         0.00001
 -21600209.00108 -16831272.92208  18318150.17908  18318151.40908         0.00001
  -8560532.64608  -6670526.60408  19341708.86608  19341710.95008         0.00001
 93 04 07 02 42 00.0000000  0  5 24 12 20 13 16
 -31468060.35909 -24520511.73109  15950500.21109  15950500.42209         0.00001
 -24752235.64909 -19287433.80108  16674684.30709  16674685.72408         0.00001
  -9159968.42608  -7137627.03908  18537692.49208  18537694.10608         0.00001
 -21359137.64408 -16643425.05908  18364024.37208  18364025.85508         0.00001
  -8952279.52008  -6975783.39108  19267161.40508  19267163.64808         0.00001
 93 04 07 02 44 00.0000000  0  5 24 12 20 13 16
 -31419396.41009 -24482591.70909  15959760.55809  15959760.82409         0.00001
 -24678625.06209 -19230074.85408  16688691.94109  16688693.28908         0.00001
  -9559050.00108  -7448599.44508  18461749.67208  18461751.16908         0.00001
 -21117978.03708 -16455508.44908  18409915.46908  18409916.62408         0.00001
  -9342944.00808  -7280196.81408  19192820.14308  19192822.17708         0.00001
 93 04 07 02 46 00.0000000  0  5 24 12 20 13 16
 -31362803.00609 -24438492.89009  15970529.82009  15970530.07709         0.00001
 -24594909.74909 -19164842.09708  16704622.36309  16704623.68308         0.00001
  -9955705.72408  -7757681.62708  18386268.42508  18386269.69908         0.00001
 -20876799.24208 -16267576.87908  18455810.26608  18455811.58208         0.00001
  -9732135.57108  -7583462.56108  19118759.20208  19118761.01408         0.00001
 93 04 07 02 48 00.0000000  0  5 24 12 20 13 16
 -31298297.09709 -24388228.48509  15982804.88609  15982805.17209         0.00001
 -24501178.28409 -19091804.54408  16722458.80409  16722460.12008         0.00001
 -10349822.33108  -8064785.30608  18311270.35308  18311271.52208         0.00001
 -20635681.61808 -16079692.98208  18501693.37208  18501694.89808         0.00001
 -10120058.95808  -7885740.11608  19044939.48408  19044941.32208         0.00001
 93 04 07 02 50 00.0000000  0  5 24 12 20 13 16
 -31225881.58109 -24331800.75309  15996585.03009  15996585.31909         0.00001
 -24397522.21909 -19011033.54908  16742183.87809  16742185.21808         0.00001
 -10741279.63608  -8369816.76908  18236778.38708  18236779.48908         0.00001
 -20394695.99108 -15891911.95708  18547551.37108  18547552.78608         0.00001
 -10506314.65208  -8186718.20408  18971437.17208  18971438.85008         0.00001
 93 04 07 02 52 00.0000000  0  5 24 12 20 13 16
 -31145962.05009 -24269525.74609  16011793.25109  16011793.44309         0.00001
 -24284001.84009 -18922576.08208  16763786.12709  16763787.38108         0.00001
 -11129917.73308  -8672651.41708  18162822.85608  18162823.84908         0.00001
 -20153871.87308 -15704256.78108  18593378.57108  18593380.06208         0.00001
 -10890796.67108  -8486314.21808  18898272.36208  18898273.97108         0.00001
 93 04 07 02 54 00.0000000  0  5 24 12 20 13 16
 -31058290.74309 -24201210.39609  16028476.48709  16028476.66909         0.00001
 -24160700.48409 -18826497.07208  16787249.51809  16787250.83008         0.00001
 -11515592.57508  -8973177.01908  18089431.21208  18089432.04508         0.00001
 -19913254.43108 -15516762.64508  18639166.46908  18639168.13808         0.00001
 -11273326.35908  -8784388.96208  18825479.27708  18825480.64408         0.00001
 93 04 07 02 56 00.0000000  0  5 24 12 20 13 16
 -30963000.38709 -24126958.12709  16046609.53309  16046609.79009         0.00001
 -24027735.96209 -18722888.33108  16812551.78509  16812553.12508         0.00001
 -11898181.33208  -9271297.88608  18016626.64008  18016627.56308         0.00001
 -19672910.12608 -15329481.35608  18684902.56608  18684904.04308         0.00001
 -11653678.66808  -9080767.11008  18753100.41808  18753101.66708         0.00001
 93 04 07 02 58 00.0000000  0  5 24 12 20 13 16
 -30860545.49209 -24047123.10609  16066105.99309  16066106.26409         0.00001
 -23885210.37609 -18611829.42308  16839673.57309  16839674.81508         0.00001
 -12277542.59008  -9566903.82608  17944436.44908  17944437.36608         0.00001
 -19432880.16808 -15142445.02108  18730578.78408  18730580.12908         0.00001
 -12031471.69108  -9375151.00508  18681208.46508  18681209.69408         0.00001
 93 04 07 03 00 00.0000000  0  5 24 12 20 13 16
 -30751077.84709 -23961823.60509  16086936.96909  16086937.19009         0.00001
 -23733224.38109 -18493398.75508  16868595.52409  16868596.72708         0.00001
 -12653523.52008  -9859875.77808  17872889.55208  17872890.44008         0.00001
 -19193200.31808 -14955681.50808  18776188.40208  18776189.71908         0.00001
 -12406642.19408  -9667491.44308  18609815.75108  18609816.96908         0.00001
 93 04 07 03 02 00.0000000  0  5 24 20 13 12 16
 -30634459.67909 -23870952.27109  16109128.71409  16109128.87409         0.00001
 -13025991.63608 -10150110.49308  17802011.03308  17802011.95508         0.00001
 -18953919.10808 -14769228.60008  18821721.99408  18821723.45408         0.00001
 -23571908.17308 -18367697.79108  16899292.88708  16899294.15108         0.00001
 -12779479.65008  -9958013.90108  18538866.98008  18538868.17308         0.00001
 93 04 07 03 04 00.0000000  0  5 24 20 13 12 16
 -30510834.02409 -23774620.55808  16132653.92109  16132653.99008         0.00001
 -13394809.12508 -10437500.55108  17731827.22808  17731828.14008         0.00001
 -18715084.54608 -14583123.72708  18867170.65208  18867171.99608         0.00001
 -23401393.38208 -18234829.12708  16931740.79908  16931742.02208         0.00001
 -13149188.15908 -10246098.20308  18468513.69908  18468514.74008         0.00001
 93 04 07 03 06 00.0000000  0  6 03 24 20 13 12 16
         0.20116        -0.08516  21077054.70116  21077058.43716         0.00011
 -30380414.80509 -23672995.16108  16157471.79309  16157471.92208         0.00001
 -13759817.49408 -10721922.47608  17662368.40508  17662369.12308         0.00001
 -18476718.57408 -14397384.00208  18912530.28508  18912531.58908         0.00001
 -23221797.32008 -18094884.13708  16965916.75508  16965918.06508         0.00001
 -13515556.19308 -10531579.49908  18398796.03908  18398796.94608         0.00001
 93 04 07 03 08 00.0000000  0  5 24 20 13 12 16
 -30243616.87809 -23566399.34208  16183503.49509  16183503.67908         0.00001
 -14120868.41908 -11003260.68008  17593662.46608  17593663.25008         0.00001
 -18238849.73008 -14212031.61008  18957795.19808  18957796.51308         0.00001
 -23033254.91708 -17947967.99008  17001795.24808  17001796.38308         0.00001
 -13878756.36408 -10814592.33508  18329681.06908  18329681.96808         0.00001
 93 04 07 03 10 00.0000000  0  5 24 20 13 12 16
 -30099981.61709 -23454475.73708  16210836.32909  16210836.50008         0.00001
 -14477808.47608 -11281395.59908  17525738.82808  17525739.64208         0.00001
 -18001504.05508 -14027086.90508  19002960.69908  19002961.84108         0.00001
 -22835905.52108 -17794189.25108  17039349.54208  17039350.79708         0.00001
 -14238781.57908 -11095131.35008  18261170.29708  18261171.29608         0.00001
 93 04 07 03 12 00.0000000  0  6 24 20 13 12 16 03
 -29949720.99509 -23337389.51208  16239429.94909  16239430.08208         0.00001
 -14830481.10708 -11556205.25508  17458627.39408  17458628.09708         0.00001
 -17764701.00508 -13842565.02507  19048022.78808  19048023.84107         0.00001
 -22629888.70708 -17633656.65108  17078553.20108  17078554.46608         0.00001
 -14594899.47308 -11372625.74208  18193403.23608  18193404.17008         0.00001
        -0.82516        -0.85516  20913507.39916  20913510.36316         0.00011
 93 04 07 03 14 00.0000000  0  5 24 20 13 12 16
 -29793565.67109 -23215710.01508  16269145.32009  16269145.46008         0.00001
 -15178765.68608 -11827595.64708  17392350.87508  17392351.56508         0.00001
 -17528496.45408 -13658509.52507  19092970.90408  19092972.17007         0.00001
 -22415387.65708 -17466512.98408  17119371.38708  17119372.62408         0.00001
 -14947225.83208 -11647165.55508  18126357.71508  18126358.64008         0.00001
 93 04 07 03 16 00.0000000  0  5 24 20 13 12 16
 -29631197.13109 -23089189.04808  16300043.00409  16300043.17508         0.00001
 -15522488.11008 -12095431.11108  17326942.51308  17326943.23608         0.00001
 -17292886.73008 -13474917.51707  19137805.77208  19137807.14207         0.00001
 -22192536.61708 -17292862.85708  17161778.55908  17161779.81608         0.00001
 -15295524.49008 -11918566.92508  18060078.70508  18060079.44708         0.00001
 93 04 07 03 18 00.0000000  0  5 24 20 13 12 16
 -29462789.94609 -22957962.64108  16332089.82409  16332089.92708         0.00001
 -15861533.13308 -12359621.86508  17262424.31508  17262424.89308         0.00001
 -17057928.85208 -13291833.42207  19182516.70408  19182518.32107         0.00001
 -21961536.44108 -17112862.74708  17205736.46108  17205737.81508         0.00001
 -15639666.95808 -12186729.70908  17994590.43408  17994591.13708         0.00001
 93 04 07 03 20 00.0000000  0  6 24 20 13 12 16 03
 -29289018.94709 -22822556.64108  16365157.35509  16365157.46008         0.00001
 -16195760.63408 -12620058.73108  17198822.77808  17198823.31808         0.00001
 -16823648.53008 -13109277.31607  19227099.08008  19227100.23607         0.00001
 -21722566.19408 -16926652.21508  17251211.03008  17251212.37908         0.00001
 -15979488.53008 -12451525.55708  17929924.31708  17929925.07708         0.00001
         0.09717        -0.41217  20700166.74317  20700169.66717         0.00011
 93 04 07 03 22 00.0000000  0  6 24 20 13 12 16 03
 -29109397.35909 -22682591.75008  16399338.11609  16399338.27108         0.00001
 -16524961.19408 -12876578.49008  17136177.85908  17136178.30708         0.00001
 -16590005.40008 -12927217.72207  19271559.64708  19271560.85107         0.00001
 -21475742.40108 -16734322.05308  17298180.06908  17298181.37008         0.00001
 -16314477.90208 -12712556.10708  17866177.76908  17866178.41208         0.00001
   -276153.59807   -215184.78807  20647616.07407  20647618.76207         0.00001
 93 04 07 03 24 00.0000000  0  6 24 20 13 12 16 03
 -28924343.98109 -22538394.29708  16434552.60009  16434552.72508         0.00001
 -16848968.05308 -13129051.21308  17074521.28008  17074521.70608         0.00001
 -16356993.24708 -12745649.83508  19315900.29908  19315901.70308         0.00001
 -21221226.07508 -16535997.72808  17346613.04708  17346614.27808         0.00001
 -16644654.64008 -12969836.57608  17803347.12808  17803347.73808         0.00001
   -550710.73207   -429125.10607  20595369.48107  20595371.95307         0.00001
 93 04 07 03 26 00.0000000  0  6 24 20 13 12 03 16
 -28733951.72609 -22390036.68408  16470783.02909  16470783.16008         0.00001
 -17167641.76308 -13377368.24908  17013879.57608  17013880.00008         0.00001
 -16124637.02208 -12564593.06407  19360116.41508  19360117.78607         0.00001
 -20959212.48108 -16331831.42308  17396472.68508  17396473.98208         0.00001
   -823733.80907   -641870.06307  20543414.75707  20543417.34407         0.00001
 -16969977.11808 -13223334.53508  17741440.21408  17741440.90808         0.00001
 93 04 07 03 28 00.0000000  0  6 24 20 13 12 03 16
 -28538100.71909 -22237425.49308  16508052.21109  16508052.37208         0.00001
 -17480838.81008 -13621417.76208  16954280.04708  16954280.39408         0.00001
 -15892951.13908 -12384058.59307  19404204.98308  19404206.02607         0.00001
 -20689895.24308 -16121973.96908  17447722.11508  17447723.50908         0.00001
  -1095280.58707   -853464.72407  20491740.92007  20491743.34907         0.00001
 -17290358.31208 -13472982.12208  17680473.75808  17680474.31008         0.00001
 93 04 07 03 30 00.0000000  0  6 24 20 12 13 03 16
 -28337270.23209 -22080934.18408  16546268.95709  16546269.12308         0.00001
 -17788407.12708 -13861081.27508  16895751.67408  16895751.93008         0.00001
 -20413463.42708 -15906572.69508  17500325.50308  17500326.85908         0.00001
 -15661940.58108 -12204050.37207  19448164.43808  19448165.73707         0.00001
  -1365402.77607  -1063949.37207  20440338.03607  20440340.32807         0.00001
 -17605131.79808 -13718260.05908  17620574.34008  17620574.90608         0.00001
 93 04 07 03 32 00.0000000  0  6 24 20 13 12 03 16
 -28131629.15908 -21920694.36308  16585401.19908  16585401.27408         0.00001
 -18090200.41508 -14096244.76208  16838322.21508  16838322.47408         0.00001
 -15431613.62308 -12024574.79207  19491994.10208  19491995.57507         0.00001
 -20130115.11508 -15685781.92208  17554244.92708  17554246.24608         0.00001
  -1634157.17207  -1273368.20007  20389195.69607  20389198.10707         0.00001
 -17914562.15708 -13959374.52308  17561691.59508  17561692.25308         0.00001
 93 04 07 03 34 00.0000000  0  6 24 20 13 03 12 16
 -27920894.31308 -21756485.36808  16625502.66008  16625502.67208         0.00001
 -18386067.31708 -14326790.29508  16782020.55008  16782020.80908         0.00001
 -15201965.47008 -11845628.16607  19535694.80008  19535696.03307         0.00001
  -1901592.99307  -1481759.60907  20338304.32007  20338306.56607         0.00001
 -19840043.67708 -15459752.32608  17609443.70508  17609445.16508         0.00001
 -18218281.81308 -14196039.09808  17503895.55308  17503896.16408         0.00001
 93 04 07 03 36 00.0000000  0  6 24 20 12 13 03 16
 -27705670.48008 -21588778.46708  16666458.36508  16666458.39208         0.00001
 -18675849.34508 -14552594.36908  16726876.81808  16726877.02608         0.00001
 -19543444.01708 -15228635.81208  17665884.92708  17665886.33108         0.00001
 -14972992.38308 -11667207.55607  19579266.90708  19579268.34207         0.00001
  -2167758.32707  -1689161.06907  20287654.55507  20287656.76307         0.00001
 -18516283.83608 -14428248.38008  17447187.45908  17447188.17508         0.00001
 93 04 07 03 38 00.0000000  0  6 24 20 12 13 03 16
 -27486024.47708 -21417625.72208  16708255.59308  16708255.68808         0.00001
 -18959374.53208 -14773522.96508  16672923.67008  16672923.90208         0.00001
 -19240493.09108 -14992570.26508  17723534.65208  17723536.06808         0.00001
 -14744665.61108 -11489290.57507  19622716.39208  19622717.41507         0.00001
  -2432682.14407  -1895595.07807  20237241.19007  20237243.33007         0.00001
 -18808136.84108 -14655666.19408  17391649.62308  17391650.26708         0.00001
 93 04 07 03 40 00.0000000  0  6 24 20 12 13 03 16
 -27261886.79908 -21242972.96108  16750907.54308  16750907.64808         0.00001
 -19236502.68808 -14989466.86808  16620187.87708  16620188.06008         0.00001
 -18931402.95908 -14751720.90908  17782352.50808  17782354.03508         0.00001
 -14516983.08608 -11311875.61407  19666042.58808  19666043.86307         0.00001
  -2696425.02307  -2101108.88007  20187052.29407  20187054.78107         0.00001
 -19093647.74308 -14878142.13908  17337318.60808  17337319.20208         0.00001
 93 04 07 03 42 00.0000000  0  6 24 20 12 16 13 03
 -27033725.44808 -21065184.86608  16794325.17108  16794325.28408         0.00001
 -19507084.81108 -15200309.96908  16568697.72108  16568697.87808         0.00001
 -18616377.81208 -14506246.87208  17842299.88708  17842301.41008         0.00001
 -19373100.39608 -15095897.36608  17284140.48908  17284141.13908         0.00001
 -14289933.75608 -11134954.06907  19709248.77908  19709250.10107         0.00001
  -2959037.27007  -2305741.67308  20137078.80507  20137081.27808         0.00001
 93 04 07 03 44 00.0000000  0  6 24 20 12 16 13 03
 -26801666.65108 -20884359.79808  16838484.49608  16838484.53408         0.00001
 -19770958.02108 -15405925.36008  16518484.26608  16518484.29508         0.00001
 -18295610.17608 -14256298.15508  17903340.07508  17903341.57408         0.00001
 -19645997.25508 -15308544.19208  17232209.80108  17232210.35808         0.00001
 -14063492.48408 -10958506.30307  19752338.95208  19752340.58607         0.00001
  -3220555.92808  -2509522.26508  20087313.53008  20087315.63008         0.00001
 93 04 07 03 46 00.0000000  0  6 24 20 12 16 13 03
 -26565587.57608 -20700402.04108  16883408.84108  16883408.92208         0.00001
 -20028018.37108 -15606232.03808  16469567.22308  16469567.24508         0.00001
 -17969351.19308 -14002070.46408  17965425.07108  17965426.60308         0.00001
 -19912211.23108 -15515983.56808  17181550.98308  17181551.39208         0.00001
 -13837685.87008 -10782553.06907  19795308.55908  19795309.70907         0.00001
  -3481074.83707  -2712523.84107  20037738.21807  20037740.12807         0.00001
 93 04 07 03 48 00.0000000  0  6 24 20 12 16 13 03
 -26325742.72208 -20513509.92108  16929049.77908  16929049.85008         0.00001
 -20278077.58008 -15801083.29208  16421982.43008  16421982.54108         0.00001
 -17637768.11608 -13743694.13908  18028523.42808  18028524.85308         0.00001
 -20171579.67308 -15718088.77208  17132194.73708  17132195.20608         0.00001
 -13612452.42508 -10607046.48707  19838169.10708  19838170.14607         0.00001
  -3740601.86807  -2914752.51908  19988351.72107  19988353.73508         0.00001
 93 04 07 03 50 00.0000000  0  6 24 20 12 16 13 03
 -26082313.00508 -20323824.41308  16975372.86108  16975372.86508         0.00001
 -20521003.88208 -15990376.44608  16375755.01908  16375755.15208         0.00001
 -17301083.14208 -13481342.30208  18092592.53508  18092594.03808         0.00001
 -20423883.50108 -15914689.08208  17084182.86108  17084183.44008         0.00001
 -13387783.04508 -10431979.40907  19880922.12408  19880923.62007         0.00001
  -3999198.32507  -3116256.09408  19939142.32507  19939144.39708         0.00001
 93 04 07 03 52 00.0000000  0  7 24 20 12 16 13 03 17
 -25835203.09808 -20131271.22208  17022396.36508  17022396.27308         0.00001
 -20756634.22308 -16173984.42908  16330916.05108  16330916.13708         0.00001
 -16959486.89608 -13215163.49808  18157596.17808  18157597.78608         0.00001
 -20669045.84308 -16105724.57708  17037530.05708  17037530.47208         0.00001
 -13163635.02008 -10257318.61007  19923576.47408  19923577.38507         0.00001
  -4256892.35008  -3317056.45508  19890104.69508  19890106.75008         0.00001
        -0.55317        -0.53017  20630228.24417  20630230.46417         0.00011
 93 04 07 03 54 00.0000000  0  7 24 20 12 16 13 03 17
 -25584732.17708 -19936099.06108  17070059.38408  17070059.32908         0.00001
 -20984807.35608 -16351781.60408  16287496.06608  16287496.05808         0.00001
 -16613172.25908 -12945308.04308  18223497.76208  18223499.34208         0.00001
 -20906966.20308 -16291116.94808  16992255.18808  16992255.50708         0.00001
 -12939964.53708 -10083029.92507  19966139.11908  19966140.41107         0.00001
  -4513711.75308  -3517175.33008  19841233.39008  19841235.49208         0.00001
   -414668.60507   -323117.81207  20551318.98607  20551321.15707         0.00001
 93 04 07 03 56 00.0000000  0  7 24 20 12 16 13 03 17
 -25331096.21608 -19738460.63308  17118324.71908  17118324.66908         0.00001
 -21205390.50008 -16523664.48308  16245520.35808  16245520.38508         0.00001
 -16262356.84508 -12671945.47908  18290255.70808  18290257.34808         0.00001
 -21137481.34608 -16470739.04008  16948389.54008  16948389.88308         0.00001
 -12716746.85908  -9909094.08107  20008616.03508  20008617.41207         0.00001
  -4769708.44408  -3716653.06208  19792518.90308  19792520.82708         0.00001
   -827092.12406   -644486.16307  20472836.16006  20472838.72507         0.00001
 93 04 07 03 58 00.0000000  0  7 24 20 12 16 13 03 17
 -25074427.51608 -19538459.01608  17167167.08408  17167167.09608         0.00001
 -21418261.36309 -16689537.78008  16205012.39509  16205012.32508         0.00001
 -15907268.50308 -12395253.35908  18357826.91608  18357828.48708         0.00001
 -21360323.10908 -16644381.87308  16905984.07408  16905984.41008         0.00001
 -12493968.00808  -9735500.16607  20051009.43708  20051010.78907         0.00001
  -5024943.60308  -3915537.37208  19743948.97108  19743950.91608         0.00001
  -1237466.37606   -964257.78907  20394744.23406  20394746.38907         0.00001
 93 04 07 04 00 00.0000000  0  7 20 24 12 16 13 03 17
 -21623287.84809 -16849298.58408  16165997.09009  16165997.01408         0.00001
 -24814931.19508 -19336254.04908  17216547.54808  17216547.45708         0.00001
 -15548122.03008 -12115399.07008  18426170.27308  18426172.06608         0.00001
 -21575384.29008 -16811961.91008  16865059.18908  16865059.47808         0.00001
 -12271594.10108  -9562221.77007  20093325.82908  20093327.14907         0.00001
  -5279463.60108  -4113864.36708  19695515.15908  19695517.22008         0.00001
  -1645394.78506  -1282123.58807  20317118.33206  20317120.01307         0.00001
 93 04 07 04 02 00.0000000  0  7 24 20 12 16 13 03 17
 -24552389.27108 -19131675.89008  17266507.62408  17266507.49608         0.00001
 -21820349.42409 -17002852.99008  16128497.45909  16128497.40708         0.00001
 -15185140.08208 -11832556.09708  18495243.36708  18495245.28208         0.00001
 -21782504.53808 -16973354.20708  16825645.54408  16825645.72508         0.00001
 -12049604.35308  -9389242.70107  20135569.18008  20135570.26407         0.00001
  -5533321.65908  -4311675.59508  19647207.41208  19647209.33008         0.00001
  -2051112.83607  -1598267.03407  20239912.35807  20239913.86007         0.00001
 93 04 07 04 04 00.0000000  0  7 24 20 12 16 13 03 17
 -24286922.12408 -18924818.33008  17317024.25408  17317024.25308         0.00001
 -22009318.01709 -17150101.18208  16092537.91609  16092537.79008         0.00001
 -14818536.99208 -11546891.47608  18565005.79708  18565007.60708         0.00001
 -21981571.14208 -17128470.94408  16787764.24908  16787764.49108         0.00001
 -11827964.11208  -9216536.03907  20177745.95208  20177746.95807         0.00001
  -5786561.54008  -4509005.18108  19599017.30508  19599019.17108         0.00001
  -2454470.49807  -1912571.34607  20163155.18807  20163156.83107         0.00001
 93 04 07 04 06 00.0000000  0  7 20 24 16 12 13 03 17
 -22190079.79909 -17290954.45908  16058140.05709  16058139.89008         0.00001
 -24018960.45508 -18716016.99408  17368015.54708  17368015.58108         0.00001
 -22172647.83108 -17277361.78008  16751403.48808  16751403.74908         0.00001
 -14448535.94608 -11258579.08708  18635414.76008  18635416.50508         0.00001
 -11606644.19508  -9044078.96307  20219861.72408  20219862.59407         0.00001
  -6039234.79208  -4705893.20508  19550935.16908  19550936.73708         0.00001
  -2855161.38007  -2224797.68807  20086906.04907  20086907.70807         0.00001
 93 04 07 04 08 00.0000000  0  7 24 20 16 12 13 03 17
 -23748767.41708 -18505476.94908  17419431.54208  17419431.62308         0.00001
 -22362526.62809 -17425328.55308  16025324.42809  16025324.27508         0.00001
 -22355383.63108 -17419753.22608  16716629.95408  16716630.17008         0.00001
 -14075364.48808 -10967796.25608  18706426.75808  18706428.90208         0.00001
 -11385621.80307  -8871853.68307  20261920.56307  20261921.76007         0.00001
  -6291396.19908  -4902382.34408  19502950.08108  19502951.76208         0.00001
  -3253533.91607  -2535217.64407  20011098.13307  20011099.76107         0.00001
 93 04 07 04 10 00.0000000  0  6 20 24 16 12 03 17
 -22526545.69609 -17553135.56308  15994112.54609  15994112.43808         0.00001
 -23476203.76808 -18293089.66508  17471298.61008  17471298.62508         0.00001
 -22529679.80408 -17555568.31708  16683462.51308  16683462.52308         0.00001
 -13699239.69008 -10674712.08408  18778001.17908  18778003.02208         0.00001
  -6543089.50308  -5098506.73408  19455054.12508  19455055.90308         0.00001
  -3649196.59608  -2843526.01507  19935806.05808  19935807.19307         0.00001
 93 04 07 04 12 00.0000000  0  6 20 24 16 03 12 17
 -22682022.49609 -17674286.27108  15964526.32909  15964526.11308         0.00001
 -23201650.54608 -18079152.07208  17523544.32808  17523544.30008         0.00001
 -22695632.21308 -17684881.78908  16651882.71208  16651882.75808         0.00001
  -6794349.84108  -5294293.74008  19407240.64808  19407242.37808         0.00001
 -13320370.81108 -10379489.69408  18850097.82508  18850099.44208         0.00001
  -4042324.73008  -3149859.45707  19860996.20208  19860997.49907         0.00001
 93 04 07 04 14 00.0000000  0  6 20 24 16 03 12 17
 -22828865.90409 -17788709.65608  15936582.89409  15936582.70808         0.00001
 -22924974.94108 -17863560.66508  17576193.94208  17576193.96608         0.00001
 -22853263.27308 -17807711.09908  16621886.40008  16621886.49208         0.00001
  -7045234.42608  -5489787.94308  19359498.84008  19359500.40908         0.00001
 -12938989.42008 -10082309.48208  18922672.15608  18922673.93908         0.00001
  -4432538.00508  -3453921.61408  19786740.88208  19786742.45408         0.00001
 93 04 07 04 16 00.0000000  0  6 20 16 24 03 12 17
 -22966981.68709 -17896332.30008  15910300.27609  15910300.09908         0.00001
 -23002229.05908 -17923788.25708  16593539.12408  16593539.14008         0.00001
 -22646222.77408 -17646351.15208  17629238.83508  17629238.71608         0.00001
  -7295788.63908  -5685024.74708  19311819.78808  19311821.09908         0.00001
 -12555317.65808  -9783344.53308  18995682.54708  18995684.41608         0.00001
  -4820037.96208  -3755869.54608  19713001.91408  19713003.48308         0.00001
 93 04 07 04 18 00.0000000  0  6 20 16 24 03 12 17
 -23096254.03109 -17997063.95808  15885700.59009  15885700.32708         0.00001
 -23142414.77209 -18033023.79208  16566862.67309  16566862.60808         0.00001
 -22365694.92708 -17427758.00908  17682621.42708  17682621.43208         0.00001
  -7546032.06108  -5880019.38108  19264199.88208  19264201.16008         0.00001
 -12169551.12508  -9482747.34308  19069091.68708  19069093.55908         0.00001
  -5204698.17908  -4055604.67408  19639803.60008  19639804.75808         0.00001
 93 04 07 04 20 00.0000000  0  6 20 16 24 03 12 17
 -23216574.76709 -18090820.33908  15862804.24509  15862803.98908         0.00001
 -23273524.78209 -18135187.36408  16541913.10309  16541913.15408         0.00001
 -22083204.25008 -17207635.36408  17736377.45708  17736377.55808         0.00001
  -7795985.15108  -6074787.82208  19216635.12908  19216636.44508         0.00001
 -11781886.46808  -9180671.08808  19142861.78808  19142863.78608         0.00001
  -5586404.89908  -4353038.35008  19567166.96908  19567168.14208         0.00001
 93 04 07 04 22 00.0000000  0  6 20 16 24 03 12 17
 -23327880.80209 -18177552.26808  15841623.32209  15841623.15908         0.00001
 -23395867.15409 -18230519.01608  16518632.07509  16518632.09308         0.00001
 -21799194.16208 -16986328.77808  17790422.81808  17790422.72408         0.00001
  -8045705.06208  -6269374.54108  19169114.86908  19169116.08308         0.00001
 -11392558.80808  -8877298.96308  19216948.36208  19216950.40208         0.00001
  -5965227.58108  -4648224.72008  19495079.50508  19495080.77508         0.00001
 93 04 07 04 24 00.0000000  0  6 20 16 24 03 12 17
 -23430084.55009 -18257191.52308  15822174.63009  15822174.38108         0.00001
 -23509151.86208 -18318792.74208  16497074.74408  16497074.68908         0.00001
 -21513818.59008 -16763958.18208  17844728.06008  17844727.99508         0.00001
  -8295220.74708  -6463802.14408  19121633.55708  19121634.58808         0.00001
 -11001774.79808  -8572792.05708  19291312.19108  19291314.10308         0.00001
  -6340952.55208  -4940997.30208  19423581.10308  19423582.32208         0.00001
 93 04 07 04 26 00.0000000  0  6 20 16 24 03 12 17
 -23523116.83809 -18329684.19008  15804471.13609  15804470.89308         0.00001
 -23613399.41008 -18400024.52408  16477236.90908  16477236.89608         0.00001
 -21227012.09908 -16540472.59108  17899305.42708  17899305.57608         0.00001
  -8544569.44008  -6658099.64608  19074183.96008  19074184.87508         0.00001
 -10609750.47808  -8267318.65908  19365912.07308  19365914.07708         0.00001
  -6713728.90808  -5231472.23908  19352644.25408  19352645.03908         0.00001
 93 04 07 04 28 00.0000000  0  6 20 16 24 03 12 17
 -23606891.48209 -18394963.11708  15788529.32809  15788529.11708         0.00001
 -23708676.40208 -18474266.27108  16459106.28008  16459106.29908         0.00001
 -20938636.20308 -16315764.07808  17954181.55508  17954181.50008         0.00001
  -8793766.07408  -6852278.63008  19026763.27908  19026764.18108         0.00001
 -10216679.53908  -7961029.70608  19440710.99008  19440713.13808         0.00001
  -7083318.61508  -5519464.07908  19282313.42108  19282314.40108         0.00001
 93 04 07 04 30 00.0000000  0  6 20 16 24 03 12 17
 -23681363.80509 -18452993.49108  15774357.69509  15774357.48008         0.00001
 -23794670.17908 -18541274.34308  16442742.16408  16442742.13708         0.00001
 -20649319.60408 -16090322.55808  18009236.63608  18009236.54908         0.00001
  -9042859.07908  -7046376.87008  18979362.30808  18979363.38308         0.00001
  -9822789.29708  -7654102.36208  19515665.86808  19515668.14508         0.00001
  -7449516.96508  -5804813.31408  19212628.03108  19212629.12708         0.00001
 93 04 07 04 32 00.0000000  0  6 20 16 24 03 12 17
 -23746478.41609 -18503732.13808  15761966.80609  15761966.51408         0.00001
 -23871376.84008 -18601045.70408  16428145.26908  16428145.18308         0.00001
 -20359205.63008 -15864259.71408  18064443.40108  18064443.43108         0.00001
  -9291879.23708  -7240418.36508  18931975.21308  18931976.13508         0.00001
  -9428291.01608  -7346701.22008  19590736.53808  19590738.74708         0.00001
  -7812569.82208  -6087711.51508  19143541.30808  19143542.17708         0.00001
 93 04 07 04 34 00.0000000  0  6 20 16 24 03 12 17
 -23802166.77809 -18547125.65908  15751369.65809  15751369.44808         0.00001
 -23938862.74308 -18653632.06708  16415303.08708  16415303.04108         0.00001
 -20067693.16708 -15637107.13608  18119916.50108  18119916.45608         0.00001
  -9540837.64508  -7434411.75908  18884599.90608  18884600.73308         0.00001
  -9033375.04708  -7038974.61808  19665886.51108  19665888.81508         0.00001
  -8172640.84708  -6368286.21708  19075021.97208  19075022.70708         0.00001
 93 04 07 04 36 00.0000000  0  6 20 16 24 03 12 17
 -23848385.75509 -18583140.43709  15742574.44109  15742574.27509         0.00001
 -23997128.96308 -18699034.26008  16404215.37808  16404215.29208         0.00001
 -19775269.45708 -15409244.51308  18175562.84308  18175562.93508         0.00001
  -9789760.29808  -7628377.28708  18837231.29108  18837232.08008         0.00001
  -8638248.31708  -6731083.79808  19741076.70808  19741079.05008         0.00001
  -8529157.16708  -6646090.99508  19007179.09308  19007180.06008         0.00001
 93 04 07 04 38 00.0000000  0  7 20 16 24 25 03 12 17
 -23885150.49509 -18611788.28908  15735578.36409  15735578.08608         0.00001
 -24046039.54408 -18737146.34808  16394907.92108  16394907.85108         0.00001
 -19482222.00608 -15180895.85408  18231327.98008  18231327.97708         0.00001
        -0.34817         0.05217  20197710.34317  20197710.51517         0.00011
 -10038723.65908  -7822374.58508  18789855.04608  18789855.81208         0.00001
  -8243167.86108  -6423228.97108  19816258.12208  19816260.42908         0.00001
  -8882358.92708  -6921312.98808  18939966.98108  18939967.90908         0.00001
 93 04 07 04 40 00.0000000  0  7 20 16 24 25 03 12 17
 -23912400.57309 -18633022.12609  15730392.82909  15730392.64209         0.00001
 -24085467.72608 -18767869.56108  16387405.00908  16387404.97508         0.00001
 -19188099.40408 -14951709.42908  18287297.73508  18287297.56308         0.00001
    -50570.30607    -39404.98507  20188087.04207  20188087.29907         0.00001
 -10287720.84008  -8016398.24608  18742472.32808  18742473.11408         0.00001
  -7848308.19208  -6115546.16807  19891397.50608  19891399.54007         0.00001
  -9232114.60108  -7193849.70808  18873410.49308  18873411.24708         0.00001
 93 04 07 04 42 00.0000000  0  7 20 16 24 25 03 12 17
 -23930094.92909 -18646809.94709  15727025.77209  15727025.52109         0.00001
 -24115662.30809 -18791397.75908  16381659.13009  16381659.03808         0.00001
 -18893454.90808 -14722116.31908  18343366.54708  18343366.58808         0.00001
    -93367.32707    -72753.23407  20179943.07207  20179943.23707         0.00001
 -10536755.37208  -8210451.00308  18695082.51108  18695083.28808         0.00001
  -7453853.53608  -5808178.99207  19966459.88208  19966461.82107         0.00001
  -9578365.72308  -7463655.59108  18807520.85208  18807521.67708         0.00001
 93 04 07 04 44 00.0000000  0  7 20 16 24 25 03 12 17
 -23938184.14709 -18653113.25408  15725486.41109  15725486.14808         0.00001
 -24136523.88709 -18807653.48908  16377689.28909  16377689.14708         0.00001
 -18598282.58208 -14492111.94808  18399535.93808  18399535.96708         0.00001
   -128181.49706    -99881.09407  20173317.94206  20173318.19307         0.00001
 -10785815.11108  -8404523.40108  18647687.88808  18647688.69808         0.00001
  -7059973.51508  -5501259.62108  20041413.04208  20041415.04108         0.00001
  -9921276.12608  -7730858.31408  18742266.99108  18742267.94308         0.00001
 93 04 07 04 46 00.0000000  0  7 20 16 24 25 03 12 17
 -23936702.10309 -18651958.43909  15725768.45509  15725768.27209         0.00001
 -24147880.73609 -18816502.93608  16375528.07409  16375527.95108         0.00001
 -18302800.90408 -14261866.49308  18455764.32608  18455764.31008         0.00001
   -155388.40906   -121081.20907  20168140.84106  20168140.79807         0.00001
 -11034962.30008  -8598663.93208  18600276.67608  18600277.36408         0.00001
  -6666912.65408  -5194978.56508  20116210.42508  20116212.35008         0.00001
 -10260595.45408  -7995262.79508  18677696.60508  18677697.46408         0.00001
 93 04 07 04 48 00.0000000  0  6 20 16 24 03 12 17
 -23925622.60609 -18643325.08508  15727876.87609  15727876.60608         0.00001
 -24149589.96308 -18817834.76408  16375202.81008  16375202.72108         0.00001
 -18006887.25408 -14031284.43308  18512074.84408  18512074.94108         0.00001
 -11284189.73508  -8792867.02908  18552850.22908  18552850.85008         0.00001
  -6274845.71507  -4889471.99708  20190818.09807  20190820.12308         0.00001
 -10596274.49408  -8256830.72808  18613818.82108  18613819.74708         0.00001
 93 04 07 04 50 00.0000000  0  6 20 16 24 03 12 17
 -23904950.14709 -18627216.69308  15731810.67109  15731810.45208         0.00001
 -24141980.84808 -18811905.54908  16376650.74808  16376650.57708         0.00001
 -17710766.27008 -13800540.84208  18568424.85708  18568424.74908         0.00001
 -11533511.50808  -8987143.63108  18505405.84408  18505406.32708         0.00001
  -5883969.53107  -4584893.29107  20265198.75507  20265201.33807         0.00001
 -10928608.35508  -8515792.05608  18550577.57808  18550578.44408         0.00001
 93 04 07 04 52 00.0000000  0  6 20 16 24 03 12 17
 -23874715.75509 -18603657.42409  15737564.10109  15737563.91109         0.00001
 -24125423.19008 -18799003.45008  16379801.50608  16379801.37308         0.00001
 -17414161.33708 -13569420.13708  18624866.99808  18624866.79608         0.00001
 -11782960.13508  -9181519.09408  18457937.19408  18457937.88008         0.00001
  -5494499.32508  -4281410.15608  20339312.68308  20339315.36608         0.00001
 -11257107.40608  -8771765.21108  18488066.34408  18488067.01408         0.00001
 93 04 07 04 54 00.0000000  0  6 20 16 24 03 12 17
 -23834933.43009 -18572658.25208  15745134.46709  15745134.25908         0.00001
 -24099519.60809 -18778818.81808  16384730.90709  16384730.73208         0.00001
 -17117410.95508 -13338186.08508  18681336.59008  18681336.80308         0.00001
 -12032542.24308  -9375998.56708  18410443.23708  18410443.82608         0.00001
  -5106624.64908  -3979170.31907  20413123.43608  20413125.82507         0.00001
 -11582245.61408  -9025119.54408  18426194.60908  18426195.22108         0.00001
 93 04 07 04 56 00.0000000  0  6 20 16 24 03 12 17
 -23785640.37309 -18534248.11908  15754514.62009  15754514.49208         0.00001
 -24064014.43908 -18751152.43708  16391487.20108  16391487.09108         0.00001
 -16820618.47508 -13106919.23408  18737814.29108  18737814.56708         0.00001
 -12282276.23008  -9570596.40608  18362920.48108  18362920.90108         0.00001
  -4720547.82608  -3678331.44607  20486591.47808  20486593.87307         0.00001
 -11903749.19608  -9275641.72908  18365014.31708  18365015.11408         0.00001
 93 04 07 04 58 00.0000000  0  8 20 16 24 26 03 12 17 25
 -23726852.38209 -18488439.32308  15765701.66909  15765701.47808         0.00001
 -24019231.80008 -18716256.85008  16400009.05108  16400008.95908         0.00001
 -16523909.34008 -12875717.33108  18794276.19108  18794276.21908         0.00001
        -0.47117        -0.97817  20361792.59117  20361792.97717         0.00011
 -12532152.98108  -9765305.47008  18315370.46808  18315370.80808         0.00001
  -4336442.82208  -3379029.06607  20559684.31508  20559686.84907         0.00001
 -12221319.56008  -9523099.06408  18304582.73508  18304583.32308         0.00001
        -0.49316        -0.75316  20167174.27716  20167173.65816         0.00011
 93 04 07 05 00 00.0000000  0  8 20 16 24 26 03 12 17 25
 -23658552.30509 -18435218.53408  15778698.71409  15778698.54608         0.00001
 -23965338.93008 -18674262.38508  16410264.51008  16410264.34908         0.00001
 -16227421.93308 -12644688.18708  18850696.04408  18850695.81608         0.00001
   -302369.84407   -235613.45107  20304253.59307  20304254.23707         0.00001
 -12782119.50108  -9960084.45008  18267803.25208  18267803.76808         0.00001
  -3954440.26507  -3081365.00007  20632377.23507  20632379.69707         0.00001
 -12535276.80708  -9767740.97708  18244838.50708  18244839.16308         0.00001
     24957.83806     19447.26306  20171923.49706  20171923.53606         0.00001
 93 04 07 05 02 00.0000000  0  8 20 16 24 26 03 12 17 25
 -23580748.01109 -18374591.84608  15793504.46209  15793504.26108         0.00001
 -23902248.19308 -18625100.75308  16422270.19308  16422270.07908         0.00001
 -15930808.81708 -12413561.08208  18907139.70508  18907139.54908         0.00001
   -606549.45907   -472636.48807  20246369.85107  20246370.72807         0.00001
 -13032139.89508 -10154905.44508  18220225.97108  18220226.36408         0.00001
  -3574688.27707  -2785454.61807  20704641.69207  20704644.36607         0.00001
 -12845338.96408 -10009347.75608  18185835.47708  18185836.24208         0.00001
     56920.97006     44353.56306  20178005.83106  20178005.79906         0.00001
 93 04 07 05 04 00.0000000  0  8 20 16 24 03 26 12 17 25
 -23493483.94509 -18306593.89308  15810110.21309  15810110.10108         0.00001
 -23829705.93608 -18568574.30208  16436074.56008  16436074.40108         0.00001
 -15633963.02308 -12182252.66208  18963627.36508  18963627.41808         0.00001
 -13282203.08708 -10349759.79708  18172640.42808  18172640.73708         0.00001
   -912560.51307   -711086.59007  20188138.00907  20188138.55007         0.00001
  -3197359.97507  -2491432.78406  20776445.11007  20776447.66206         0.00001
 -13151642.11508 -10248025.44508  18127548.05408  18127548.55908         0.00001
     96166.21507     74934.18406  20185474.25107  20185474.29906         0.00001
 93 04 07 05 06 00.0000000  0  7 20 16 24 26 03 17 25
 -23396837.18909 -18231284.77708  15828501.51709  15828501.41708         0.00001
 -23748022.74308 -18504925.03408  16451618.33108  16451618.26508         0.00001
 -15337315.73608 -11951098.95308  19020077.42008  19020077.64008         0.00001
  -1220226.65408   -950826.37607  20129591.02008  20129591.23807         0.00001
 -13532323.99708 -10544659.15308  18125043.92008  18125044.28508         0.00001
 -13454508.89408 -10484025.44008  18069914.38608  18069914.73608         0.00001
    142343.85307    110916.67306  20194261.40007  20194261.58006         0.00001
 93 04 07 05 08 00.0000000  0  7 20 16 24 26 03 17 25
 -23290893.89809 -18148731.59408  15848661.92509  15848661.80408         0.00001
 -23657871.02908 -18434676.91408  16468773.60508  16468773.49308         0.00001
 -15040941.56608 -11720158.08308  19076475.30508  19076475.80108         0.00001
  -1529144.45508  -1191541.43507  20070806.00208  20070806.28807         0.00001
 -13782515.15008 -10739613.22408  18077433.99508  18077434.34108         0.00001
 -13753444.95608 -10716962.49008  18013028.49008  18013029.08108         0.00001
    195202.44506    152105.12006  20204320.18706  20204320.38206         0.00001
 93 04 07 05 10 00.0000000  0  7 20 16 03 24 26 17 25
 -23175718.40209 -18058984.48208  15870579.10609  15870578.98708         0.00001
 -23558560.66108 -18357292.18708  16487671.72408  16487671.55608         0.00001
 -14032758.23308 -10934607.76908  18029814.32008  18029814.72608         0.00001
 -14744896.70708 -11489473.75508  19132810.93108  19132811.10908         0.00001
  -1839363.13808  -1433270.23807  20011773.11608  20011773.68007         0.00001
 -14048452.09708 -10946838.04308  17956890.46308  17956890.86808         0.00001
    254959.76706    198669.23506  20215691.58006  20215691.80906         0.00001
 93 04 07 05 12 00.0000000  0  6 20 16 03 24 26 17
 -23051430.33909 -17962136.68008  15894230.35309  15894230.27108         0.00001
 -23450208.96008 -18272862.25508  16508290.41508  16508290.19108         0.00001
 -14283082.12108 -11129665.31608  17982179.28608  17982179.56308         0.00001
 -14449366.79808 -11259190.68808  19189048.80908  19189048.40008         0.00001
  -2150731.53308  -1675894.89807  19952521.72708  19952522.07507         0.00001
 -14339650.57108 -11173745.77708  17901477.03508  17901477.48608         0.00001
 93 04 07 05 14 00.0000000  0  6 20 16 03 24 26 17
 -22918120.96609 -17858259.28208  15919598.26109  15919598.23908         0.00001
 -23333274.36708 -18181744.35908  16530542.25508  16530542.03208         0.00001
 -14533479.43308 -11324780.05008  17934530.18208  17934530.40608         0.00001
 -14154299.66208 -11029268.19308  19245197.96608  19245197.63008         0.00001
  -2463240.73808  -1919408.50807  19893053.21508  19893053.40607         0.00001
 -14627116.93808 -11397745.37308  17846773.98608  17846774.31108         0.00001
 93 04 07 05 16 00.0000000  0  6 20 16 03 24 26 17
 -22775855.39909 -17747403.03008  15946670.54109  15946670.46608         0.00001
 -23207552.20308 -18083779.02108  16554466.36308  16554466.17908         0.00001
 -14783907.33808 -11519918.63208  17886875.28208  17886875.64208         0.00001
 -13859616.23808 -10799644.72708  19301274.32008  19301274.21408         0.00001
  -2776354.88908  -2163393.41408  19833469.46408  19833469.82208         0.00001
 -14911036.62008 -11618981.36008  17792745.57308  17792745.94308         0.00001
 93 04 07 05 18 00.0000000  0  6 20 16 03 17 24 26
 -22624739.87409 -17629650.69908  15975426.94009  15975426.80408         0.00001
 -23073363.84408 -17979216.63908  16580001.62708  16580001.40308         0.00001
 -15034352.76808 -11715070.84108  17839217.04108  17839217.40408         0.00001
 -15190999.22408 -11837133.91808  17739470.42608  17739470.74408         0.00001
 -13565714.43708 -10570630.36408  19357202.01308  19357201.94508         0.00001
  -3090077.32108  -2407852.24108  19773770.01908  19773770.35008         0.00001
 93 04 07 05 20 00.0000000  0  7 20 03 16 17 24 26 25
 -22464868.76109 -17505075.86608  16005849.43609  16005849.32108         0.00001
 -15284783.66808 -11910211.77808  17791561.68008  17791561.93408         0.00001
 -22930606.57908 -17867977.19808  16607167.32608  16607167.09108         0.00001
 -15467106.14208 -12052282.10908  17686929.06708  17686929.35608         0.00001
 -13272188.91508 -10341909.17908  19413058.20708  19413058.17208         0.00001
  -3404238.52408  -2652652.96608  19713986.61708  19713987.17608         0.00001
         0.35716        -0.49916  20290716.70816  20290716.98916         0.00011
 93 04 07 05 22 00.0000000  0  6 20 03 16 17 24 26
 -22296313.44509 -17373734.11808  16037924.47609  16037924.45208         0.00001
 -15535135.72208 -12105291.24808  17743921.23608  17743921.46808         0.00001
 -22779669.48908 -17750363.85908  16635889.81308  16635889.45608         0.00001
 -15739621.86408 -12264631.89408  17635070.96608  17635071.22708         0.00001
 -12979032.98208 -10113475.94708  19468844.12308  19468843.80308         0.00001
  -3718590.84908  -2897602.66508  19654167.38608  19654167.61308         0.00001
 93 04 07 05 24 00.0000000  0  7 20 03 16 17 24 26 23
 -22119152.42509 -17235686.61108  16071637.23409  16071637.09808         0.00001
 -15785343.11908 -12300257.97508  17696308.35908  17696308.54408         0.00001
 -22620352.21208 -17626220.50508  16666206.84308  16666206.50508         0.00001
 -16007878.48508 -12473662.82408  17584023.25208  17584023.49808         0.00001
 -12686515.30608  -9885540.08808  19524507.99208  19524507.87408         0.00001
  -4032843.27808  -3142474.53808  19594366.70308  19594367.15308         0.00001
        -0.36017         0.22618  20075226.69017  20075228.37418         0.00011
 93 04 07 05 26 00.0000000  0  7 20 03 16 17 24 26 23
 -21933479.46709 -17091006.41508  16106969.58609  16106969.53508         0.00001
 -16035345.61408 -12495065.05208  17648734.40308  17648734.60008         0.00001
 -22452677.18408 -17495564.62108  16698114.24408  16698114.02108         0.00001
 -16272712.78408 -12680027.01408  17533626.87708  17533626.97308         0.00001
 -12394753.05508  -9658192.87408  19580028.37908  19580028.43408         0.00001
  -4347099.98108  -3387349.63808  19534565.58008  19534565.83008         0.00001
   -450208.00807   -350810.73608  19989554.76707  19989556.44608         0.00001
 93 04 07 05 28 00.0000000  0  7 20 03 16 17 24 26 23
 -21739453.38009 -16939817.33208  16143891.59109  16143891.52608         0.00001
 -16285141.01408 -12689710.76108  17601199.92808  17601200.08008         0.00001
 -22276967.45508 -17358647.93608  16731550.65208  16731550.42108         0.00001
 -16533705.75008 -12883398.05908  17483961.61608  17483961.56008         0.00001
 -12103368.72808  -9431140.14508  19635477.09708  19635476.98108         0.00001
  -4660912.50108  -3631878.61508  19474848.87508  19474849.20608         0.00001
   -899712.76508   -701074.01008  19904016.83908  19904018.32108         0.00001
 93 04 07 05 30 00.0000000  0  7 20 03 16 24 26 23 17
 -21537202.23308 -16782219.12808  16182378.70308  16182378.71808         0.00001
 -16534688.40608 -12884163.21708  17553712.52108  17553712.74008         0.00001
 -22093095.75508 -17215371.27208  16766540.34408  16766540.04108         0.00001
 -11812764.36608  -9204695.16208  19690777.38708  19690777.22708         0.00001
  -4974177.31608  -3875980.88808  19415236.51808  19415236.86108         0.00001
  -1348326.03508  -1050642.59508  19818648.54408  19818649.84908         0.00001
 -16790706.36008 -13083658.18608  17435055.87908  17435055.89508         0.00001
 93 04 07 05 32 00.0000000  0  7 20 03 16 24 26 23 17
 -21326861.27508 -16618317.17108  16222405.33708  16222405.40608         0.00001
 -16783944.13608 -13078388.40908  17506280.70708  17506280.86008         0.00001
 -21901737.04708 -17066260.56808  16802954.65308  16802954.41108         0.00001
 -11523150.16208  -8979021.71608  19745888.95108  19745889.05208         0.00001
  -5286930.88008  -4119684.87108  19355721.31808  19355721.75708         0.00001
  -1795977.94608  -1399462.01808  19733462.90208  19733464.28708         0.00001
 -17043933.50608 -13280977.89608  17386868.13508  17386868.31808         0.00001
 93 04 07 05 34 00.0000000  0  7 20 03 24 26 23 16 17
 -21108570.11708 -16448220.33208  16263944.91908  16263944.99508         0.00001
 -17032863.92508 -13272351.81908  17458912.68808  17458912.88208         0.00001
 -11234125.55608  -8753807.70608  19800888.81808  19800888.55108         0.00001
  -5598745.11208  -4362656.93108  19296384.84208  19296385.16608         0.00001
  -2242519.14608  -1747415.93708  19648488.64808  19648490.08108         0.00001
 -21702888.13508 -16911313.34808  16840794.31908  16840794.03308         0.00001
 -17293069.46508 -13475109.66808  17339459.02608  17339459.18308         0.00001
 93 04 07 05 36 00.0000000  0  7 20 03 24 26 23 16 17
 -20882466.11208 -16272035.51108  16306971.14508  16306971.24008         0.00001
 -17281389.39008 -13466007.95508  17411619.78708  17411620.04508         0.00001
 -10945804.19608  -8529141.71508  19855754.25408  19855754.11108         0.00001
  -5909494.71408  -4604799.40708  19237251.28708  19237251.43808         0.00001
  -2687750.81308  -2094349.46208  19563763.67208  19563765.06808         0.00001
 -21496126.61208 -16750200.45008  16880139.73608  16880139.44408         0.00001
 -17538661.59408 -13666480.01808  17292724.39208  17292724.34508         0.00001
 93 04 07 05 38 00.0000000  0  7 20 03 24 26 23 16 17
 -20648690.39908 -16089872.75908  16351457.26708  16351457.38408         0.00001
 -17529462.12608 -13659311.31208  17364413.11808  17364413.24308         0.00001
 -10658063.49508  -8304928.20208  19910509.39308  19910509.48208         0.00001
  -6218773.96408  -4845796.03108  19178397.23908  19178397.19208         0.00001
  -3131745.33608  -2440319.01408  19479274.41308  19479275.25108         0.00001
 -21282215.17408 -16583516.19208  16920845.76408  16920845.39008         0.00001
 -17780653.08708 -13855044.67508  17246674.83508  17246674.70908         0.00001
 93 04 07 05 40 00.0000000  0  7 20 24 26 03 23 16 17
 -20407415.36308 -15901866.38408  16397370.45608  16397370.69808         0.00001
 -10371319.90008  -8081491.64408  19965074.86308  19965075.11908         0.00001
  -6526731.17808  -5085762.52308  19119794.76208  19119794.71808         0.00001
 -17777044.27908 -13852232.40408  17317299.73008  17317299.93708         0.00001
  -3574402.47308  -2785246.50208  19395039.62608  19395039.99408         0.00001
 -21060946.61408 -16411099.10708  16962951.61108  16962951.38608         0.00001
 -18018941.61708 -14040723.91608  17201329.86108  17201329.76208         0.00001
 93 04 07 05 42 00.0000000  0  7 20 24 26 03 23 16 17
 -20158789.51208 -15708132.04008  16444682.46108  16444682.72708         0.00001
 -10085506.40207  -7858779.84708  20019463.40307  20019463.55008         0.00001
  -6833050.99808  -5324453.13408  19061503.94908  19061503.92608         0.00001
 -18024069.01208 -14044719.15408  17270292.49908  17270292.64408         0.00001
  -4014815.83908  -3128425.58208  19311231.60708  19311232.06908         0.00001
 -20832504.54308 -16233092.29308  17006422.71308  17006422.46708         0.00001
 -18253139.82608 -14223215.89808  17156763.38308  17156763.19708         0.00001
 93 04 07 05 44 00.0000000  0  7 24 20 26 03 23 16 17
  -9800578.20308  -7636757.89308  20073683.45408  20073683.36308         0.00001
 -19902962.65008 -15508786.47308  16493364.79708  16493364.94408         0.00001
  -7137516.72408  -5561698.92308  19003565.81208  19003566.01808         0.00001
 -18270462.47108 -14236714.02008  17223405.31408  17223405.42308         0.00001
  -4453372.89708  -3470158.14708  19227776.49708  19227777.37208         0.00001
 -20597021.97408 -16049599.37708  17051233.58208  17051233.26208         0.00001
 -18483576.66808 -14402776.96008  17112912.67908  17112912.44408         0.00001
 93 04 07 05 46 00.0000000  0  7 24 20 26 03 23 16 17
  -9516488.95508  -7415389.66708  20127743.89008  20127743.62108         0.00001
 -19640083.81108 -15303945.87908  16543389.00808  16543389.17408         0.00001
  -7439920.84208  -5797338.22308  18946020.16508  18946020.01508         0.00001
 -18516141.72108 -14428152.35208  17176654.09508  17176654.31108         0.00001
  -4890198.10708  -3810541.25508  19144651.20108  19144652.41508         0.00001
 -20354559.88008 -15860667.87608  17097372.58708  17097372.29708         0.00001
 -18710701.94808 -14579757.59708  17069692.05408  17069691.81708         0.00001
 93 04 07 05 48 00.0000000  0  7 24 20 26 03 23 16 17
  -9233120.31008  -7194582.94708  20181667.41308  20181666.98108         0.00001
 -19370336.23008 -15093753.02808  16594720.32008  16594720.52308         0.00001
  -7739851.52008  -6031050.25108  18888945.25208  18888944.74108         0.00001
 -18761054.40808 -14618993.35208  17130048.72108  17130048.75208         0.00001
  -5325007.29108  -4149353.44108  19061909.72208  19061910.85308         0.00001
 -20105433.66308 -15666543.54908  17144779.65008  17144779.52208         0.00001
 -18934073.74008 -14753813.42808  17027185.68308  17027185.51108         0.00001
 93 04 07 05 50 00.0000000  0  7 24 20 26 03 23 16 17
  -8950761.16107  -6974562.83708  20235398.54507  20235398.54808         0.00001
 -19093874.86708 -14878328.66708  16647329.28408  16647329.44108         0.00001
  -8037755.85708  -6263183.30008  18832255.74708  18832255.35308         0.00001
 -19005110.86008 -14809167.16608  17083606.32108  17083606.30008         0.00001
  -5757512.23408  -4486370.08608  18979606.71608  18979607.65308         0.00001
 -19850241.40508 -15467692.43308  17193341.06408  17193340.92408         0.00001
 -19153438.55408 -14924746.98908  16985441.89408  16985441.74508         0.00001
 93 04 07 05 52 00.0000000  0  7 20 24 26 03 23 16 17
 -18810861.22408 -14657798.63308  16701184.95108  16701185.21108         0.00001
  -8669177.08607  -6755146.71907  20288981.92807  20288982.17507         0.00001
  -8333142.90308  -6493354.92908  18776045.21008  18776044.70008         0.00001
 -19248222.81408 -14998605.00708  17037343.61808  17037343.66108         0.00001
  -6187267.18608  -4821243.89508  18897827.00208  18897827.82108         0.00001
 -19588406.76208 -15263665.44408  17243166.53308  17243166.35108         0.00001
 -19369201.25608 -15092873.70908  16944383.58708  16944383.34408         0.00001
 93 04 07 05 54 00.0000000  0  7 20 24 26 03 23 16 17
 -18521475.65808 -14432303.46408  16756253.30508  16756253.54108         0.00001
  -8388493.38907  -6536432.18607  20342394.47907  20342394.14507         0.00001
  -8625342.39408  -6721042.75908  18720441.50108  18720441.13608         0.00001
 -19490313.99508 -15187247.44408  16991275.11508  16991275.21608         0.00001
  -6614641.79908  -5154262.92908  18816500.19808  18816500.89208         0.00001
 -19320366.00908 -15054802.52008  17294173.02108  17294172.82308         0.00001
 -19581354.48008 -15258187.81908  16904012.04408  16904011.84808         0.00001
 93 04 07 05 56 00.0000000  0  7 20 24 26 03 23 16 17
 -18225878.30008 -14201967.95108  16812503.61608  16812503.91908         0.00001
  -8108764.47107  -6318461.63707  20395625.16707  20395624.71807         0.00001
  -8914743.48508  -6946550.01908  18665370.24108  18665369.93108         0.00001
 -19731281.69908 -15375014.47208  16945420.49508  16945420.48808         0.00001
  -7039369.58808  -5485219.48308  18735677.02108  18735677.64008         0.00001
 -19046235.92708 -14841194.65908  17346338.32208  17346338.07908         0.00001
 -19790189.06408 -15420915.97308  16864272.09808  16864271.80708         0.00001
 93 04 07 05 58 00.0000000  0  7 24 20 26 03 23 16 17
  -7829987.27807  -6101232.76507  20448674.76407  20448674.82207         0.00001
 -17924245.74008 -13966929.67508  16869902.43408  16869902.72808         0.00001
  -9201083.30508  -7169671.80508  18610881.41208  18610880.92008         0.00001
 -19971035.56308 -15561835.65808  16899796.85408  16899796.92608         0.00001
  -7461343.19508  -5814029.95208  18655378.10408  18655378.61308         0.00001
 -18766052.25108 -14622869.71308  17399655.57808  17399655.17408         0.00001
 -19995339.66808 -15580773.51008  16825233.15708  16825232.83708         0.00001
 93 04 07 06 00 00.0000000  0  6 20 26 03 23 16 17
 -17616789.46808 -13727353.44408  16928409.56408  16928409.75708         0.00001
  -9484052.07108  -7390166.86208  18557034.14808  18557033.63608         0.00001
 -20209511.96008 -15747661.40808  16854416.20708  16854416.33608         0.00001
  -7880262.76408  -6140460.67208  18575660.26608  18575660.83508         0.00001
 -18480387.87708 -14400274.10508  17454015.61408  17454015.37008         0.00001
 -20196580.94808 -15737584.83408  16786938.19108  16786937.86908         0.00001
 93 04 07 06 02 00.0000000  0  6 20 26 03 23 16 17
 -17303697.05608 -13483385.42508  16987989.14408  16987989.44008         0.00001
  -9763424.83008  -7607859.82208  18503871.41508  18503870.74808         0.00001
 -20446619.37508 -15932420.43708  16809296.21508  16809296.28008         0.00001
  -8296161.39608  -6464537.38808  18496517.22908  18496517.81308         0.00001
 -18189168.12608 -14173349.62608  17509432.94108  17509432.70108         0.00001
 -20394418.99708 -15891744.25808  16749290.76908  16749290.39408         0.00001
 93 04 07 06 04 00.0000000  0  6 20 26 03 23 16 17
 -16985156.75908 -13235172.29508  17048605.33608  17048605.71908         0.00001
 -10038879.14808  -7822499.41008  18451454.00508  18451453.48608         0.00001
 -20682262.47308 -16116038.43908  16764454.76908  16764454.88408         0.00001
  -8708881.10008  -6786137.05108  18417979.12308  18417979.79708         0.00001
 -17892234.30208 -13941972.61808  17565937.59708  17565937.25208         0.00001
 -20588816.40508 -16043222.70908  16712298.18308  16712297.86308         0.00001
 93 04 07 06 06 00.0000000  0  6 20 26 03 23 16 17
 -16661414.62108 -12982905.78108  17110211.54608  17110211.91108         0.00001
 -10310384.18408  -8034061.64908  18399787.99708  18399787.62808         0.00001
 -20916397.04408 -16298480.94508  16719900.45908  16719900.54508         0.00001
  -9118430.37908  -7105266.24008  18340044.38708  18340045.10808         0.00001
 -17590202.65908 -13706623.27708  17623412.27508  17623412.08208         0.00001
 -20779632.86208 -16191910.81908  16675986.96808  16675986.66408         0.00001
 93 04 07 06 08 00.0000000  0  6 20 26 03 23 16 17
 -16332647.98608 -12726724.07408  17172773.93508  17172774.23808         0.00001
 -10577906.07608  -8242520.17008  18348880.33008  18348879.76308         0.00001
 -21148906.90308 -16479657.45508  16675655.26008  16675655.33308         0.00001
  -9524309.57308  -7421535.61108  18262808.18008  18262808.64908         0.00001
 -17283265.82108 -13467451.71108  17681820.36808  17681820.05308         0.00001
 -20967307.43008 -16338150.67608  16640273.60008  16640273.35908         0.00001
 93 04 07 06 10 00.0000000  0  6 20 26 03 23 16 17
 -15999020.52408 -12466754.71608  17236261.11008  17236261.53308         0.00001
 -10841472.72408  -8447896.67208  18298725.29908  18298724.76408         0.00001
 -21379657.01108 -16659462.72708  16631745.06608  16631745.11708         0.00001
  -9926304.62208  -7734778.37708  18186310.85808  18186311.46308         0.00001
 -16971492.45908 -13224511.42308  17741148.87108  17741148.60608         0.00001
 -21151536.10608 -16481705.42708  16605215.98508  16605215.68208         0.00001
 93 04 07 06 12 00.0000000  0  6 20 26 03 23 16 17
 -15660727.33008 -12203149.70808  17300636.09508  17300636.57508         0.00001
 -11100338.68908  -8649610.29608  18249464.60908  18249464.02108         0.00001
 -21608539.99508 -16837813.09208  16588189.98708  16588190.12608         0.00001
 -10324918.86308  -8045386.75808  18110456.88108  18110457.67408         0.00001
 -16655017.54208 -12977907.58808  17801371.89108  17801371.74808         0.00001
 -21331964.07008 -16622298.59508  16570881.69408  16570881.29308         0.00001
 93 04 07 06 14 00.0000000  0  7 22 20 26 03 23 16 17
        -0.47017        -0.44017  19822952.29017  19822951.71317         0.00011
 -15317969.33908 -11936065.64708  17365860.88608  17365861.36108         0.00001
 -11354529.22308  -8847680.75308  18201093.72408  18201093.00308         0.00001
 -21835450.33908 -17014626.33508  16545010.42808  16545010.41208         0.00001
 -10719950.17508  -8353203.26008  18035284.92608  18035285.60808         0.00001
 -16333955.35708 -12727729.24608  17862468.00808  17862467.92308         0.00001
 -21509100.29308 -16760326.78808  16537173.70908  16537173.26708         0.00001
 93 04 07 06 16 00.0000000  0  7 22 20 26 03 23 16 17
   -319227.78807   -248748.94607  19762205.33107  19762204.70907         0.00001
 -14970939.11408 -11665652.58608  17431898.66508  17431899.13108         0.00001
 -11603947.07308  -9042032.23908  18153631.00208  18153630.46608         0.00001
 -22060269.78108 -17189810.28608  16502228.64708  16502228.69008         0.00001
 -11111099.34508  -8657994.69908  17960851.77108  17960852.17708         0.00001
 -16008738.85908 -12474313.79308  17924354.65508  17924354.58308         0.00001
 -21683076.08708 -16895892.30808  16504067.20608  16504066.87508         0.00001
 93 04 07 06 18 00.0000000  0  7 22 20 26 03 23 16 17
   -632761.71207   -493061.02207  19702541.42607  19702541.15907         0.00001
 -14619781.54808 -11392023.40108  17498721.79308  17498722.30308         0.00001
 -11848431.82908  -9232539.77708  18107107.16208  18107106.50108         0.00001
 -22282828.79008 -17363232.85108  16459877.07208  16459877.06708         0.00001
 -11497736.17608  -8959270.02208  17887277.12108  17887277.41008         0.00001
 -15679071.19408 -12217429.88408  17987088.41708  17987088.12008         0.00001
 -21853659.45308 -17028814.36508  16471606.18508  16471605.86608         0.00001
 93 04 07 06 20 00.0000000  0  7 22 20 26 03 23 16 17
   -940448.14107   -732816.60907  19643990.70107  19643990.52007         0.00001
 -14264672.78908 -11115315.37108  17566296.68708  17566297.36608         0.00001
 -12087632.70408  -9418929.98508  18061588.74308  18061587.71208         0.00001
 -22502987.27108 -17534784.87408  16417982.26708  16417982.23808         0.00001
 -11880346.26708  -9257407.63508  17814468.64208  17814469.00308         0.00001
 -15345176.79508 -11957252.41308  18050626.38008  18050626.19808         0.00001
 -22020884.03308 -17159119.19408  16439784.40408  16439783.98408         0.00001
 93 04 07 06 22 00.0000000  0  7 22 20 26 03 23 16 17
  -1242180.62007   -967932.75707  19586572.89707  19586572.52607         0.00001
 -13905838.42708 -10835704.26108  17634580.74408  17634581.30408         0.00001
 -12321296.96508  -9601005.94708  18017123.56508  18017122.75008         0.00001
 -22720649.39108 -17704391.67908  16376562.61508  16376562.48608         0.00001
 -12258899.70708  -9552384.23408  17742432.26308  17742432.61508         0.00001
 -15007249.06708 -11693932.11508  18114931.90608  18114931.67508         0.00001
 -22184579.53908 -17286674.09508  16408634.13408  16408633.74708         0.00001
 93 04 07 06 24 00.0000000  0  7 03 22 20 26 23 16 17
 -22935667.83108 -17871938.48508  16335645.84408  16335645.72108         0.00001
  -1537807.08808  -1198290.96507  19530317.12608  19530316.48807         0.00001
 -13543455.05808 -10553327.70808  17703540.13608  17703540.67708         0.00001
 -12549435.51708  -9778776.17408  17973710.24708  17973709.57608         0.00001
 -12632732.27908  -9843682.23908  17671294.19708  17671294.62008         0.00001
 -14665715.06008 -11427801.69908  18179923.61908  18179923.35508         0.00001
 -22344933.84108 -17411625.46708  16378119.73108  16378119.34508         0.00001
 93 04 07 06 26 00.0000000  0  7 22 20 26 03 23 16 17
  -1827216.60008  -1423804.82007  19475244.23908  19475243.78507         0.00001
 -13177736.79808 -10268352.52608  17773134.01708  17773134.64808         0.00001
 -12771758.59508  -9952014.83908  17931403.48708  17931402.75108         0.00001
 -23147931.01108 -18037338.34208  16295253.48708  16295253.45108         0.00001
 -13001932.24008 -10131370.40708  17601037.77708  17601038.07208         0.00001
 -14320876.95608 -11159096.67308  18245544.18908  18245543.85608         0.00001
 -22502091.63508 -17534086.03008  16348213.56308  16348213.14908         0.00001
 93 04 07 06 28 00.0000000  0  7 22 20 26 03 23 16 17
  -2110312.55508  -1644399.02607  19421372.92508  19421372.16707         0.00001
 -12808910.55508  -9980955.54008  17843319.54808  17843320.04008         0.00001
 -12988351.46008 -10120788.43608  17890187.06708  17890186.35408         0.00001
 -23357337.00308 -18200511.80808  16255404.78408  16255404.77508         0.00001
 -13366372.44908 -10415349.68008  17531686.98208  17531687.22808         0.00001
 -13972322.86308 -10887496.07608  18311871.76608  18311871.43408         0.00001
 -22656094.89508 -17654088.54708  16318907.67008  16318907.24308         0.00001
 93 04 07 06 30 00.0000000  0  7 22 20 26 03 23 16 17
  -2386970.27908  -1859976.42807  19368726.63608  19368725.90007         0.00001
 -12437171.82708  -9691289.09108  17914058.99508  17914059.59308         0.00001
 -13198871.65308 -10284830.06308  17850126.43008  17850125.60208         0.00001
 -23563750.43008 -18361353.42108  16216125.65908  16216125.56108         0.00001
 -13726223.39408 -10695752.90008  17463209.57108  17463209.87408         0.00001
 -13620461.58308 -10613318.45008  18378828.63808  18378828.46608         0.00001
 -22806946.19908 -17771635.00108  16290201.63908  16290201.19008         0.00001
 93 04 07 06 32 00.0000000  0  7 22 20 26 03 23 16 17
  -2657076.27108  -2070448.58707  19317327.25808  19317326.46507         0.00001
 -12062723.86108  -9399511.56008  17985314.02208  17985314.75308         0.00001
 -13403262.59208 -10444095.63708  17811232.08808  17811231.12508         0.00001
 -23767041.51508 -18519762.05108  16177440.56708  16177440.54108         0.00001
 -14081136.14108 -10972308.17608  17395671.82608  17395672.06108         0.00001
 -13265654.33008 -10336845.27008  18446346.19408  18446346.12308         0.00001
 -22954711.31308 -17886776.62808  16262082.89608  16262082.43308         0.00001
 93 04 07 06 34 00.0000000  0  7 22 20 26 03 23 16 17
  -2920497.31908  -2275711.69807  19267199.94208  19267199.16307         0.00001
 -11685746.46508  -9105763.03308  18057050.79308  18057051.40708         0.00001
 -13601231.79908 -10598357.28208  17773559.70508  17773558.89208         0.00001
 -23967055.94008 -18675617.42808  16139379.06308  16139379.01808         0.00001
 -14431145.67708 -11245042.77108  17329067.08508  17329067.29208         0.00001
 -12908049.91108 -10058192.47108  18514396.04208  18514396.07708         0.00001
 -23099188.11908 -17999355.92808  16234589.80908  16234589.37708         0.00001
 93 04 07 06 36 00.0000000  0  7 22 20 26 03 23 16 17
  -3177096.45708  -2475659.04907  19218370.65908  19218369.85207         0.00001
 -11306410.94908  -8810177.00908  18129235.90908  18129236.50608         0.00001
 -13792823.51008 -10747649.44508  17737101.00008  17737100.20008         0.00001
 -24163629.14408 -18828791.33808  16101972.51408  16101972.41208         0.00001
 -14775973.47408 -11513739.64908  17263448.36208  17263448.56908         0.00001
 -12547410.25708  -9777174.58308  18583023.51808  18583023.45108         0.00001
 -23240434.71408 -18109418.14808  16207711.45408  16207711.00708         0.00001
 93 04 07 06 38 00.0000000  0  7 22 20 26 03 23 16 17
  -3426776.75608  -2670215.09008  19170857.89708  19170857.31908         0.00001
 -10924926.63208  -8512916.59208  18201829.79808  18201830.68308         0.00001
 -13977726.22108 -10891729.40908  17701915.13608  17701914.13708         0.00001
 -24356633.50508 -18979184.32608  16065244.93808  16065244.83208         0.00001
 -15115687.88308 -11778452.06908  17198802.77408  17198803.01308         0.00001
 -12184073.00308  -9494054.62008  18652164.28108  18652164.10808         0.00001
 -23378680.31508 -18217141.94308  16181404.12308  16181403.64108         0.00001
 93 04 07 06 40 00.0000000  0  7 22 20 26 03 23 16 17
  -3669401.22508  -2859273.10308  19124687.97708  19124687.18508         0.00001
 -10541458.18808  -8214110.11508  18274801.48108  18274802.42708         0.00001
 -14155521.31408 -11030270.96108  17668081.72108  17668080.90908         0.00001
 -24545894.14309 -19126660.12608  16029229.88909  16029229.73808         0.00001
 -15450116.05308 -12039045.33208  17135163.16708  17135163.34508         0.00001
 -11818497.86508  -9209190.88108  18721730.78808  18721730.91408         0.00001
 -23513567.18308 -18322248.54108  16155735.96008  16155735.49708         0.00001
 93 04 07 06 42 00.0000000  0  8 22 20 26 03 23 16 17 21
  -3904885.80108  -3042767.57508  19079876.79308  19079875.98208         0.00001
 -10156214.47408  -7913920.30308  18348110.98708  18348111.88008         0.00001
 -14326389.26708 -11163414.75508  17635566.70208  17635565.88108         0.00001
 -24731283.75508 -19271119.54208  15993951.34808  15993951.24008         0.00001
 -15779169.20908 -12295450.28108  17072546.32908  17072546.45208         0.00001
 -11450495.85708  -8922436.07808  18791759.32108  18791759.33208         0.00001
 -23645534.63608 -18425080.28508  16130623.36008  16130622.92508         0.00001
         0.22217        -0.26017  20366099.42017  20366101.21317         0.00011
 93 04 07 06 44 00.0000000  0  8 22 20 26 03 23 16 17 21
  -4133131.34608  -3220621.22808  19036443.22508  19036442.33808         0.00001
  -9769390.93508  -7612499.43108  18421721.26208  18421722.18708         0.00001
 -14490295.45608 -11291133.80408  17604376.38908  17604375.47908         0.00001
 -24912655.70909 -19412448.31608  15959437.44209  15959437.31408         0.00001
 -16102659.10408 -12547520.21708  17010988.20208  17010988.25908         0.00001
 -11080129.24908  -8633838.72408  18862237.87408  18862237.84108         0.00001
 -23774473.56608 -18525552.13208  16106087.08608  16106086.62808         0.00001
   -428065.97307   -333558.10007  20284640.80107  20284642.75307         0.00001
 93 04 07 06 46 00.0000000  0  8 22 20 26 03 23 16 17 21
  -4354015.31508  -3392738.58708  18994410.21808  18994409.53708         0.00001
  -9381148.79808  -7309973.19808  18495601.29708  18495602.40308         0.00001
 -14646930.47108 -11413186.98708  17574569.63608  17574568.60708         0.00001
 -25089833.73908 -19550509.10308  15925721.53208  15925721.42108         0.00001
 -16420577.39008 -12795248.63908  16950490.30708  16950490.34808         0.00001
 -10707842.86408  -8343745.43808  18933081.73908  18933081.60808         0.00001
 -23900353.76008 -18623640.57008  16082132.90408  16082132.35208         0.00001
   -854634.30407   -665948.75507  20203467.48307  20203469.08607         0.00001
 93 04 07 06 48 00.0000000  0  8 22 20 26 03 23 16 17 21
  -4567472.73108  -3559069.01008  18953790.74508  18953789.99308         0.00001
  -8991704.35408  -7006510.11708  18569710.25008  18569711.20208         0.00001
 -14796335.15408 -11529606.16108  17546138.83208  17546137.93308         0.00001
 -25262692.89709 -19685204.52708  15892827.52509  15892827.38908         0.00001
 -16732781.02508 -13038524.09808  16891079.90808  16891079.98508         0.00001
 -10333967.87608  -8052414.29408  19004227.77508  19004227.62508         0.00001
 -24022920.38908 -18719147.00808  16058809.22808  16058808.71608         0.00001
  -1279992.71808   -997396.61807  20122524.31208  20122525.74007         0.00001
 93 04 07 06 50 00.0000000  0  8 26 22 20 03 23 16 17 21
 -14938099.70608 -11640071.99308  17519161.89508  17519160.88708         0.00001
  -4773417.52308  -3719545.46808  18914600.66908  18914599.85708         0.00001
  -8601246.20308  -6702257.09308  18644012.06008  18644012.80608         0.00001
 -25431083.55809 -19816418.02808  15860783.82009  15860783.72508         0.00001
 -17039434.36608 -13277474.64308  16832725.59208  16832725.63208         0.00001
  -9958096.66708  -7759527.64108  19075753.61408  19075753.22608         0.00001
 -24142442.14008 -18812280.81508  16036064.91708  16036064.47408         0.00001
  -1703557.40508  -1327446.78507  20041922.40008  20041923.76007         0.00001
 93 04 07 06 52 00.0000000  0  8 26 03 22 20 23 16 17 21
 -15072288.21408 -11744634.40308  17493626.53908  17493625.37908         0.00001
 -25594868.72209 -19944042.82008  15829616.53209  15829616.41908         0.00001
  -4971781.67208  -3874114.94608  18876853.17208  18876852.48608         0.00001
  -8209976.25308  -6397371.51008  18718468.33508  18718469.11908         0.00001
 -17340405.07408 -13511997.16808  16775452.62708  16775452.66408         0.00001
  -9580378.21108  -7465201.59308  19147631.36108  19147630.64308         0.00001
 -24259119.39708 -18903198.13508  16013861.97008  16013861.55408         0.00001
  -2125528.54908  -1656255.19507  19961623.54908  19961625.05407         0.00001
 93 04 07 06 54 00.0000000  0  8 26 03 22 20 23 16 17 21
 -15198413.28208 -11842913.62508  17469625.74808  17469624.73308         0.00001
 -25753880.88409 -20067948.39608  15799357.57109  15799357.37108         0.00001
  -5162471.79408  -4022704.66808  18840565.94708  18840565.35608         0.00001
  -7818065.85508  -6091986.90108  18793046.40308  18793047.53008         0.00001
 -17635191.23508 -13741700.56208  16719356.66308  16719356.65608         0.00001
  -9201493.84508  -7169967.01208  19219730.79908  19219730.21208         0.00001
 -24372699.58608 -18991702.15708  15992248.36408  15992247.88008         0.00001
  -2545807.53608  -1983745.05807  19881646.92908  19881648.43107         0.00001
 93 04 07 06 56 00.0000000  0  8 26 03 22 20 23 16 17 21
 -15316868.98208 -11935216.71908  17447084.39608  17447083.33108         0.00001
 -25908008.47009 -20188047.81008  15770028.06909  15770027.83708         0.00001
  -5345459.01808  -4165292.09708  18805744.74008  18805744.10008         0.00001
  -7425740.92608  -5786279.25808  18867703.41308  18867704.59808         0.00001
 -17924289.01908 -13966971.44708  16664343.08708  16664343.08008         0.00001
  -8821141.34908  -6873588.45508  19292109.24908  19292108.92908         0.00001
 -24483418.80208 -19077976.84108  15971179.18808  15971178.70508         0.00001
  -2964000.15108  -2309609.18007  19802067.40008  19802068.68207         0.00001
 93 04 07 06 58 00.0000000  0  8 26 03 22 20 23 16 17 21
 -15427856.32708 -12021700.31508  17425964.15308  17425963.13308         0.00001
 -26057101.88009 -20304224.48008  15741656.46409  15741656.30308         0.00001
  -5520676.63408  -4301825.28008  18772401.86608  18772401.32108         0.00001
  -7033185.76608  -5480392.18308  18942404.33408  18942405.31508         0.00001
 -18207280.14908 -14187483.91908  16610491.52208  16610491.57908         0.00001
  -8439771.28808  -6576416.98808  19364681.11108  19364681.18908         0.00001
 -24591207.83708 -19161968.26308  15950667.59408  15950667.10208         0.00001
  -3380431.43107  -2634100.78908  19722822.94607  19722824.15808         0.00001
 93 04 07 07 00 00.0000000  0  8 26 03 22 20 23 16 17 21
 -15530477.54208 -12101664.84908  17406435.85308  17406434.99108         0.00001
 -26201016.53309 -20416365.75508  15714270.46209  15714270.25808         0.00001
  -5688070.41308  -4432261.96808  18740547.94008  18740547.35908         0.00001
  -6640591.19908  -5174474.44208  19017112.77808  19017113.70308         0.00001
 -18484301.53008 -14403344.65908  16557776.13208  16557776.14008         0.00001
  -8057426.45307  -6278485.98008  19437438.59507  19437438.91608         0.00001
 -24695790.90308 -19243461.53308  15930766.08408  15930765.56308         0.00001
  -3794769.78207  -2956961.56308  19643976.60707  19643978.02808         0.00001
 93 04 07 07 02 00.0000000  0  8 26 03 22 20 23 16 17 21
 -15624846.01608 -12175198.67808  17388478.17408  17388477.05808         0.00001
 -26339581.38109 -20524338.36108  15687902.43009  15687902.23708         0.00001
  -5847565.00108  -4556543.43208  18710197.23208  18710196.56908         0.00001
  -6248119.31608  -4868652.27008  19091797.57708  19091798.69808         0.00001
 -18755136.29608 -14614384.67908  16506237.93808  16506237.86208         0.00001
  -7674038.79408  -5979742.35308  19510395.29108  19510395.26008         0.00001
 -24797604.48708 -19322796.76208  15911391.58408  15911391.01208         0.00001
  -4206661.81807  -3277916.13008  19565596.10307  19565597.34708         0.00001
 93 04 07 07 04 00.0000000  0  8 26 03 22 20 23 16 17 21
 -15711160.91508 -12242456.98608  17372053.01108  17372051.86608         0.00001
 -26472681.09809 -20628052.42008  15662574.38009  15662574.20208         0.00001
  -5999144.45508  -4674657.27908  18681352.46908  18681351.86508         0.00001
  -5855985.69208  -4563093.69108  19166418.20308  19166419.42008         0.00001
 -19019801.05108 -14820616.82908  16455873.78008  16455873.65008         0.00001
  -7290107.27208  -5680574.91608  19583455.25208  19583454.96008         0.00001
 -24896540.49608 -19399889.71908  15892564.63008  15892564.06708         0.00001
  -4616545.09408  -3597305.45007  19487597.92408  19487598.84307         0.00001
 93 04 07 07 06 00.0000000  0  8 26 03 22 20 23 16 17 21
 -15789245.41608 -12303302.00708  17357193.93708  17357192.76908         0.00001
 -26600162.58209 -20727388.63808  15638315.39909  15638315.28908         0.00001
  -6142761.92508  -4786567.00908  18654023.02608  18654022.37608         0.00001
  -5464365.25508  -4257935.02708  19240941.36908  19240942.44908         0.00001
 -19278369.95508 -15022098.93208  16406669.64508  16406669.45908         0.00001
  -6905682.26008  -5381022.97908  19656608.94608  19656608.56708         0.00001
 -24992405.61708 -19474589.77108  15874322.07608  15874321.53608         0.00001
  -5024396.65708  -3915111.67107  19409985.98408  19409987.13007         0.00001
 93 04 07 07 08 00.0000000  0  8 26 03 22 20 23 16 17 21
 -15859264.49208 -12357862.28508  17343869.84308  17343868.64908         0.00001
 -26721883.63809 -20822236.20408  15615152.72009  15615152.51908         0.00001
  -6278381.76608  -4892244.83708  18628215.48808  18628214.80508         0.00001
  -5073440.39008  -3953318.38108  19315331.91008  19315333.03508         0.00001
 -19530811.47408 -15218806.50208  16358631.55208  16358631.32108         0.00001
  -6520840.55707  -5081146.35407  19729841.85407  19729841.42107         0.00001
 -25085534.50308 -19547157.68708  15856600.18008  15856599.69008         0.00001
  -5429758.61008  -4230977.95407  19332847.97408  19332849.19007         0.00001
 93 04 07 07 10 00.0000000  0  8 26 03 22 20 23 16 17 21
 -15920752.58708 -12405775.05108  17332168.92408  17332167.74808         0.00001
 -26837689.97009 -20912474.90808  15593115.48209  15593115.32508         0.00001
  -6405965.09608  -4991660.46008  18603937.24008  18603936.48208         0.00001
  -4683380.33208  -3649375.56808  19389557.90308  19389559.11408         0.00001
 -19776911.11508 -15410572.20408  16311800.19608  16311800.01608         0.00001
  -6135672.96907  -4781015.78107  19803137.03407  19803136.41307         0.00001
 -25176000.51508 -19617650.64308  15839385.03808  15839384.47708         0.00001
  -5832405.16908  -4544728.39907  19256226.93508  19256227.96407         0.00001
 93 04 07 07 12 00.0000000  0  8 26 03 22 20 23 16 17 21
 -15973566.03608 -12446928.35608  17322118.71308  17322117.58608         0.00001
 -26947430.60409 -20997987.09108  15572232.52709  15572232.31908         0.00001
  -6525479.10208  -5084788.30108  18581194.49808  18581193.91508         0.00001
  -4294354.19608  -3346238.40308  19463587.30608  19463588.49908         0.00001
 -20016571.74208 -15597320.58108  16266194.12308  16266193.84708         0.00001
  -5750151.96907  -4480609.84608  19876499.22007  19876498.84708         0.00001
 -25263636.13908 -19685938.11208  15822708.49408  15822707.89708         0.00001
  -6232557.56108  -4856535.33608  19180080.55508  19180081.42408         0.00001
 93 04 07 07 14 00.0000000  0  8 26 03 22 20 23 16 17 21
 -16017997.61808 -12481550.32508  17313663.66708  17313662.57408         0.00001
 -27050989.20709 -21078682.11708  15552526.02709  15552525.80708         0.00001
  -6636927.95708  -5171631.61408  18559986.58008  18559985.87908         0.00001
  -3906560.33208  -3044061.46408  19537382.27708  19537383.08708         0.00001
 -20249836.62008 -15779085.33908  16221805.26708  16221804.87008         0.00001
  -5364383.53008  -4180011.10808  19949908.52108  19949908.24108         0.00001
 -25348074.75808 -19751734.40908  15806640.36308  15806639.82908         0.00001
  -6630123.31508  -5166326.72008  19104426.07308  19104426.80208         0.00001
 93 04 07 07 16 00.0000000  0  8 26 03 22 20 23 16 17 21
 -16054164.48508 -12509732.27508  17306781.24608  17306780.24808         0.00001
 -27148198.66309 -21154429.75608  15534027.66309  15534027.49308         0.00001
  -6740272.99808  -5252160.25808  18540320.64008  18540320.05608         0.00001
  -3520145.87008  -2742959.43007  19610914.28308  19610915.22907         0.00001
 -20476801.00608 -15955940.61508  16178615.24608  16178614.97508         0.00001
  -4978620.29008  -3879416.35608  20023316.59908  20023316.63808         0.00001
 -25429779.43208 -19815400.36908  15791092.42708  15791091.79508         0.00001
  -7025024.52008  -5474041.82508  19029278.63208  19029279.47108         0.00001
 93 04 07 07 18 00.0000000  0  8 26 03 22 20 23 16 17 21
 -16081552.54208 -12531073.59008  17301569.48108  17301568.40108         0.00001
 -27238949.25709 -21225144.51108  15516758.40509  15516758.21108         0.00001
  -6835533.62408  -5326389.39308  18522193.23808  18522192.58808         0.00001
  -3135311.01408  -2443088.25107  19684145.97508  19684146.86807         0.00001
 -20697300.26808 -16127758.15708  16136655.63708  16136655.27508         0.00001
  -4593280.77808  -3579151.79408  20096644.34308  20096644.24408         0.00001
 -25508605.37708 -19876823.16308  15776092.32908  15776091.71908         0.00001
  -7417125.46608  -5779574.91708  18954664.32508  18954665.20508         0.00001
 93 04 07 07 20 00.0000000  0  8 26 03 22 20 23 16 17 21
 -16100238.09708 -12545633.73208  17298013.73008  17298012.66908         0.00001
 -27323084.57909 -21290704.51908  15500747.98909  15500747.77608         0.00001
  -6922687.34808  -5394301.46408  18505608.34108  18505607.77308         0.00001
  -2752204.01308  -2144563.42107  19757049.02508  19757049.98307         0.00001
 -20911586.77608 -16294734.56208  16095878.17908  16095877.78308         0.00001
  -4208307.52208  -3279172.64207  20169902.39608  20169902.04807         0.00001
 -25584638.41508 -19936069.66008  15761623.69508  15761623.16708         0.00001
  -7806350.93408  -6082867.38208  18880596.86108  18880597.94508         0.00001
 93 04 07 07 22 00.0000000  0  8 26 03 22 20 23 16 17 21
 -16110201.70508 -12553397.55308  17296117.77708  17296116.58708         0.00001
 -27400477.93409 -21351011.03908  15486020.50109  15486020.37008         0.00001
  -7001744.47508  -5455904.49408  18490564.45008  18490563.72808         0.00001
  -2370997.92008  -1847519.87908  19829590.47708  19829591.37708         0.00001
 -21119653.03709 -16456864.06608  16056284.51009  16056284.08208         0.00001
  -3823539.27408  -2979353.19707  20243121.33208  20243120.80907         0.00001
 -25657917.35408 -19993170.09908  15747679.12708  15747678.58608         0.00001
  -8192513.32208  -6383773.04508  18807112.60708  18807113.61908         0.00001
 93 04 07 07 24 00.0000000  0  8 26 03 22 20 23 16 17 21
 -16111491.04808 -12554402.21408  17295872.42708  17295871.27308         0.00001
 -27470987.36909 -21405953.45708  15472603.02009  15472602.83208         0.00001
  -7072704.72008  -5511198.26408  18477061.10708  18477060.61608         0.00001
  -1991847.57008  -1552078.20008  19901740.38308  19901741.63908         0.00001
 -21320927.71409 -16613701.44208  16017983.19009  16017982.70708         0.00001
  -3439417.50207  -2680037.53107  20316217.16907  20316216.70107         0.00001
 -25728255.99708 -20047979.41108  15734294.27308  15734293.57308         0.00001
  -8575640.57908  -6682313.66608  18734206.04908  18734206.94608         0.00001
 93 04 07 07 26 00.0000000  0  8 26 03 22 23 20 16 17 21
 -16104126.54608 -12548663.61908  17297273.80908  17297272.67608         0.00001
 -27534458.82509 -21455411.75508  15460524.80109  15460524.62808         0.00001
  -7135557.06808  -5560174.19208  18465100.72408  18465100.26508         0.00001
 -21515827.77809 -16765571.59508  15980894.88909  15980894.46408         0.00001
  -1614890.43808  -1258345.50407  19973472.91908  19973474.46007         0.00001
  -3055686.75207  -2381026.53607  20389238.51707  20389238.14307         0.00001
 -25795751.09708 -20100572.97508  15721450.29108  15721449.66308         0.00001
  -8955816.25208  -6978554.35208  18661860.90008  18661861.80308         0.00001
 93 04 07 07 28 00.0000000  0  8 26 03 22 23 20 16 17 21
 -16088283.08208 -12536318.05008  17300288.63508  17300287.69808         0.00001
 -27590755.66609 -21499279.43608  15449811.94409  15449811.75508         0.00001
  -7190312.03908  -5602840.44208  18454681.23808  18454680.90708         0.00001
 -21704069.36809 -16912253.32208  15945073.62909  15945073.24908         0.00001
  -1240275.20008   -966437.61107  20044759.92908  20044761.55007         0.00001
  -2672717.12306  -2082608.62006  20462114.94606  20462114.90606         0.00001
 -25860538.37208 -20151056.54608  15709121.64308  15709120.97908         0.00001
  -9332563.48808  -7272123.54208  18590168.18408  18590168.91208         0.00001
 93 04 07 07 30 00.0000000  0  7 26 03 22 23 17 20 21
 -16063381.63308 -12516914.30608  17305027.10708  17305026.12508         0.00001
 -27639747.34109 -21537454.79108  15440489.12609  15440488.95208         0.00001
  -7236988.82308  -5639212.01408  18445798.97708  18445798.59808         0.00001
 -21885912.44709 -17053949.18708  15910470.04309  15910469.59508         0.00001
 -25922287.68708 -20199172.89108  15697371.16108  15697370.51008         0.00001
   -868151.14307   -676470.94007  20115572.82807  20115574.27707         0.00001
  -9706050.77308  -7563152.52308  18519095.90708  18519096.47308         0.00001
 93 04 07 07 32 00.0000000  0  7 26 03 22 23 17 20 21
 -16029779.99808 -12490731.19708  17311421.32308  17311420.41208         0.00001
 -27681325.86609 -21569853.65908  15432577.03309  15432576.87308         0.00001
  -7275630.55108  -5669322.51708  18438445.78508  18438445.37208         0.00001
 -22061190.95109 -17190529.77908  15877115.65609  15877115.21508         0.00001
 -25980942.37808 -20244877.82708  15686209.51608  15686208.86108         0.00001
   -498686.62107   -388576.62107  20185879.88907  20185880.90607         0.00001
 -10076431.03608  -7851760.45808  18448614.86308  18448615.37908         0.00001
 93 04 07 07 34 00.0000000  0  7 26 03 22 23 17 20 21
 -15987566.58408 -12457837.61408  17319454.31508  17319453.19208         0.00001
 -27715380.76209 -21596389.95908  15426096.57809  15426096.44808         0.00001
  -7306282.45708  -5693207.17608  18432613.03408  18432612.55608         0.00001
 -22229951.22709 -17322031.23408  15845001.57909  15845001.08108         0.00001
 -26036851.74608 -20288443.56008  15675570.38508  15675569.64008         0.00001
   -132040.40207   -102878.47407  20255650.35907  20255651.38507         0.00001
 -10443523.75808  -8137806.66908  18378759.38108  18378760.05408         0.00001
 93 04 07 07 36 00.0000000  0  7 26 03 22 23 17 21 20
 -15936547.46408 -12418082.44208  17329162.99008  17329161.82308         0.00001
 -27741829.64109 -21616999.50008  15421063.59109  15421063.36708         0.00001
  -7329016.67508  -5710922.21408  18428286.92108  18428286.50608         0.00001
 -22392175.40309 -17448439.61608  15814131.26109  15814130.77008         0.00001
 -26090059.65309 -20329904.26208  15665445.25009  15665444.54408         0.00001
 -10806798.13108  -8420877.54308  18309630.38008  18309631.08608         0.00001
    231607.23507    180483.18407  20324850.24707  20324851.44007         0.00001
 93 04 07 07 38 00.0000000  0  7 26 22 03 23 17 20 21
 -15876854.31508 -12371568.27208  17340522.13108  17340520.90208         0.00001
  -7343880.61408  -5722504.57208  18425458.49108  18425458.02808         0.00001
 -27760561.07209 -21631595.45108  15417499.08009  15417498.98308         0.00001
 -22548329.68709 -17570118.20908  15784416.02509  15784415.51708         0.00001
 -26140448.63309 -20369168.40508  15655856.56209  15655855.88808         0.00001
    592110.75607    461394.88306  20393452.01807  20393453.30506         0.00001
 -11166592.32308  -8701236.59908  18241163.76808  18241164.42508         0.00001
 93 04 07 07 40 00.0000000  0  6 03 22 26 23 17 21
 -27771439.62709 -21640072.26808  15415428.96109  15415428.86208         0.00001
  -7350898.52808  -5727973.16608  18424123.00808  18424122.65408         0.00001
 -15808677.81308 -12318443.72108  17353495.59408  17353494.63508         0.00001
 -22697852.92009 -17686629.76308  15755962.62809  15755962.14208         0.00001
 -26187612.13609 -20405919.17808  15646881.63909  15646880.96008         0.00001
 -11522988.81108  -8978948.08308  18173343.84808  18173344.56608         0.00001
 93 04 07 07 42 00.0000000  0  6 22 26 03 23 17 21
  -7350111.17908  -5727359.74708  18424272.99208  18424272.51108         0.00001
 -15731892.47708 -12258610.98208  17368107.45208  17368106.38608         0.00001
 -27774346.42509 -21642337.34108  15414875.84209  15414875.79108         0.00001
 -22841039.24609 -17798203.46608  15728715.15909  15728714.64608         0.00001
 -26232002.76009 -20440509.27108  15638434.40809  15638433.70208         0.00001
 -11875541.47908  -9253664.38808  18106255.18608  18106255.91808         0.00001
 93 04 07 07 44 00.0000000  0  6 03 22 26 23 17 21
 -27769184.21609 -21638314.87108  15415858.27409  15415858.19108         0.00001
  -7341583.31708  -5720714.79908  18425895.82108  18425895.49508         0.00001
 -15646389.37108 -12191985.17308  17384378.15408  17384377.10708         0.00001
 -22977726.11209 -17904712.64208  15702704.48009  15702703.94108         0.00001
 -26273423.43209 -20472785.11608  15630552.34409  15630551.60208         0.00001
 -12224413.14308  -9525512.37408  18039867.05408  18039867.66108         0.00001
 93 04 07 07 46 00.0000000  0  6 03 22 26 23 17 21
 -27755906.25409 -21627968.43008  15418384.95009  15418384.84808         0.00001
  -7325431.47608  -5708129.10808  18428969.50608  18428969.19908         0.00001
 -15552265.88108 -12118642.18208  17402289.21608  17402288.07608         0.00001
 -23107679.89609 -18005975.28108  15677975.05409  15677974.51608         0.00001
 -26312011.12509 -20502853.44408  15623209.23609  15623208.57008         0.00001
 -12569856.10908  -9794688.63608  17974131.53408  17974131.99508         0.00001
 93 04 07 07 48 00.0000000  0  6 03 22 26 23 17 21
 -27734430.28609 -21611233.94308  15422471.73309  15422471.59408         0.00001
  -7301736.38508  -5689665.64008  18433478.69708  18433478.58108         0.00001
 -15449767.49008 -12038773.29808  17421794.08608  17421792.87408         0.00001
 -23231579.69809 -18102520.54008  15654397.66309  15654397.13808         0.00001
 -26347656.75409 -20530629.25908  15616426.15609  15616425.42108         0.00001
 -12911721.93608 -10061077.51608  17909076.52108  17909077.11508         0.00001
 93 04 07 07 50 00.0000000  0  6 03 22 26 23 17 21
 -27704656.87909 -21588033.92808  15428137.42409  15428137.38108         0.00001
  -7270562.54708  -5665374.61008  18439411.23408  18439410.95508         0.00001
 -15338999.48308 -11952460.54908  17442872.41508  17442871.36808         0.00001
 -23349123.01509 -18194112.68608  15632029.89409  15632029.36708         0.00001
 -26380146.08709 -20555945.62208  15610243.53409  15610242.93608         0.00001
 -13249369.33908 -10324179.31508  17844824.17708  17844824.83608         0.00001
 93 04 07 07 52 00.0000000  0  6 22 26 03 23 17 21
  -7231979.84708  -5635310.36508  18446753.34308  18446753.13308         0.00001
 -15219621.79708 -11859438.96508  17465589.24508  17465588.22208         0.00001
 -27666492.72309 -21558295.66408  15435399.88009  15435399.79408         0.00001
 -23460350.77109 -18280783.62008  15610863.96009  15610863.34808         0.00001
 -26409863.00809 -20579101.65808  15604588.62309  15604587.95908         0.00001
 -13583291.39308 -10584378.23908  17781280.97008  17781281.36808         0.00001
 93 04 07 07 54 00.0000000  0  6 03 22 26 23 17 21
 -27619853.24909 -21521953.25708  15444275.09309  15444275.00508         0.00001
  -7186066.53808  -5599533.96408  18455490.44908  18455490.39108         0.00001
 -15092038.31108 -11760023.25208  17489867.56408  17489866.60508         0.00001
 -23565550.24709 -18362757.19908  15590845.14709  15590844.58108         0.00001
 -26436387.24908 -20599769.89608  15599541.23608  15599540.55308         0.00001
 -13913291.65008 -10841521.21108  17718483.92708  17718484.35908         0.00001
 93 04 07 07 56 00.0000000  0  7 03 22 28 26 23 17 21
 -27564671.68609 -21478954.68108  15454775.83709  15454775.79208         0.00001
  -7132918.88508  -5558120.33508  18465604.19608  18465604.23608         0.00001
        -0.97517        -0.05217  19425681.78817  19425680.87317         0.00011
 -14956427.13408 -11654352.20008  17515673.46708  17515672.43408         0.00001
 -23664341.63009 -18439737.45608  15572045.65709  15572045.11008         0.00001
 -26459770.20108 -20617990.37008  15595091.53308  15595090.88908         0.00001
 -14239288.21708 -11095544.43808  17656448.76708  17656449.29408         0.00001
 93 04 07 07 58 00.0000000  0  7 03 22 28 26 23 17 21
 -27500847.92409 -21429221.92408  15466921.15509  15466921.09008         0.00001
  -7072598.35308  -5511117.42408  18477082.95208  18477083.01808         0.00001
   -452436.21507   -352546.95207  19339586.32307  19339585.14607         0.00001
 -14812413.73408 -11542133.95708  17543078.34008  17543077.12508         0.00001
 -23757000.64609 -18511939.22208  15554413.22809  15554412.62308         0.00001
 -26480207.38108 -20633915.43708  15591202.47908  15591201.82908         0.00001
 -14561142.60508 -11346339.98808  17595201.93808  17595202.33608         0.00001
 93 04 07 08 00 00.0000000  0  7 03 22 28 26 23 17 21
 -27428314.95509 -21372702.77108  15480723.73609  15480723.69708         0.00001
  -7005200.12008  -5458599.38408  18489908.30008  18489908.48108         0.00001
   -903043.17007   -703669.17907  19253838.62007  19253837.49407         0.00001
 -14660338.82108 -11423634.00708  17572017.26008  17572016.12008         0.00001
 -23843628.72909 -18579441.56808  15537928.40909  15537927.76408         0.00001
 -26497473.95208 -20647369.90308  15587916.80808  15587916.07108         0.00001
 -14878925.04008 -11593962.57308  17534729.86208  17534730.26608         0.00001
 93 04 07 08 02 00.0000000  0  7 03 22 28 26 23 17 21
 -27347007.14608 -21309346.08608  15496196.06408  15496196.12208         0.00001
  -6930819.39708  -5400640.46908  18504062.60508  18504062.62008         0.00001
  -1352006.48508  -1053510.63307  19168403.71408  19168402.48407         0.00001
 -14500216.08208 -11298863.04308  17602487.64708  17602486.64608         0.00001
 -23924008.45409 -18642075.08608  15522632.62609  15522631.97308         0.00001
 -26511360.26508 -20658190.40508  15585274.28308  15585273.60408         0.00001
 -15192680.49408 -11838447.24908  17475024.13908  17475024.54508         0.00001
 93 04 07 08 04 00.0000000  0  7 22 28 26 03 23 17 21
  -6849578.32008  -5337335.83508  18519522.32808  18519522.45508         0.00001
  -1799139.34608  -1401925.73208  19083316.97008  19083315.90808         0.00001
 -14331934.10308 -11167734.21908  17634510.68108  17634509.50408         0.00001
 -27256890.13409 -21239125.07708  15513344.87509  15513344.81008         0.00001
 -23997986.87109 -18699720.53708  15508554.93709  15508554.32908         0.00001
 -26522295.51809 -20666711.37408  15583193.43409  15583192.67908         0.00001
 -15502073.47508 -12079532.57908  17416148.51208  17416149.00308         0.00001
 93 04 07 08 06 00.0000000  0  7 22 28 26 03 23 17 21
  -6761632.40608  -5268806.62408  18536257.80908  18536258.17508         0.00001
  -2244344.27908  -1748838.59408  18998597.10108  18998596.09508         0.00001
 -14155865.15808 -11030537.62008  17668015.31308  17668014.13108         0.00001
 -27157960.44409 -21162037.05208  15532170.60909  15532170.50208         0.00001
 -24066334.47309 -18752978.35908  15495548.77709  15495548.16508         0.00001
 -26529915.88808 -20672649.33008  15581743.30008  15581742.60708         0.00001
 -15807150.31008 -12317254.70008  17358094.21908  17358094.65308         0.00001
 93 04 07 08 08 00.0000000  0  7 22 28 26 03 23 17 21
  -6667074.15208  -5195124.93808  18554251.78808  18554252.06208         0.00001
  -2687211.98408  -2093930.27308  18914321.96108  18914321.23708         0.00001
 -13972115.84708 -10887356.33308  17702981.65108  17702980.54908         0.00001
 -27050155.68909 -21078033.39708  15552685.16209  15552685.18208         0.00001
 -24128704.52809 -18801578.35708  15483680.10509  15483679.40708         0.00001
 -26534205.91408 -20675992.20408  15580926.97408  15580926.22108         0.00001
 -16108333.59808 -12551942.92608  17300780.95008  17300781.35708         0.00001
 93 04 07 08 10 00.0000000  0  7 22 28 26 03 23 17 21
  -6566036.67808  -5116394.51308  18573478.69708  18573478.85608         0.00001
  -3127261.11808  -2436825.67608  18830583.31308  18830582.67008         0.00001
 -13780802.41908 -10738280.93408  17739387.42508  17739386.22308         0.00001
 -26933455.46508 -20987098.20808  15574892.53908  15574892.57808         0.00001
 -24185104.56409 -18845526.39708  15472947.50509  15472946.86108         0.00001
 -26535190.84209 -20676759.67308  15580739.50509  15580738.83208         0.00001
 -16405219.08008 -12783282.19508  17244285.40708  17244285.87008         0.00001
 93 04 07 08 12 00.0000000  0  7 22 28 26 03 23 17 21
  -6458643.74608  -5032711.79208  18593914.91908  18593914.93808         0.00001
  -3565150.43708  -2778038.11208  18747255.98508  18747255.11808         0.00001
 -13581849.60508 -10583252.75208  17777247.01808  17777245.80008         0.00001
 -26807832.83208 -20889210.49208  15598797.77508  15598797.78808         0.00001
 -24235764.05409 -18885001.29108  15463307.30409  15463306.56808         0.00001
 -26532993.48509 -20675047.44708  15581157.70709  15581156.94408         0.00001
 -16697632.69308 -13011136.85208  17188640.84508  17188641.29608         0.00001
 93 04 07 08 14 00.0000000  0  7 22 28 26 03 23 17 21
  -6345022.13808  -4944175.56708  18615536.44108  18615536.59308         0.00001
  -4000328.33408  -3117137.73908  18664444.47808  18664443.56508         0.00001
 -13375507.36908 -10422466.58708  17816512.51208  17816511.43908         0.00001
 -26673266.39008 -20784353.57008  15624404.92008  15624404.98208         0.00001
 -24280602.31309 -18919940.16208  15454774.90009  15454774.12308         0.00001
 -26527543.99708 -20670801.09908  15582194.62408  15582193.92708         0.00001
 -16985751.47308 -13235644.84408  17133813.49008  17133813.90208         0.00001
 93 04 07 08 16 00.0000000  0  7 22 28 26 03 23 17 21
  -6225347.94008  -4850923.01008  18638309.83808  18638310.01308         0.00001
  -4432257.77108  -3453706.10608  18582251.08908  18582249.98408         0.00001
 -13161868.60708 -10255994.81408  17857166.52108  17857165.53808         0.00001
 -26529787.00509 -20672551.49708  15651708.20609  15651708.27408         0.00001
 -24319652.26809 -18950368.67308  15447343.95309  15447343.20208         0.00001
 -26518400.49709 -20663676.29608  15583934.63709  15583933.95008         0.00001
 -17269565.94808 -13456798.82208  17079805.29308  17079805.77908         0.00001
 93 04 07 08 18 00.0000000  0  7 22 28 26 03 23 17 21
  -6099743.42808  -4753049.42908  18662211.63308  18662211.77208         0.00001
  -4861129.64408  -3787891.95008  18500639.53708  18500638.43108         0.00001
 -12940969.16708 -10083865.37808  17899202.32108  17899201.15308         0.00001
 -26377371.81609 -20553786.46608  15680711.86509  15680711.94408         0.00001
 -24353266.53609 -18976561.57708  15440947.29209  15440946.59608         0.00001
 -26505773.19108 -20653836.83908  15586337.47608  15586336.80408         0.00001
 -17549099.23208 -13674616.70608  17026611.81908  17026612.03508         0.00001
 93 04 07 08 20 00.0000000  0  7 22 28 26 03 23 17 21
  -5968370.66908  -4650681.11908  18687211.04108  18687211.24208         0.00001
  -5286900.00908  -4119661.02208  18419617.81308  18419616.91008         0.00001
 -12713294.24808  -9906456.34308  17942527.45508  17942526.23308         0.00001
 -26216046.15009 -20428078.19908  15711411.20409  15711411.22808         0.00001
 -24381425.22009 -18998503.38308  15435588.82009  15435588.10508         0.00001
 -26489900.40409 -20641468.44208  15589358.00409  15589357.29508         0.00001
 -17824349.17608 -13889096.95008  16974233.22608  16974233.43208         0.00001
 93 04 07 08 22 00.0000000  0  8 22 28 26 03 23 01 17 21
  -5831390.71608  -4543943.53208  18713277.54708  18713277.69008         0.00001
  -5709296.20508  -4448800.88908  18339238.28608  18339237.47608         0.00001
 -12478827.38308  -9723754.87308  17987144.85708  17987143.88108         0.00001
 -26045832.12009 -20295443.94208  15743801.89709  15743801.94308         0.00001
 -24404082.57809 -19016158.44008  15431277.33009  15431276.51208         0.00001
        -0.27617        -0.10916  20005691.58517  20005693.23616         0.00011
 -26470552.42808 -20626392.10008  15593039.81908  15593039.10908         0.00001
 -18095378.71808 -14100288.51608  16922657.86308  16922657.96408         0.00001
 93 04 07 08 24 00.0000000  0  8 22 28 26 03 23 01 17 21
  -5688919.51108  -4432927.07308  18740389.03508  18740389.09908         0.00001
  -6128091.56908  -4775134.92108  18259544.31508  18259543.45508         0.00001
 -12237441.94008  -9535662.33908  18033079.11608  18033078.06708         0.00001
 -25866712.41308 -20155870.19008  15777887.26508  15777887.31208         0.00001
 -24421144.24609 -19029453.22108  15428030.54509  15428029.74308         0.00001
   -469347.27507   -365724.74907  19916377.42707  19916379.03007         0.00001
 -26447667.67808 -20608559.82108  15597394.59708  15597393.91908         0.00001
 -18362106.08308 -14308127.82208  16871901.22608  16871901.27208         0.00001
 93 04 07 08 26 00.0000000  0  8 03 22 28 26 23 01 17 21
 -25678709.30708 -20009374.31508  15813663.07108  15813663.14808         0.00001
  -5541109.53908  -4317750.51808  18768516.24208  18768516.59608         0.00001
  -6542960.32408  -5098409.27408  18180597.51008  18180596.49708         0.00001
 -11989189.17908  -9342218.62208  18080320.14608  18080318.73308         0.00001
 -24432921.28709 -19038630.10708  15425789.37509  15425788.60608         0.00001
   -939483.36007   -732064.35207  19826913.35307  19826914.87607         0.00001
 -26421316.40508 -20588026.37008  15602409.14208  15602408.45508         0.00001
 -18624417.01408 -14512525.79708  16821985.06008  16821985.00208         0.00001
 93 04 07 08 28 00.0000000  0  8 03 22 28 26 23 01 17 21
 -25481855.16208 -19855981.52508  15851123.20708  15851123.35308         0.00001
  -5388119.19808  -4198537.31208  18797629.42408  18797629.73008         0.00001
  -6953743.84708  -5418500.32008  18102427.97508  18102426.92008         0.00001
 -11734881.65608  -9144056.89808  18128713.30408  18128711.74708         0.00001
 -24439649.02109 -19043872.47108  15424509.20609  15424508.42808         0.00001
  -1410482.27207  -1099076.30007  19737285.04307  19737286.49207         0.00001
 -26391212.01608 -20564568.40608  15608137.76508  15608137.06708         0.00001
 -18882244.46808 -14713430.18808  16772921.92208  16772921.95208         0.00001
 93 04 07 08 30 00.0000000  0  8 22 28 26 03 23 01 17 21
  -5230112.38608  -4075415.21008  18827697.22508  18827697.41908         0.00001
  -7360401.80008  -5735376.60508  18025043.47008  18025042.56508         0.00001
 -11473861.01908  -8940664.19008  18178383.76608  18178382.57808         0.00001
 -25276189.90508 -19695722.93308  15890260.00208  15890260.17808         0.00001
 -24441127.10509 -19045024.20608  15424227.94209  15424227.09808         0.00001
  -1882086.82207  -1466560.15807  19647541.43807  19647542.98707         0.00001
 -26357488.99908 -20538290.74008  15614555.04708  15614554.35808         0.00001
 -19135345.10808 -14910651.40608  16724758.53608  16724758.33208         0.00001
 93 04 07 08 32 00.0000000  0  8 22 28 26 03 23 01 17 21
  -5067262.91408  -3948519.60308  18858686.34908  18858686.78308         0.00001
  -7762922.88708  -6049029.37008  17948446.24608  17948445.39708         0.00001
 -11206780.96008  -8732549.87708  18229207.23608  18229206.35608         0.00001
 -25061770.72208 -19528643.11808  15931062.63008  15931062.78708         0.00001
 -24437566.73109 -19042249.87308  15424905.35709  15424904.58408         0.00001
  -2353952.88108  -1834247.73008  19557747.98608  19557749.60008         0.00001
 -26320293.60408 -20509307.32408  15621633.10608  15621632.50508         0.00001
 -19384399.41808 -15104719.64408  16677364.98108  16677364.83508         0.00001
 93 04 07 08 34 00.0000000  0  8 22 28 26 03 23 01 17 21
  -4899731.31608  -3817975.56408  18890566.69208  18890567.03008         0.00001
  -8160816.34908  -6359076.21208  17872729.73008  17872728.71208         0.00001
 -10933683.50708  -8519746.66608  18281176.11908  18281174.96908         0.00001
 -24838642.41808 -19354776.96608  15973522.62308  15973522.79808         0.00001
 -24429063.57009 -19035624.01308  15426523.35109  15426522.63908         0.00001
  -2826247.33608  -2202269.08208  19467873.22008  19467874.74708         0.00001
 -26279370.96808 -20477419.56508  15629420.44208  15629419.79808         0.00001
 -19628888.18308 -15295230.31508  16630840.28408  16630840.09608         0.00001
 93 04 07 08 36 00.0000000  0  8 22 28 26 03 23 01 17 21
  -4727684.81208  -3683913.42508  18923306.11108  18923306.50508         0.00001
  -8554024.73908  -6665472.36408  17797904.66908  17797903.51908         0.00001
 -10654359.55808  -8302091.64708  18334329.81208  18334328.50508         0.00001
 -24606860.74608 -19174167.93008  16017629.24708  16017629.45408         0.00001
 -24415612.44209 -19025142.58908  15429083.00309  15429082.30308         0.00001
  -3298633.25408  -2570361.66808  19377980.96208  19377982.46908         0.00001
 -26234704.27808 -20442614.36708  15637920.25708  15637919.54008         0.00001
 -19869003.32608 -15482333.00608  16585147.81208  16585147.73708         0.00001
 93 04 07 08 38 00.0000000  0  8 22 28 26 03 23 01 17 21
  -4551288.35708  -3546461.71708  18956873.28808  18956873.67908         0.00001
  -8942271.32608  -6968002.16808  17724023.86008  17724022.58808         0.00001
 -10369348.85608  -8080005.37308  18388565.47608  18388564.13008         0.00001
 -24366484.25308 -18986861.63808  16063371.41708  16063371.65708         0.00001
 -24397321.80809 -19010890.12708  15432563.63109  15432562.87208         0.00001
  -3770957.18608  -2938405.95208  19288100.45308  19288101.91508         0.00001
 -26186038.94908 -20404693.34108  15647180.95708  15647180.32208         0.00001
 -20104923.17408 -15666166.64008  16540253.75008  16540253.66508         0.00001
 93 04 07 08 40 00.0000000  0  8 22 28 26 03 23 01 17 21
  -4370701.21908  -3405744.52508  18991237.96008  18991238.24108         0.00001
  -9325117.25208  -7266323.64808  17651170.61208  17651169.41408         0.00001
 -10078914.94808  -7853693.25208  18443833.21008  18443832.00908         0.00001
 -24117569.64808 -18792902.27008  16110738.30608  16110738.63908         0.00001
 -24374286.86409 -18992940.81008  15436947.04509  15436946.19908         0.00001
  -4242930.84408  -3306177.34608  19198286.76808  19198288.16008         0.00001
 -26133759.30808 -20363955.98108  15657129.42708  15657128.74808         0.00001
 -20336267.36908 -15846434.80008  16496230.35808  16496230.33308         0.00001
 93 04 07 08 42 00.0000000  0  8 22 28 26 03 23 01 17 21
  -4186112.59408  -3261909.29708  19026364.06908  19026364.52108         0.00001
  -9703096.09708  -7560852.62908  17579243.61808  17579242.50508         0.00001
  -9782874.50908  -7623012.38908  18500167.80608  18500166.75908         0.00001
 -23860207.56908 -18592360.45308  16159712.78308  16159712.98508         0.00001
 -24346640.10009 -18971397.86108  15442208.08009  15442207.26108         0.00001
  -4714688.76608  -3673780.67708  19108514.19008  19108515.36108         0.00001
 -26077527.03308 -20320138.64708  15667830.06108  15667829.37608         0.00001
 -20563608.88508 -16023583.93708  16452968.67208  16452968.55108         0.00001
 93 04 07 08 44 00.0000000  0  8 22 28 26 03 23 01 17 21
  -3997676.12108  -3115075.74108  19062222.45008  19062222.87708         0.00001
 -10075695.64608  -7851189.94608  17508340.29508  17508339.03908         0.00001
  -9481394.68508  -7388093.05208  18557537.50008  18557536.53208         0.00001
 -23594458.55108 -18385283.37008  16210283.31908  16210283.42808         0.00001
 -24314195.92309 -18946116.66808  15448381.98309  15448381.16108         0.00001
  -5185936.19408  -4040986.23408  19018838.61108  19018839.63508         0.00001
 -26017355.21908 -20273251.55108  15679280.34208  15679279.78208         0.00001
 -20786323.11108 -16197127.38408  16410587.46308  16410587.43608         0.00001
 93 04 07 08 46 00.0000000  0  8 22 28 26 03 23 01 17 21
  -3805570.79608  -2965383.36108  19098778.81608  19098779.23508         0.00001
 -10442747.49308  -8137204.37408  17438492.57908  17438491.45308         0.00001
  -9174878.30108  -7149249.12008  18615865.66108  18615864.52308         0.00001
 -23320412.22308 -18171740.84808  16262432.55808  16262432.85308         0.00001
 -24277573.69409 -18917579.86108  15455350.97909  15455350.13308         0.00001
  -5656521.55108  -4407675.90407  18929288.91908  18929289.83207         0.00001
 -25953328.61008 -20223360.70908  15691464.32208  15691463.67808         0.00001
 -21004564.84508 -16367185.77908  16369057.37908  16369057.30408         0.00001
 93 04 07 08 48 00.0000000  0  8 22 28 26 03 23 01 17 21
  -3609955.20208  -2812955.71708  19136003.29208  19136003.73608         0.00001
 -10803767.53808  -8418518.67708  17369792.77708  17369791.66808         0.00001
  -8863268.30208  -6906436.13608  18675162.95508  18675161.71108         0.00001
 -23038140.51008 -17951788.94308  16316147.13308  16316147.36308         0.00001
 -24236434.20909 -18885523.12008  15463179.55409  15463178.70108         0.00001
  -6126090.81208  -4773573.83608  18839932.58908  18839933.68708         0.00001
 -25885519.34508 -20170522.34108  15704367.96508  15704367.38108         0.00001
 -21218564.35308 -16533938.61708  16328334.69408  16328334.52008         0.00001
 93 04 07 08 50 00.0000000  0  8 22 28 26 03 23 01 17 21
  -3411029.58508  -2657948.84308  19173857.58108  19173858.08708         0.00001
 -11158654.74808  -8695054.16108  17302260.04508  17302258.89408         0.00001
  -8546954.35908  -6659957.73408  18735355.33908  18735354.29608         0.00001
 -22747764.25708 -17725521.83108  16371403.96908  16371404.18208         0.00001
 -24190749.97909 -18849925.00908  15471872.95809  15471872.12308         0.00001
  -6594682.53608  -5138710.01808  18750762.33108  18750763.49608         0.00001
 -25813173.82208 -20114149.22508  15718134.86808  15718134.26708         0.00001
 -21428097.01808 -16697210.75108  16288461.82108  16288461.74108         0.00001
 93 04 07 08 52 00.0000000  0  8 22 28 26 03 23 01 17 21
  -3208972.36008  -2500501.76008  19212307.82908  19212308.47308         0.00001
 -11507456.27608  -8966847.56308  17235885.23308  17235884.06908         0.00001
  -8226133.23508  -6409967.25808  18796405.88308  18796404.72408         0.00001
 -22449385.66008 -17493019.16708  16428183.64108  16428183.95108         0.00001
 -24141204.97009 -18811318.50308  15481301.06709  15481300.25608         0.00001
  -7062179.26108  -5502992.92908  18661800.29008  18661801.53408         0.00001
 -25736883.36808 -20054702.14808  15732652.45008  15732651.85208         0.00001
 -21633464.60208 -16857237.38608  16249381.57208  16249381.51908         0.00001
 93 04 07 08 54 00.0000000  0  8 22 28 26 03 23 01 17 21
  -3003945.85308  -2340740.93708  19251323.22308  19251323.92208         0.00001
 -11849895.06808  -9233682.98208  17170721.16308  17170720.02808         0.00001
  -7900514.93408  -6156238.72008  18858368.99408  18858367.89808         0.00001
 -22143095.38208 -17254351.55708  16486468.82508  16486469.24508         0.00001
 -24087490.19009 -18769462.82308  15491522.68809  15491521.85608         0.00001
  -7527990.49108  -5865962.50308  18573159.27708  18573160.25408         0.00001
 -25656547.15208 -19992102.52508  15747939.93708  15747939.41408         0.00001
 -21834458.50008 -17013855.99208  16211133.71308  16211133.61908         0.00001
 93 04 07 08 56 00.0000000  0  8 22 28 26 03 23 01 17 21
  -2796143.07908  -2178816.78808  19290866.86408  19290867.41308         0.00001
 -12186019.92208  -9495598.44308  17106758.88608  17106757.85608         0.00001
  -7570326.15708  -5898948.78808  18921201.72608  18921200.78308         0.00001
 -21829018.34308 -17009616.31508  16546235.76408  16546236.24308         0.00001
 -24029548.34409 -18724313.32908  15502548.55509  15502547.75208         0.00001
  -7992355.42108  -6227805.12208  18484793.45708  18484794.43308         0.00001
 -25572016.72508 -19926234.68508  15764025.61508  15764025.00308         0.00001
 -22030909.01908 -17166934.31508  16173750.47808  16173750.25608         0.00001
 93 04 07 08 58 00.0000000  0  8 22 28 26 03 23 01 17 21
  -2585711.38508  -2014844.14108  19330910.79408  19330911.45208         0.00001
 -12515569.53908  -9752390.35708  17044047.58108  17044046.48308         0.00001
  -7236163.00408  -5638561.91008  18984790.80108  18984789.76608         0.00001
 -21507238.53808 -16758878.88908  16607468.49808  16607468.90808         0.00001
 -23967612.15309 -18676051.36008  15514334.65409  15514333.85208         0.00001
  -8455209.86508  -6588470.71408  18396715.06708  18396715.93608         0.00001
 -25483368.10808 -19857157.87408  15780894.93408  15780894.26708         0.00001
 -22223119.70208 -17316708.87608  16137174.02808  16137173.79308         0.00001
 93 04 07 09 00 00.0000000  0  8 22 28 26 03 23 01 17 21
  -2372831.65708  -1848963.92407  19371420.40008  19371421.09507         0.00001
 -12838321.87208 -10003885.67308  16982629.86408  16982628.82108         0.00001
  -6898110.75808  -5375144.56908  19049119.91508  19049119.22708         0.00001
 -21177879.62108 -16502235.69308  16670143.47708  16670143.98608         0.00001
 -23901974.58409 -18624905.20108  15526825.05809  15526824.26408         0.00001
  -8916143.85408  -6947639.87108  18309002.05208  18309002.89808         0.00001
 -25390656.81408 -19784915.32908  15798537.27508  15798536.72608         0.00001
 -22411257.67008 -17463309.88008  16101372.57108  16101372.31108         0.00001
 93 04 07 09 02 00.0000000  0  8 22 28 26 03 23 01 17 21
  -2157681.38108  -1681314.43007  19412362.18608  19412363.00907         0.00001
 -13153691.34108 -10249628.10208  16922617.11308  16922616.07208         0.00001
  -6555873.08208  -5108465.89408  19114245.86408  19114244.95508         0.00001
 -20841063.66908 -16239781.78008  16734237.55008  16734237.99308         0.00001
 -23832469.22709 -18570745.18008  15540051.43209  15540050.68708         0.00001
  -9374827.39708  -7305055.44808  18221717.51408  18221718.13408         0.00001
 -25293505.23408 -19709212.82208  15817024.65408  15817024.10008         0.00001
 -22595061.39408 -17606533.54308  16066395.86808  16066395.64408         0.00001
 93 04 07 09 04 00.0000000  0  8 22 28 26 03 23 01 17 21
  -1940456.53808  -1512048.42107  19453698.79608  19453699.48707         0.00001
 -13461750.12408 -10489673.89908  16863995.37608  16863994.46708         0.00001
  -6209905.32908  -4838880.63008  19180081.39608  19180080.04008         0.00001
 -20496938.45508 -15971632.31708  16799722.43008  16799722.78508         0.00001
 -23759176.81709 -18513634.20608  15553998.48709  15553997.71608         0.00001
  -9831164.55508  -7660642.68508  18134879.22508  18134879.94808         0.00001
 -25192029.37508 -19630140.75308  15836334.87308  15836334.34808         0.00001
 -22774671.25008 -17746489.23408  16032217.19108  16032216.98008         0.00001
 93 04 07 09 06 00.0000000  0  8 22 28 26 03 23 01 17 21
  -1721316.55708  -1341290.13207  19495399.98908  19495400.33707         0.00001
 -13762500.85708 -10724025.12008  16806764.34208  16806763.40208         0.00001
  -5860285.48908  -4566449.56908  19246611.81008  19246610.55408         0.00001
 -20145618.73008 -15697876.76908  16866576.39308  16866576.79008         0.00001
 -23682245.46709 -18453687.70008  15568638.14009  15568637.29908         0.00001
 -10285092.12008  -8014352.30608  18048499.66508  18048500.23708         0.00001
 -25086127.32308 -19547619.70108  15856487.40608  15856486.88408         0.00001
 -22950011.22808 -17883117.73408  15998851.05208  15998850.79708         0.00001
 93 04 07 09 08 00.0000000  0  8 28 22 26 03 23 01 17 21
 -14055625.83008 -10952434.19808  16750984.55808  16750983.65008         0.00001
  -1500462.65907  -1169196.29307  19537427.08307  19537427.88807         0.00001
  -5507384.43607  -4291461.73608  19313766.33407  19313765.42908         0.00001
 -19787262.65208 -15418638.37708  16934769.35208  16934769.93308         0.00001
 -23601731.33909 -18390949.42308  15583959.46209  15583958.62908         0.00001
 -10736307.50408  -8365948.57908  17962636.08708  17962636.74608         0.00001
 -24975767.59208 -19461625.13708  15877488.20608  15877487.62408         0.00001
 -23121047.63808 -18016392.80608  15966303.82008  15966303.56608         0.00001
 93 04 07 09 10 00.0000000  0  8 22 28 26 03 23 01 17 21
  -1278066.30907   -995900.50707  19579747.81307  19579748.37407         0.00001
 -14341389.99208 -11175107.58208  16696605.39708  16696604.44108         0.00001
  -5151353.37508  -4014034.91608  19381516.85608  19381515.71308         0.00001
 -19422005.58608 -15134022.53508  17004275.51408  17004276.07108         0.00001
 -23517790.39909 -18325540.89508  15599932.86809  15599932.08808         0.00001
 -11185060.69308  -8715626.24908  17877240.94508  17877241.74208         0.00001
 -24860923.57508 -19372136.32108  15899342.34608  15899341.67008         0.00001
 -23287860.29208 -18146376.63608  15934560.42008  15934560.09308         0.00001
 93 04 07 09 12 00.0000000  0  8 28 22 26 03 23 01 17 21
 -14619067.65108 -11391479.78308  16643765.10308  16643764.28208         0.00001
  -1054305.01607   -821541.13207  19622328.29407  19622328.81707         0.00001
  -4791853.80007  -3733905.37308  19449927.30407  19449926.31008         0.00001
 -19049993.29708 -14844142.87908  17075067.10008  17075067.63608         0.00001
 -23430291.27009 -18257359.75308  15616583.37009  15616582.58708         0.00001
 -11631224.50208  -9063286.23308  17792338.82608  17792339.38508         0.00001
 -24741878.58108 -19279374.02508  15921995.84708  15921995.25508         0.00001
 -23450868.87608 -18273396.26308  15903540.92508  15903540.64508         0.00001
 93 04 07 09 14 00.0000000  0  8 28 22 26 03 23 01 17 21
 -14888986.51608 -11601806.17008  16592401.27408  16592400.37108         0.00001
   -829364.22207   -646262.67306  19665133.08107  19665133.67406         0.00001
  -4429406.94907  -3451479.30508  19518898.88407  19518897.82908         0.00001
 -18671383.33608 -14549122.42808  17147114.40008  17147114.94208         0.00001
 -23339428.81509 -18186557.84008  15633874.01409  15633873.12508         0.00001
 -12074092.95808  -9408378.40408  17708063.67208  17708064.13408         0.00001
 -24618431.72608 -19183181.69108  15945487.02808  15945486.47908         0.00001
 -23609750.10108 -18397199.76708  15873306.79108  15873306.45708         0.00001
 93 04 07 09 16 00.0000000  0  8 28 03 22 26 23 01 17 21
 -15150718.53908 -11805753.20908  16542595.39408  16542594.51008         0.00001
 -18286339.98008 -14249088.83308  17220385.89108  17220386.37508         0.00001
   -603433.59507   -470212.87407  19708125.97007  19708127.06807         0.00001
  -4064602.18108  -3167215.86608  19588318.84608  19588317.85908         0.00001
 -23245471.41209 -18113344.28308  15651753.39909  15651752.64008         0.00001
 -12513372.73408  -9750674.17708  17624471.55508  17624471.78508         0.00001
 -24490176.90608 -19083242.89908  15969893.13108  15969892.50508         0.00001
 -23764229.42008 -18517573.21208  15843910.27808  15843909.97608         0.00001
 93 04 07 09 18 00.0000000  0  8 28 03 22 26 23 01 17 21
 -15404035.09608 -12003142.74608  16494390.87908  16494389.84308         0.00001
 -17895014.94908 -13944160.56508  17294852.75408  17294853.44608         0.00001
   -376684.21207   -293525.13606  19751275.48007  19751276.01506         0.00001
  -3696919.87707  -2880710.20608  19658286.19407  19658285.42708         0.00001
 -23148525.34109 -18037801.89208  15670201.65609  15670200.87108         0.00001
 -12949316.40708 -10090370.40608  17541514.05608  17541514.38208         0.00001
 -24357750.27408 -18980053.35708  15995093.12008  15995092.58708         0.00001
 -23914568.00208 -18634720.13308  15815301.70908  15815301.43108         0.00001
 93 04 07 09 20 00.0000000  0  8 28 03 22 26 23 01 17 21
 -15649031.66708 -12194049.16408  16447769.46908  16447768.55308         0.00001
 -17497584.24208 -13634474.31608  17370481.34408  17370482.05708         0.00001
   -149309.09007   -116349.80406  19794543.57607  19794544.20006         0.00001
  -3326814.50307  -2592316.37708  19728714.88207  19728714.00808         0.00001
 -23048493.34709 -17959854.87608  15689237.15309  15689236.27808         0.00001
 -13382066.82908 -10427578.37608  17459164.06808  17459164.67208         0.00001
 -24220657.66308 -18873227.95608  16021180.87208  16021180.52508         0.00001
 -24061061.75108 -18748871.05908  15787424.84308  15787424.56708         0.00001
 93 04 07 09 22 00.0000000  0  7 28 03 26 23 01 17 21
 -15885534.18208 -12378336.85208  16402764.76208  16402763.84808         0.00001
 -17094201.46508 -13320150.19908  17447242.60408  17447243.32208         0.00001
  -2954360.94307  -2302092.85208  19799590.79007  19799589.91608         0.00001
 -22945334.42209 -17879471.29508  15708867.64809  15708866.78508         0.00001
 -13810949.55208 -10761772.58908  17377550.25808  17377550.86008         0.00001
 -24078662.00808 -18762582.01408  16048201.87608  16048201.21008         0.00001
 -24203606.21108 -18859944.62208  15760299.54108  15760299.26508         0.00001
 93 04 07 09 24 00.0000000  0  7 28 03 23 26 01 17 21
 -16113411.13308 -12555903.33008  16359401.26808  16359400.22908         0.00001
 -16685030.64208 -13001315.94408  17525105.38808  17525106.18708         0.00001
 -22839422.42809 -17796942.47508  15729021.96509  15729021.15908         0.00001
  -2579763.11307  -2010198.43408  19870874.21907  19870873.50508         0.00001
 -14235497.01808 -11092588.64908  17296761.56808  17296761.99608         0.00001
 -23932333.57408 -18648559.89308  16076047.24108  16076046.67708         0.00001
 -24342213.15908 -18967949.99008  15733923.47708  15733923.19808         0.00001
 93 04 07 09 26 00.0000000  0  7 28 03 23 26 01 17 21
 -16332397.63608 -12726542.17708  16317729.47208  16317728.49308         0.00001
 -16270248.79108 -12678109.50208  17604035.90908  17604036.73908         0.00001
 -22730577.34409 -17712128.11108  15749734.49409  15749733.64108         0.00001
  -2203315.37408  -1716862.54408  19942509.79208  19942509.07008         0.00001
 -14656281.77208 -11420472.75408  17216688.85208  17216689.08008         0.00001
 -23781427.14308 -18530970.50108  16104763.85708  16104763.33608         0.00001
 -24476846.30908 -19072858.90608  15708303.69408  15708303.37008         0.00001
 93 04 07 09 28 00.0000000  0  7 28 03 23 26 01 17 21
 -16542239.08408 -12890055.00308  16277797.98008  16277797.01008         0.00001
 -15850052.33708 -12350683.85708  17683996.85408  17683997.57108         0.00001
 -22619159.40309 -17625308.94408  15770936.70609  15770935.82208         0.00001
  -1825018.86408  -1422086.01508  20014497.20908  20014496.40908         0.00001
 -15072851.93608 -11745072.75508  17137418.02308  17137418.24308         0.00001
 -23625697.82508 -18409623.01408  16134398.18208  16134397.67108         0.00001
 -24607786.48308 -19174890.17108  15683386.57408  15683386.19808         0.00001
 93 04 07 09 30 00.0000000  0  7 28 03 23 26 01 17 21
 -16743400.67208 -13046804.31108  16239518.14008  16239517.24208         0.00001
 -15424608.74208 -12019169.49108  17764956.04508  17764956.99308         0.00001
 -22504959.81409 -17536322.25208  15792668.06809  15792667.22308         0.00001
  -1444814.71007  -1125823.02407  20086847.76107  20086846.76207         0.00001
 -15484926.82508 -12066169.96808  17059002.77008  17059002.84008         0.00001
 -23465369.85208 -18284692.15208  16164907.58908  16164907.14108         0.00001
 -24734645.14508 -19273741.03908  15659246.19208  15659245.78208         0.00001
 93 04 07 09 32 00.0000000  0  7 28 03 26 23 01 17 21
 -16935609.66108 -13196577.55508  16202941.91708  16202941.12008         0.00001
 -14994105.43708 -11683712.47808  17846878.06608  17846879.17408         0.00001
  -1063124.61307   -828402.12607  20159480.59707  20159480.01507         0.00001
 -22388212.47809 -17445350.30008  15814884.44309  15814883.58508         0.00001
 -15892553.60608 -12383801.08808  16981433.95408  16981434.02808         0.00001
 -23300287.79408 -18156056.80308  16196321.62008  16196321.17208         0.00001
 -24857568.53208 -19369525.45408  15635854.62008  15635854.22208         0.00001
 93 04 07 09 34 00.0000000  0  7 28 03 26 23 01 17 21
 -17118411.15508 -13339020.30008  16168156.05508  16168155.14108         0.00001
 -14558690.07908 -11344427.85208  17929735.03508  17929736.00608         0.00001
   -680113.66107   -529952.00107  20232365.38507  20232364.42607         0.00001
 -22268763.70308 -17352273.32408  15837614.75508  15837613.97508         0.00001
 -16295551.56408 -12697825.36208  16904745.84908  16904746.01108         0.00001
 -23130570.93908 -18023809.92908  16228617.77808  16228617.23108         0.00001
 -24977051.94308 -19462629.37308  15613117.58908  15613117.21808         0.00001
 93 04 07 09 36 00.0000000  0  7 28 03 26 23 01 17 21
 -17291732.66708 -13474076.04608  16135174.03508  16135173.13108         0.00001
 -14118544.17308 -11001457.00608  18013491.91108  18013493.00908         0.00001
   -295806.98507   -230492.14306  20305496.44207  20305495.10106         0.00001
 -22146820.28508 -17257252.47508  15860819.75208  15860818.94508         0.00001
 -16693572.16508 -13007971.18208  16829004.92908  16829005.08008         0.00001
 -22956031.09508 -17887804.87408  16261831.43608  16261831.04908         0.00001
 -25092423.28008 -19552529.07308  15591163.14108  15591162.71408         0.00001
 93 04 07 09 38 00.0000000  0  8 28 11 03 26 23 01 17 21
 -17455844.10408 -13601955.09808  16103944.78608  16103943.81508         0.00001
        -0.92117        -0.20817  19560787.56917  19560787.80317         0.00011
 -13673857.56308 -10654948.00508  18098112.98308  18098113.97208         0.00001
     89499.04106     69746.44906  20378817.42906  20378816.23206         0.00001
 -22022633.41908 -17160483.48408  15884451.71208  15884450.92208         0.00001
 -17086702.17008 -13314306.15908  16754194.70408  16754194.78308         0.00001
 -22776884.18408 -17748209.90708  16295922.08308  16295921.59208         0.00001
 -25203749.39808 -19639276.64808  15569978.42108  15569978.04108         0.00001
 93 04 07 09 40 00.0000000  0  7 28 11 03 23 01 17 21
 -17610280.27608 -13722294.98008  16074556.36508  16074555.41208         0.00001
   -475398.64007   -370439.97607  19470322.44707  19470322.58207         0.00001
 -13224784.36708 -10305020.86808  18183568.97508  18183569.67708         0.00001
 -21895935.74308 -17061758.01508  15908561.46808  15908560.76608         0.00001
 -17474660.03508 -13616610.90008  16680368.72708  16680368.77608         0.00001
 -22593047.63908 -17604960.68208  16330905.09508  16330904.60408         0.00001
 -25311755.07108 -19723436.86308  15549425.66208  15549425.17008         0.00001
 93 04 07 09 42 00.0000000  0  7 28 11 03 23 01 17 21
 -17755256.89408 -13835263.78408  16046968.38108  16046967.35608         0.00001
   -949639.34608   -739978.15807  19380077.27708  19380077.62607         0.00001
 -12771514.87808  -9951823.88608  18269823.28408  18269824.05208         0.00001
 -21766933.41208 -16961236.72308  15933109.82708  15933109.05708         0.00001
 -17857214.52108 -13914705.20908  16607571.09408  16607571.07008         0.00001
 -22404316.02608 -17457897.10008  16366819.47908  16366819.14308         0.00001
 -25416173.60708 -19804801.91708  15529555.42508  15529554.91508         0.00001
 93 04 07 09 44 00.0000000  0  8 11 28 12 03 23 01 17 21
  -1422565.01308  -1108491.63707  19290082.38408  19290082.86207         0.00001
 -17890548.17408 -13940685.57108  16021223.17408  16021222.11908         0.00001
        -0.84617        -0.98217  19673806.86517  19673807.74117         0.00011
 -12314264.23708  -9595524.70408  18356835.13608  18356836.09408         0.00001
 -21636091.80008 -16859282.21708  15958008.16108  15958007.41108         0.00001
 -18234352.81908 -14208579.11308  16535803.90508  16535803.90408         0.00001
 -22210552.73108 -17306912.74208  16403691.55208  16403691.00408         0.00001
 -25516938.44508 -19883319.95508  15510380.48508  15510380.02708         0.00001
 93 04 07 09 46 00.0000000  0  8 11 28 12 03 23 01 17 21
  -1893999.28108  -1475843.01608  19200371.36208  19200371.87108         0.00001
 -18016140.78708 -14038549.97008  15997323.93508  15997322.92008         0.00001
   -313667.60108   -244416.54007  19614117.75808  19614118.76207         0.00001
 -11853234.38908  -9236280.68408  18444566.19308  18444567.04508         0.00001
 -21502858.17008 -16755463.80208  15983361.69408  15983360.93408         0.00001
 -18605857.77808 -14498063.40108  16465108.66708  16465108.65508         0.00001
 -22012254.12508 -17152394.37608  16441426.36608  16441425.95308         0.00001
 -25614051.69108 -19958992.58908  15491900.45508  15491899.99308         0.00001
 93 04 07 09 48 00.0000000  0  8 11 28 12 03 23 01 17 21
  -2363695.09908  -1841839.76208  19110991.12508  19110991.81108         0.00001
 -18131818.28608 -14128688.31408  15975311.23608  15975310.30108         0.00001
   -623711.92408   -486009.42007  19555118.23908  19555119.11407         0.00001
 -11388559.46608  -8874196.29208  18532990.86108  18532991.82808         0.00001
 -21367288.50208 -16649825.10008  16009159.74708  16009159.04608         0.00001
 -18971649.41308 -14783095.74608  16395500.81308  16395500.83508         0.00001
 -21809359.10108 -16994294.37708  16480036.04608  16480035.57008         0.00001
 -25707594.41508 -20031883.00608  15474099.85208  15474099.33608         0.00001
 93 04 07 09 50 00.0000000  0  8 28 11 12 03 23 01 17 21
 -18237499.51708 -14211037.36508  15955200.78008  15955199.88408         0.00001
  -2831452.70108  -2206326.19208  19021979.77108  19021980.56508         0.00001
   -929895.85908   -724594.20807  19496853.27508  19496854.11007         0.00001
 -10920424.17608  -8509415.52508  18622073.97908  18622075.10608         0.00001
 -21229801.27908 -16542692.20608  16035322.67408  16035321.98408         0.00001
 -19331580.35508 -15063561.31208  16327008.26808  16327008.23608         0.00001
 -21601484.35308 -16832314.07408  16519593.32708  16519592.87208         0.00001
 -25797521.10208 -20101955.73008  15456987.32908  15456986.81808         0.00001
 93 04 07 09 52 00.0000000  0  8 28 11 12 03 23 01 17 21
 -18333216.27408 -14285621.86608  15936986.50208  15936985.58808         0.00001
  -3297092.30808  -2569162.22808  18933371.64908  18933372.34708         0.00001
  -1232001.77408   -960001.28007  19439364.70308  19439365.25707         0.00001
 -10449036.25108  -8142100.22108  18711775.94908  18711777.03508         0.00001
 -21090323.89308 -16434008.52708  16061864.32308  16061863.60708         0.00001
 -19685320.77608 -15339203.10508  16259693.53308  16259693.49908         0.00001
 -21388809.86108 -16666593.70808  16560063.97708  16560063.50108         0.00001
 -25883729.90808 -20169131.39808  15440582.33608  15440581.82508         0.00001
 93 04 07 09 54 00.0000000  0  8 28 11 12 03 23 01 17 21
 -18419180.34208 -14352606.85208  15920628.04108  15920627.10408         0.00001
  -3760431.17808  -2930205.49908  18845201.33908  18845201.79408         0.00001
  -1529813.98208  -1192062.62008  19382692.64108  19382693.58808         0.00001
  -9974603.03208  -7772411.94308  18802057.65908  18802058.46708         0.00001
 -20948877.04508 -16323790.20108  16088780.83408  16088780.03208         0.00001
 -20033089.57608 -15610191.69108  16193515.25308  16193515.21608         0.00001
 -21171496.35008 -16497258.52908  16601417.30408  16601416.94908         0.00001
 -25966447.88908 -20233586.94608  15424841.55008  15424841.07808         0.00001
 93 04 07 09 56 00.0000000  0  8 28 11 12 03 23 01 17 21
 -18495288.02308 -14411911.52308  15906144.99508  15906143.99108         0.00001
  -4221280.68208  -3289308.98708  18757504.57508  18757504.91008         0.00001
  -1823113.59908  -1420607.68208  19326879.53608  19326880.48808         0.00001
  -9497329.36008  -7400510.29508  18892879.79408  18892880.54008         0.00001
 -20805486.51408 -16212057.30508  16116067.12808  16116066.35308         0.00001
 -20374553.66408 -15876267.52708  16128536.74308  16128536.76108         0.00001
 -20949292.22908 -16324112.48008  16643701.54608  16643701.09608         0.00001
 -26045848.16508 -20295457.26908  15409732.26708  15409731.69008         0.00001
 93 04 07 09 58 00.0000000  0  8 28 11 12 03 23 01 17 21
 -18561453.35408 -14463468.92908  15893554.35208  15893553.42008         0.00001
  -4679447.15508  -3646321.78708  18670318.35408  18670318.68708         0.00001
  -2111680.44408  -1645464.89008  19271967.05808  19271967.93208         0.00001
  -9017416.00108  -7026551.76708  18984204.43608  18984205.18308         0.00001
 -20660351.39408 -16098965.00208  16143685.43508  16143684.64508         0.00001
 -20709553.71808 -16137306.46108  16064788.35208  16064788.30608         0.00001
 -20722244.45208 -16147192.15108  16686907.20908  16686906.83408         0.00001
 -26121712.96008 -20354572.67308  15395295.57508  15395295.04608         0.00001
 93 04 07 10 00 00.0000000  0  8 11 28 12 03 23 01 17 21
  -5134737.12608  -4001093.14208  18583679.41008  18583679.76408         0.00001
 -18617715.72208 -14507309.71808  15882847.94208  15882846.99708         0.00001
  -2395297.01808  -1866464.75107  19217996.42008  19217997.11907         0.00001
  -8535067.23508  -6650695.45807  19075992.26008  19075992.77407         0.00001
 -20513307.39108 -15984385.26108  16171666.98008  16171666.15208         0.00001
 -21038004.76308 -16393242.26808  16002286.10608  16002285.92308         0.00001
 -20490261.84608 -15966426.50008  16731052.05108  16731051.52008         0.00001
 -26194143.46108 -20411011.99608  15381512.48208  15381511.98408         0.00001
 93 04 07 10 02 00.0000000  0  8 11 28 12 03 23 01 17 21
  -5586959.83808  -4353474.42308  18497624.32608  18497624.66708         0.00001
 -18663887.20008 -14543287.51008  15874061.73908  15874060.91808         0.00001
  -2673753.19108  -2083443.50307  19165007.78408  19165008.46007         0.00001
  -8050491.01408  -6273103.46707  19168204.01708  19168204.42907         0.00001
 -20364316.27108 -15868288.29408  16200019.06708  16200018.28908         0.00001
 -21359970.62708 -16644124.68208  15941017.92708  15941017.80308         0.00001
 -20253820.15708 -15782186.24108  16776045.31508  16776044.91708         0.00001
 -26263396.38508 -20464975.29308  15368334.13708  15368333.60008         0.00001
 93 04 07 10 04 00.0000000  0  8 11 28 12 03 23 01 17 21
  -6035915.48108  -4703309.98208  18412190.86508  18412191.07608         0.00001
 -18700075.96308 -14571486.55008  15867175.44708  15867174.54708         0.00001
  -2946833.02508  -2296232.91207  19113042.56908  19113043.30407         0.00001
  -7563888.48108  -5893932.50907  19260801.23408  19260801.75607         0.00001
 -20213682.15708 -15750911.06208  16228683.75908  16228682.92408         0.00001
 -21675177.75308 -16889740.53908  15881035.99408  15881035.86208         0.00001
 -20012850.78808 -15594417.91608  16821900.29908  16821899.94208         0.00001
 -26329284.66608 -20516316.79308  15355795.97908  15355795.41608         0.00001
 93 04 07 10 06 00.0000000  0  8 11 28 12 03 23 01 17 21
  -6481402.65308  -5050442.80508  18327417.38308  18327417.76308         0.00001
 -18726379.73508 -14591983.01108  15862170.02808  15862169.04008         0.00001
  -3214322.66508  -2504666.32407  19062141.12208  19062141.63007         0.00001
  -7075459.79608  -5513338.59207  19353745.84808  19353746.62507         0.00001
 -20061622.15908 -15632422.75908  16257619.88608  16257618.90808         0.00001
 -21983586.00408 -17130058.49908  15822347.78308  15822347.59608         0.00001
 -19767204.48408 -15403005.22508  16868645.44108  16868644.94208         0.00001
 -26391738.50308 -20564982.10208  15343911.42608  15343910.82808         0.00001
 93 04 07 10 08 00.0000000  0  8 11 28 12 03 23 01 17 21
  -6923222.54908  -5394718.00808  18243341.85108  18243342.27108         0.00001
 -18742796.34308 -14604775.20708  15859045.97608  15859045.09308         0.00001
  -3476014.58908  -2708582.01508  19012342.63508  19012343.27408         0.00001
  -6585409.66108  -5131481.19507  19446999.04908  19447000.03507         0.00001
 -19908136.99408 -15512823.93208  16286827.02508  16286826.20708         0.00001
 -22285289.88108 -17365152.26508  15764935.19208  15764935.03608         0.00001
 -19516855.19408 -15207927.87708  16916285.13008  16916284.87408         0.00001
 -26451194.60508 -20611311.50608  15332597.25408  15332596.70808         0.00001
 93 04 07 10 10 00.0000000  0  8 11 28 12 03 23 01 17 21
  -7361147.23208  -5735958.00008  18160007.51308  18160008.06508         0.00001
 -18749393.02708 -14609915.49808  15857790.71008  15857789.88508         0.00001
  -3731676.38608  -2907798.90408  18963691.46208  18963692.17408         0.00001
  -6093913.53608  -4748497.04907  19540527.45908  19540528.59107         0.00001
 -19753196.68508 -15392091.21208  16316311.23908  16316310.49508         0.00001
 -22579784.88708 -17594628.75908  15708894.63108  15708894.36508         0.00001
 -19261857.41608 -15009228.30808  16964809.59408  16964809.29508         0.00001
 -26507364.62908 -20655080.32608  15321908.44708  15321907.80308         0.00001
 93 04 07 10 12 00.0000000  0  8 11 28 12 03 23 01 17 21
  -7794967.15008  -6073999.49708  18077454.37008  18077454.86308         0.00001
 -18745968.37808 -14607246.97008  15858442.45908  15858441.53108         0.00001
  -3981098.35208  -3102153.61508  18916227.77808  18916228.86608         0.00001
  -5601166.69107  -4364538.30307  19634293.80007  19634295.06507         0.00001
 -19596492.80908 -15269984.28608  16346131.04208  16346130.12208         0.00001
 -22867190.38508 -17818580.83408  15654202.98808  15654202.73208         0.00001
 -19002219.20708 -14806912.83808  17014217.25708  17014216.74708         0.00001
 -26560309.00608 -20696335.66808  15311833.47808  15311832.84608         0.00001
 93 04 07 10 14 00.0000000  0  8 11 28 12 03 23 01 17 21
  -8224459.17308  -6408668.58208  17995724.79408  17995725.12708         0.00001
 -18732431.26508 -14596698.64208  15861018.44908  15861017.64008         0.00001
  -4224060.69408  -3291474.83308  18869993.96608  18869994.59708         0.00001
  -5107350.52007  -3979746.32807  19728263.94507  19728264.91707         0.00001
 -19438076.02408 -15146542.64208  16376276.72408  16376275.77608         0.00001
 -23147599.59408 -18037081.33008  15600842.68508  15600842.42308         0.00001
 -18738014.77208 -14601039.26808  17064493.61508  17064493.22408         0.00001
 -26609995.87108 -20735052.67808  15302378.31708  15302377.73808         0.00001
 93 04 07 10 16 00.0000000  0  8 11 28 12 03 23 01 17 21
  -8649426.63008  -6739812.02308  17914856.12708  17914856.36308         0.00001
 -18709390.96708 -14578745.31208  15865403.04108  15865402.09808         0.00001
  -4460374.53408  -3475615.44108  18825024.92708  18825025.47308         0.00001
  -4612672.46007  -3594282.73807  19822398.01207  19822398.67707         0.00001
 -19278063.83408 -15021857.80708  16406725.97108  16406725.05908         0.00001
 -23420230.69609 -18249520.99308  15548962.64209  15548962.19908         0.00001
 -18469288.25108 -14391641.99408  17115630.59008  17115630.30808         0.00001
 -26656487.67808 -20771280.04308  15293531.21208  15293530.63208         0.00001
 93 04 07 10 18 00.0000000  0  8 11 28 12 03 23 01 17 21
  -9069658.43408  -7067265.38008  17834888.63708  17834889.01708         0.00001
 -18676852.11708 -14553390.56008  15871595.15308  15871594.30908         0.00001
  -4689840.69508  -3654420.21208  18781358.95208  18781359.24408         0.00001
  -4117325.38107  -3208297.85507  19916659.31207  19916660.15407         0.00001
 -19117375.40608 -14896646.04108  16437303.94908  16437303.10408         0.00001
 -23685716.84909 -18456393.24908  15498442.27009  15498441.81308         0.00001
 -18196161.13008 -14178815.65608  17167604.92608  17167604.65308         0.00001
 -26700004.16708 -20805188.96508  15285250.31908  15285249.69208         0.00001
 93 04 07 10 20 00.0000000  0  8 11 28 12 03 23 01 17 21
  -9484962.84408  -7390879.17608  17755858.74508  17755859.18508         0.00001
 -18634445.31808 -14520346.43808  15879664.96908  15879664.19608         0.00001
  -4912283.73808  -3827752.38108  18739029.62308  18739029.84908         0.00001
  -3621520.50907  -2821956.27007  20011007.64607  20011008.58107         0.00001
 -18955143.50608 -14770231.57508  16468175.65108  16468174.83808         0.00001
 -23943841.80609 -18657529.51808  15449322.70109  15449322.22908         0.00001
 -17918577.47008 -13962516.71008  17220427.38508  17220426.89308         0.00001
 -26740504.02308 -20836747.26808  15277543.41208  15277542.81408         0.00001
 93 04 07 10 22 00.0000000  0  8 11 28 12 03 23 01 17 21
  -9895086.81708  -7710456.28108  17677814.72908  17677815.23708         0.00001
 -18582404.44608 -14479795.19208  15889568.09508  15889567.30008         0.00001
  -5127470.98008  -3995430.69108  18698080.36108  18698081.13508         0.00001
  -3125407.01107  -2435374.22706  20105414.73807  20105415.51806         0.00001
 -18791272.24208 -14642539.69208  16499359.32208  16499358.47308         0.00001
 -24194352.06009 -18852732.25008  15401652.13709  15401651.62608         0.00001
 -17636633.93308 -13742820.47008  17274079.47008  17274079.03708         0.00001
 -26777868.84908 -20865862.68908  15270433.10208  15270432.51008         0.00001
 93 04 07 10 24 00.0000000  0  7 11 28 12 23 01 17 21
 -10299839.08708  -8025847.63708  17600792.97308  17600793.42008         0.00001
 -18520964.72908 -14431920.19408  15901259.91108  15901259.04608         0.00001
  -5335236.52308  -4157325.89108  18658543.95508  18658544.51108         0.00001
 -18626154.53108 -14513876.52908  16530780.10308  16530779.25808         0.00001
 -24437343.20409 -19042075.88208  15355412.35509  15355411.83408         0.00001
 -17350308.83908 -13519710.02908  17328565.49708  17328564.99908         0.00001
 -26812061.20908 -20892506.05608  15263926.47108  15263925.91408         0.00001
 93 04 07 10 26 00.0000000  0  7 11 28 12 23 01 17 21
 -10698988.48308  -8336873.10608  17524837.36608  17524837.74108         0.00001
 -18449979.40408 -14376607.04808  15914768.03308  15914767.34308         0.00001
  -5535378.20008  -4313280.38908  18620458.25208  18620458.88608         0.00001
 -18459665.70608 -14384144.97408  16562461.85708  16562461.19208         0.00001
 -24672494.81709 -19225310.82008  15310664.44609  15310663.92008         0.00001
 -17059582.02308 -13293169.65908  17383888.90908  17383888.53008         0.00001
 -26843284.03808 -20916835.50208  15257984.90908  15257984.38708         0.00001
 93 04 07 10 28 00.0000000  0  7 11 28 12 23 01 17 21
 -11092364.43008  -8643399.79908  17449980.39708  17449980.78308         0.00001
 -18369894.83308 -14314203.38208  15930007.35908  15930006.79308         0.00001
  -5727759.41108  -4463187.83108  18583849.39508  18583849.90208         0.00001
 -18291729.63208 -14253285.68308  16594419.05108  16594418.31708         0.00001
 -24899910.42909 -19402517.72308  15267388.63509  15267388.15208         0.00001
 -16764617.46808 -13063327.14208  17440018.71008  17440018.32308         0.00001
 -26871463.67708 -20938793.63508  15252622.52108  15252621.84608         0.00001
 93 04 07 10 30 00.0000000  0  7 11 28 12 23 01 17 21
 -11479762.72008  -8945268.56308  17376260.99008  17376261.21208         0.00001
 -18280448.61908 -14244504.97308  15947028.37208  15947027.69308         0.00001
  -5912213.89108  -4606918.56908  18548749.04208  18548749.22308         0.00001
 -18123010.55008 -14121816.26708  16626525.14308  16626524.45808         0.00001
 -25119771.73509 -19573838.17208  15225550.41209  15225549.90808         0.00001
 -16465550.07208 -12830287.61608  17496929.43208  17496929.06608         0.00001
 -26896814.97808 -20958547.86808  15247798.33908  15247797.66108         0.00001
 93 04 07 10 32 00.0000000  0  7 11 28 12 23 01 17 21
 -11860985.68608  -9242325.38008  17303716.60608  17303716.86508         0.00001
 -18181634.76508 -14167507.12908  15965832.00308  15965831.25408         0.00001
  -6088586.38208  -4744351.68208  18515186.38308  18515186.61108         0.00001
 -17953061.77108 -13989388.63308  16658865.40808  16658864.59108         0.00001
 -25331851.02009 -19739094.69808  15185192.97409  15185192.39908         0.00001
 -16162229.04408 -12593933.57608  17554649.33208  17554649.05208         0.00001
 -26919325.78408 -20976088.72108  15243514.61308  15243514.02608         0.00001
 93 04 07 10 34 00.0000000  0  7 11 28 12 23 01 17 21
 -12235853.36308  -9534430.03308  17232381.68108  17232381.89108         0.00001
 -18074100.18308 -14083713.94208  15986295.17708  15986294.47808         0.00001
  -6256744.19308  -4875383.73708  18483186.95308  18483187.42108         0.00001
 -17781678.58408 -13855843.29408  16691478.57208  16691477.79308         0.00001
 -25536059.67409 -19898218.24508  15146333.34809  15146332.73908         0.00001
 -15854893.27108 -12354451.13908  17613133.19808  17613133.13508         0.00001
 -26938573.98408 -20991087.28108  15239851.77308  15239851.20908         0.00001
 93 04 07 10 36 00.0000000  0  7 11 28 12 23 01 17 21
 -12604126.81508  -9821396.31708  17162301.55708  17162301.69708         0.00001
 -17957505.68808 -13992861.08808  16008482.28908  16008481.55608         0.00001
  -6416499.58708  -4999868.46808  18452786.30908  18452786.79208         0.00001
 -17609091.59608 -13721359.90308  16724320.77308  16724320.03808         0.00001
 -25732524.82909 -20051307.91609  15108947.18109  15108946.63909         0.00001
 -15543593.61408 -12111880.01608  17672371.47308  17672371.36308         0.00001
 -26954978.78308 -21003870.22308  15236730.05608  15236729.45008         0.00001
 93 04 07 10 38 00.0000000  0  8 11 28 12 25 23 01 17 21
 -12965595.20908 -10103059.96008  17093516.38808  17093516.52708         0.00001
 -17831889.46508 -13894978.30608  16032386.27708  16032385.48708         0.00001
  -6567697.67208  -5117685.15408  18424014.56608  18424014.74208         0.00001
         0.34117         0.02417  19781939.75017  19781939.40017         0.00011
 -17435360.87008 -13585985.30208  16757380.57908  16757379.83208         0.00001
 -25921208.60009 -20198334.18809  15073041.85409  15073041.23109         0.00001
 -15228307.01908 -11866202.13908  17732368.73108  17732368.57508         0.00001
 -26968596.96808 -21014481.76708  15234138.57308  15234137.91108         0.00001
 93 04 07 10 40 00.0000000  0  8 11 28 12 25 23 01 17 21
 -13320035.26308 -10379246.98208  17026068.63508  17026068.70208         0.00001
 -17698095.00508 -13790722.89808  16057846.52208  16057845.84108         0.00001
  -6710174.46308  -5228705.94808  18396902.06908  18396902.25308         0.00001
   -404354.24907   -315081.37607  19704993.48307  19704993.16707         0.00001
 -17260546.81408 -13449766.54908  16790646.66508  16790645.79408         0.00001
 -26101832.37909 -20339079.93509  15038670.22409  15038669.63809         0.00001
 -14908882.66708 -11617300.05208  17793153.24708  17793152.96508         0.00001
 -26979370.00208 -21022876.31208  15232088.55408  15232087.84908         0.00001
 93 04 07 10 42 00.0000000  0  8 11 28 12 25 23 01 17 21
 -13667229.95708 -10649788.26308  16959999.62508  16959999.77208         0.00001
 -17555534.61408 -13679636.87908  16084974.94308  16084974.16308         0.00001
  -6843777.63408  -5332812.23708  18371477.98608  18371478.57908         0.00001
   -811811.73307   -632580.64007  19627456.76007  19627456.61807         0.00001
 -17084284.01508 -13312418.90008  16824188.14808  16824187.45408         0.00001
 -26274475.33909 -20473606.88409  15005817.37209  15005816.78109         0.00001
 -14585715.63908 -11365481.60508  17854649.87008  17854649.48208         0.00001
 -26987001.70308 -21028823.06608  15230636.19008  15230635.57608         0.00001
 93 04 07 10 44 00.0000000  0  8 21 28 11 12 25 23 01 17
 -26991765.59508 -21032535.15008  15229729.56708  15229728.94308         0.00001
 -17404618.43808 -13562039.85508  16113693.33308  16113692.44408         0.00001
 -14006995.88708 -10914540.89708  16895344.29308  16895344.41208         0.00001
  -6968392.51708  -5429914.70508  18347764.45908  18347765.16808         0.00001
  -1221782.70607   -952038.47007  19549441.71407  19549441.55807         0.00001
 -16907075.11808 -13174334.03108  16857909.98008  16857909.09708         0.00001
 -26438969.24809 -20601783.92309  14974515.16709  14974514.56809         0.00001
 -14258934.14108 -11110846.67908  17916834.38908  17916834.04108         0.00001
 93 04 07 10 46 00.0000000  0  8 21 11 28 12 25 23 01 17
 -26993571.93508 -21033942.65108  15229385.86908  15229385.19008         0.00001
 -14339113.57008 -11173333.85808  16832144.31808  16832144.54708         0.00001
 -17245516.72008 -13438064.48008  16143969.22308  16143968.45308         0.00001
  -7083871.63808  -5519898.37908  18325789.70608  18325789.97308         0.00001
  -1634039.20407  -1273277.26807  19470991.76607  19470991.61507         0.00001
 -16728821.11908 -13035434.79508  16891830.65808  16891829.66908         0.00001
 -26595353.27109 -20723641.53009  14944756.11609  14944755.59409         0.00001
 -13928517.86408 -10853379.46208  17979710.54108  17979710.08708         0.00001
 93 04 07 10 48 00.0000000  0  8 21 11 28 12 25 23 01 17
 -26992328.89508 -21032974.01608  15229622.40108  15229621.71608         0.00001
 -14663404.09808 -11426027.73108  16770433.78608  16770434.12508         0.00001
 -17078121.20208 -13307626.41308  16175823.76408  16175822.97908         0.00001
  -7190112.48108  -5602683.37908  18305572.45208  18305572.85608         0.00001
  -2048843.95608  -1596501.69608  19392057.38108  19392056.90808         0.00001
 -16549318.35608 -12895562.48908  16925988.75508  16925988.01208         0.00001
 -26743912.13109 -20839401.61709  14916486.31309  14916485.72109         0.00001
 -13594229.30008 -10592894.91208  18043323.56208  18043323.24508         0.00001
 93 04 07 10 50 00.0000000  0  8 21 11 28 12 25 23 01 17
 -26988473.61608 -21029969.86608  15230355.93508  15230355.29608         0.00001
 -14979648.66208 -11672452.01908  16710254.45708  16710254.74608         0.00001
 -16902802.79408 -13171014.66008  16209185.50508  16209184.81708         0.00001
  -7286976.82008  -5678162.04808  18287139.78608  18287140.35908         0.00001
  -2465630.59008  -1921270.46108  19312745.44808  19312745.20308         0.00001
 -16368205.82308 -12754435.84508  16960453.46408  16960452.66608         0.00001
 -26884582.64809 -20949014.93809  14889717.58309  14889716.89909         0.00001
 -13256239.87408 -10329526.55108  18107640.80608  18107640.46808         0.00001
 93 04 07 10 52 00.0000000  0  8 21 11 28 12 25 23 01 17
 -26981703.85208 -21024694.69408  15231644.22208  15231643.52608         0.00001
 -15287668.04908 -11912467.07508  16651640.26508  16651640.47708         0.00001
 -16719623.87408 -13028277.82308  16244043.41008  16244042.76408         0.00001
  -7374369.31308  -5746260.04508  18270509.73208  18270509.99208         0.00001
  -2884337.28208  -2247535.38008  19233068.13808  19233067.95808         0.00001
 -16186273.18708 -12612670.14408  16995073.97208  16995073.17808         0.00001
 -27017176.48709 -21052334.75009  14864485.78309  14864485.10709         0.00001
 -12914658.60108 -10063359.34208  18172641.52708  18172641.24208         0.00001
 93 04 07 10 54 00.0000000  0  8 21 11 28 12 25 23 01 17
 -26972225.48108 -21017308.92008  15233447.83108  15233447.14108         0.00001
 -15587268.28708 -12145921.77008  16594628.27308  16594628.40108         0.00001
 -16528915.32008 -12879673.75208  16280334.06608  16280333.33808         0.00001
  -7452183.90408  -5806894.75908  18255701.89908  18255702.30008         0.00001
  -3305233.14408  -2575506.14808  19152974.31408  19152973.89208         0.00001
 -16003473.00908 -12470228.43408  17029859.72508  17029858.84108         0.00001
 -27141238.28209 -21149006.21809  14840877.56309  14840876.84809         0.00001
 -12569814.28608  -9794649.54408  18238263.30508  18238262.85808         0.00001
 93 04 07 10 56 00.0000000  0  8 21 11 28 12 25 23 01 17
 -26959677.71908 -21007531.40008  15235835.68208  15235834.86608         0.00001
 -15878276.93808 -12372681.72208  16539251.09708  16539251.22208         0.00001
 -16330793.24908 -12725292.91808  16318035.39908  16318034.82608         0.00001
  -7520339.53608  -5860003.00808  18242732.22508  18242732.66108         0.00001
  -3727852.85508  -2904820.18708  19072552.48508  19072551.94208         0.00001
 -15819220.68708 -12326655.19508  17064921.79908  17064921.07408         0.00001
 -27257515.60109 -21239611.86209  14818750.68309  14818749.93109         0.00001
 -12221400.88708  -9523158.64708  18304564.35808  18304563.93308         0.00001
 93 04 07 10 58 00.0000000  0  8 21 11 28 12 25 23 01 17
 -26943940.28508 -20995268.44208  15238830.31608  15238829.51308         0.00001
 -16160515.67908 -12592607.97608  16485542.82608  16485542.99708         0.00001
 -16125145.36408 -12565047.79608  16357168.73908  16357168.10308         0.00001
  -7578751.93108  -5905519.11608  18231616.71708  18231617.09808         0.00001
  -4151790.50508  -3235161.18008  18991879.82608  18991879.33808         0.00001
 -15633680.99708 -12182078.81008  17100228.88908  17100227.96608         0.00001
 -27365965.59709 -21324118.28809  14798113.24109  14798112.52409         0.00001
 -11869728.74608  -9249128.44908  18371485.27708  18371485.09208         0.00001
 93 04 07 11 00 00.0000000  0  8 21 11 28 12 25 23 01 17
 -26925412.39608 -20980831.10408  15242356.03408  15242355.31208         0.00001
 -16433788.93308 -12805548.13408  16433540.61808  16433540.76408         0.00001
 -15912255.59408 -12399159.66608  16397680.43008  16397679.58808         0.00001
  -7627323.90108  -5943367.37608  18222373.85408  18222374.28808         0.00001
  -4577332.36608  -3566752.20608  18910902.10208  18910901.20708         0.00001
 -15446989.46208 -12036604.86708  17135754.96308  17135754.14208         0.00001
 -27466285.87609 -21402289.87809  14779022.95709  14779022.18709         0.00001
 -11514882.63108  -8972625.02908  18439010.17508  18439010.13208         0.00001
 93 04 07 11 02 00.0000000  0  8 21 11 28 12 25 23 01 17
 -26904145.34708 -20964259.34408  15246402.99908  15246402.21408         0.00001
 -16697923.16908 -13011366.97808  16383277.49308  16383277.64508         0.00001
 -15692593.41508 -12227994.32108  16439480.76208  16439479.96308         0.00001
  -7665982.23808  -5973490.71908  18215017.26908  18215017.81508         0.00001
  -5004132.52908  -3899323.74308  18829684.72308  18829683.78908         0.00001
 -15258994.95908 -11890115.64008  17171529.41008  17171528.46408         0.00001
 -27558832.70909 -21474404.24609  14761411.78509  14761411.05809         0.00001
 -11156856.13208  -8693643.37508  18507140.47008  18507140.18808         0.00001
 93 04 07 11 04 00.0000000  0  8 21 11 28 12 25 23 01 17
 -26879805.21108 -20945292.97008  15251034.71708  15251033.98208         0.00001
 -16952751.37708 -13209934.37508  16334785.25408  16334785.34908         0.00001
 -15466242.34608 -12051616.83908  16482553.93408  16482553.03508         0.00001
  -7694663.47508  -5995839.71908  18209559.33408  18209559.83708         0.00001
  -5432107.86308  -4232810.97508  18748243.44908  18748242.82208         0.00001
 -15069935.19008 -11742796.34608  17207506.00808  17207505.14008         0.00001
 -27643381.36109 -21540286.25509  14745322.67209  14745321.91609         0.00001
 -10795895.49808  -8412375.41708  18575828.98208  18575828.70608         0.00001
 93 04 07 11 06 00.0000000  0  8 21 11 28 12 25 23 01 17
 -26852176.15108 -20923763.81208  15256292.39308  15256291.64708         0.00001
 -17198129.11508 -13401137.77408  16288091.46408  16288091.56608         0.00001
 -15233131.45808 -11869971.98908  16526913.44808  16526912.54408         0.00001
  -7713329.16308  -6010384.38108  18206007.57508  18206007.89108         0.00001
  -5860932.63808  -4566960.12808  18666640.93208  18666640.08008         0.00001
 -14879716.49108 -11594573.97608  17243703.38808  17243702.60308         0.00001
 -27719822.92709 -21599851.05609  14730776.28609  14730775.53009         0.00001
 -10431744.58608  -8128621.52608  18645124.53108  18645124.36108         0.00001
 93 04 07 11 08 00.0000000  0  8 21 11 28 12 25 23 01 17
 -26821655.94808 -20899981.82008  15262100.10908  15262099.38908         0.00001
 -17433894.81508 -13584851.27908  16243226.69408  16243226.73708         0.00001
 -14993612.24408 -11683333.64408  16572492.51908  16572491.66908         0.00001
  -7721926.84408  -6017083.83408  18204371.08208  18204371.71308         0.00001
  -6290392.12308  -4901603.86708  18584917.47708  18584916.52608         0.00001
 -14687923.73008 -11445125.07208  17280200.52108  17280199.73608         0.00001
 -27788560.49109 -21653412.75409  14717695.92909  14717695.15209         0.00001
 -10064670.63608  -7842589.96208  18714976.52408  18714976.44608         0.00001
 93 04 07 11 10 00.0000000  0  8 21 11 28 12 25 23 01 17
 -26788230.76508 -20873936.20008  15268460.72008  15268459.99408         0.00001
 -17659911.66108 -13760968.27708  16200217.13608  16200217.11608         0.00001
 -14747901.22108 -11491870.50308  16619249.71708  16619248.98008         0.00001
  -7720430.25708  -6015917.65308  18204655.84808  18204656.41308         0.00001
  -6720378.65108  -5236658.27108  18503093.80308  18503092.74008         0.00001
 -14494905.26808 -11294721.07708  17316930.58308  17316929.75608         0.00001
 -27849095.87809 -21700583.15009  14706176.45009  14706175.62609         0.00001
  -9694949.96708  -7554495.92208  18785331.89108  18785331.98108         0.00001
 93 04 07 11 12 00.0000000  0  8 21 11 28 12 25 23 01 17
 -26752022.66008 -20845722.07008  15275350.91908  15275350.18108         0.00001
 -17876044.62708 -13929383.55908  16159088.34108  16159088.42308         0.00001
 -14495976.46708 -11295565.48708  16667189.38408  16667188.44308         0.00001
  -7708816.63208  -6006868.03808  18206866.05908  18206866.52108         0.00001
  -7150879.59308  -5572113.52508  18421172.23708  18421171.20508         0.00001
 -14300633.79308 -11143340.70008  17353899.18108  17353898.47108         0.00001
 -27902069.75709 -21741861.44309  14696095.80809  14696094.95109         0.00001
  -9322379.91308  -7264181.58408  18856229.68208  18856229.61508         0.00001
 93 04 07 11 14 00.0000000  0  8 21 11 28 12 25 23 01 17
 -26712484.74308 -20814913.28408  15282874.68108  15282873.88808         0.00001
 -18082140.29808 -14089977.56508  16119869.65008  16119869.72408         0.00001
 -14238153.95508 -11094664.82708  16716251.27008  16716250.44608         0.00001
  -7687047.04808  -5989904.69308  18211008.73908  18211008.96508         0.00001
  -7581519.34608  -5907676.93008  18339224.17808  18339223.09808         0.00001
 -14105255.81808 -10991098.11108  17391078.32708  17391077.59608         0.00001
 -27947568.65209 -21777315.08609  14687437.63209  14687436.82109         0.00001
  -8947017.98908  -6971691.85108  18927658.73808  18927658.84108         0.00001
 93 04 07 11 16 00.0000000  0  8 21 11 28 12 25 23 01 17
 -26670205.72908 -20781968.57908  15290920.13908  15290919.40308         0.00001
 -18278064.77108 -14242645.97408  16082586.43808  16082586.54408         0.00001
 -13974872.47508 -10889510.42408  16766352.15208  16766351.30608         0.00001
  -7655103.53308  -5965013.63508  18217087.25308  18217087.63008         0.00001
  -8012258.75708  -6243318.00608  18257257.11108  18257256.02408         0.00001
 -13908456.32208 -10837747.85508  17428528.18508  17428527.14608         0.00001
 -27985398.22809 -21806792.64609  14680238.89609  14680237.99809         0.00001
  -8569240.24208  -6677319.72108  18999547.69908  18999547.59008         0.00001
 93 04 07 11 18 00.0000000  0  8 11 28 12 25 23 01 17 21
 -18463717.34008 -14387310.30208  16047257.87108  16047257.99308         0.00001
 -13706048.93008 -10680037.53608  16817507.60008  16817506.74008         0.00001
  -7613001.90908  -5932207.14108  18225099.07808  18225099.41508         0.00001
  -8442914.05608  -6578893.55108  18175306.10108  18175305.10608         0.00001
 -13710424.69908 -10683437.50308  17466212.23908  17466211.39808         0.00001
 -28015592.85509 -21830320.88709  14674492.98709  14674492.10109         0.00001
  -8189028.00408  -6381050.64108  19071899.81108  19071899.84708         0.00001
 -26624888.66008 -20746656.56108  15299543.71508  15299542.92708         0.00001
 93 04 07 11 20 00.0000000  0  8 11 28 12 25 23 01 17 21
 -18639000.78108 -14523894.79208  16013902.52808  16013902.61008         0.00001
 -13432009.22008 -10466500.09308  16869655.57008  16869654.88508         0.00001
  -7560763.82808  -5891502.12508  18235039.38208  18235040.01108         0.00001
  -8873332.50808  -6914284.52108  18093400.07608  18093399.33408         0.00001
 -13511176.08408 -10528178.82408  17504128.03508  17504127.16508         0.00001
 -28037840.07309 -21847656.34409  14670259.47309  14670258.54209         0.00001
  -7806255.36708  -6082786.35908  19144739.25308  19144739.11108         0.00001
 -26576359.05908 -20708841.27008  15308778.51208  15308777.80308         0.00001
 93 04 07 11 22 00.0000000  0  8 11 28 12 25 23 01 17 21
 -18803790.84508 -14652302.61508  15982544.01608  15982544.10008         0.00001
 -13153123.48108 -10249186.52008  16922725.79608  16922724.94008         0.00001
  -7498382.81208  -5842893.53308  18246910.03608  18246910.54608         0.00001
  -9303443.87808  -7249436.20708  18011552.64808  18011551.72108         0.00001
 -13310315.31608 -10371663.95008  17542350.47908  17542349.54308         0.00001
 -28052734.88409 -21859262.65909  14667424.98409  14667424.16309         0.00001
  -7421523.51908  -5782995.35708  19217951.34808  19217951.38308         0.00001
 -26524639.61208 -20668540.38908  15318620.40908  15318619.59408         0.00001
 93 04 07 11 24 00.0000000  0  8 11 28 12 25 23 01 17 21
 -18957996.65108 -14772462.98008  15953199.63808  15953199.64508         0.00001
 -12869364.59308 -10028075.70008  16976723.36508  16976722.36508         0.00001
  -7425888.16808  -5786404.15908  18260705.48908  18260705.77208         0.00001
  -9732724.77008  -7583940.76008  17929863.13508  17929862.16208         0.00001
 -13108206.13408 -10214176.28008  17580810.52708  17580809.96508         0.00001
 -28060297.16909 -21865155.31209  14665985.97209  14665985.12309         0.00001
  -7034571.56308  -5481474.45508  19291585.99408  19291586.08508         0.00001
 -26470095.10608 -20626038.16708  15328999.79708  15328999.04208         0.00001
 93 04 07 11 26 00.0000000  0  8 11 21 28 12 25 23 01 17
 -19101540.38108 -14884315.22908  15925884.12608  15925884.21708         0.00001
 -26412403.05308 -20581083.30208  15339978.21908  15339977.44308         0.00001
 -12580707.28608  -9803147.93408  17031653.01608  17031652.05608         0.00001
  -7343320.69008  -5722065.83208  18276417.48808  18276417.84508         0.00001
 -10161000.69708  -7917662.23308  17848365.12008  17848363.86208         0.00001
 -12904580.83208 -10055507.20908  17619559.23108  17619558.51408         0.00001
 -28060628.83909 -21865413.73109  14665922.89009  14665921.95509         0.00001
  -6645690.52308  -5178450.29607  19365587.43408  19365587.47607         0.00001
 93 04 07 11 28 00.0000000  0  8 11 21 28 12 25 23 01 17
 -19234361.26708 -14987812.02008  15900609.23508  15900609.28708         0.00001
 -26351418.90108 -20533563.17808  15351583.20108  15351582.42608         0.00001
 -12287726.32908  -9574851.09108  17087405.32408  17087404.48908         0.00001
  -7250739.16208  -5649924.34508  18294035.24708  18294035.55208         0.00001
 -10588532.32708  -8250803.72908  17767008.60408  17767007.38008         0.00001
 -12699681.48308  -9895845.38508  17658550.24808  17658549.24108         0.00001
 -28053700.38009 -21860014.89109  14667241.21409  14667240.36009         0.00001
  -6255085.17308  -4874082.41007  19439917.11508  19439916.98907         0.00001
 93 04 07 11 30 00.0000000  0  8 11 21 28 12 25 23 01 17
 -19356354.83408 -15082871.92808  15877394.59208  15877394.66808         0.00001
 -26287237.70008 -20483551.84208  15363796.43908  15363795.59808         0.00001
 -11990557.37808  -9343290.89108  17143954.73508  17143953.90808         0.00001
  -7148158.47608  -5569991.33408  18313555.46708  18313555.95508         0.00001
 -11014828.89608  -8582982.83108  17685886.96808  17685885.86608         0.00001
 -12493398.12608  -9735105.12208  17697804.76808  17697803.72108         0.00001
 -28039652.67109 -21849068.59509  14669914.35809  14669913.50609         0.00001
  -5862386.96907  -4568083.75907  19514645.17307  19514644.84807         0.00001
 93 04 07 11 32 00.0000000  0  8 11 21 28 12 25 23 01 17
 -19467458.05508 -15169445.87108  15856252.30808  15856252.39108         0.00001
 -26220139.68308 -20431267.68108  15376564.77408  15376563.96108         0.00001
 -11689506.51808  -9108705.80808  17201242.85408  17201242.19408         0.00001
  -7035633.78808  -5482309.75808  18334968.42208  18334968.69908         0.00001
 -11439732.16508  -8914076.22908  17605030.50808  17605029.42308         0.00001
 -12285545.50608  -9573142.04208  17737357.84508  17737356.92908         0.00001
 -28018446.77509 -21832544.49209  14673949.74609  14673948.88809         0.00001
  -5467857.84107  -4260658.60207  19589721.56507  19589721.32907         0.00001
 93 04 07 11 34 00.0000000  0  8 11 21 28 12 25 23 01 17
 -19567614.57008 -15247489.88508  15837193.12208  15837193.20308         0.00001
 -26149755.95608 -20376423.20408  15389958.29908  15389957.53008         0.00001
 -11384776.78908  -8871254.07308  17259230.95808  17259230.18708         0.00001
  -6913226.43808  -5386927.41408  18358261.48808  18358261.86408         0.00001
 -11863190.86708  -9244044.00108  17524448.95608  17524447.85908         0.00001
 -12076376.41708  -9410153.13508  17777161.38208  17777160.31008         0.00001
 -27990610.98509 -21810854.24309  14679246.66609  14679245.80209         0.00001
  -5071831.84607  -3952066.99007  19665082.69007  19665082.72907         0.00001
 93 04 07 11 36 00.0000000  0  7 11 21 28 12 25 23 01
 -19656777.17808 -15316967.24408  15820226.05308  15820226.15708         0.00001
 -26076280.73108 -20319169.78608  15403940.24208  15403939.45408         0.00001
 -11076440.27408  -8630991.86908  17317905.57908  17317904.63408         0.00001
  -6781005.32808  -5283897.96108  18383422.51708  18383422.85508         0.00001
 -12285023.51908  -9572744.71908  17444176.78408  17444175.65708         0.00001
 -11865813.43408  -9246078.09008  17817229.90408  17817229.24108         0.00001
 -27955910.66009 -21783815.00009  14685849.90809  14685849.03809         0.00001
 93 04 07 11 38 00.0000000  0  7 11 21 28 12 25 23 01
 -19734910.09408 -15377850.06208  15805357.90408  15805357.91608         0.00001
 -25999515.82508 -20259352.97408  15418548.10908  15418547.31308         0.00001
 -10764872.68508  -8388211.95308  17377194.86208  17377193.98608         0.00001
  -6639049.98608  -5173283.39708  18410435.77508  18410435.94308         0.00001
 -12704833.75308  -9899869.53308  17364289.56308  17364288.39908         0.00001
 -11653534.60708  -9080665.98808  17857625.30508  17857624.59408         0.00001
 -27914148.08809 -21751272.70409  14693797.03409  14693796.08409         0.00001
 93 04 07 11 40 00.0000000  0  8 11 21 28 12 25 23 01 15
 -19801984.45008 -15430115.80508  15792594.07808  15792594.02808         0.00001
 -25919328.33908 -20196869.22108  15433807.34208  15433806.44608         0.00001
 -10449938.16108  -8142808.43308  17437124.87408  17437124.02308         0.00001
  -6487445.00708  -5055149.66708  18439285.28708  18439285.56708         0.00001
 -13122570.84908 -10225378.91808  17284796.81808  17284795.62008         0.00001
 -11439783.95308  -8914107.04608  17898300.85108  17898299.98108         0.00001
 -27865952.13609 -21713717.40609  14702968.45109  14702967.48709         0.00001
         0.18218         0.33518  18063335.90718  18063335.37518         0.00011
 93 04 07 11 42 00.0000000  0  8 11 21 28 12 25 23 01 15
 -19857972.14908 -15473742.58408  15781940.00308  15781939.93608         0.00001
 -25836052.91408 -20131979.26808  15449653.98508  15449653.20808         0.00001
 -10131959.66508  -7895032.96508  17497634.08508  17497633.32208         0.00001
  -6326273.85208  -4929561.75008  18469954.62608  18469955.50708         0.00001
 -13537900.44308 -10549012.33608  17205762.20208  17205761.03008         0.00001
 -11224490.11008  -8746345.62408  17939269.92008  17939269.04308         0.00001
 -27810916.40109 -21670832.39309  14713441.38709  14713440.39809         0.00001
   -439062.15808   -342126.04808  17979785.07408  17979784.48008         0.00001
 93 04 07 11 44 00.0000000  0  8 11 28 12 25 23 01 15 21
 -19902849.35608 -15508711.84808  15773400.18508  15773400.10608         0.00001
  -9811427.47908  -7645267.62808  17558629.44708  17558628.67408         0.00001
  -6155622.44808  -4796586.68108  18502429.15608  18502429.11708         0.00001
 -13950934.11808 -10870856.72208  17127164.57208  17127163.39408         0.00001
 -11007722.51108  -8577435.81908  17980519.40808  17980518.45908         0.00001
 -27749369.16309 -21622873.48109  14725153.39109  14725152.43209         0.00001
   -875932.30308   -682544.27808  17896651.35808  17896650.85108         0.00001
 -25749342.85908 -20064412.98508  15466154.38008  15466153.57208         0.00001
 93 04 07 11 46 00.0000000  0  8 11 28 12 25 23 01 15 21
 -19936611.00608 -15535019.65008  15766975.49008  15766975.53108         0.00001
  -9488532.76808  -7393661.34308  17620074.16208  17620073.42008         0.00001
  -5975592.61608  -4656303.68508  18536687.40808  18536687.99608         0.00001
 -14361305.08008 -11190626.30508  17049073.49408  17049072.45708         0.00001
 -10789423.07408  -8407332.38308  18022060.39908  18022059.67008         0.00001
 -27682002.49209 -21570379.94709  14737972.83109  14737971.87009         0.00001
  -1310447.07508  -1021127.13208  17813965.79608  17813965.40408         0.00001
 -25659268.44408 -19994225.13408  15483295.05308  15483294.20808         0.00001
 93 04 07 11 48 00.0000000  0  8 11 28 12 25 23 01 15 21
 -19959280.84808 -15552684.47808  15762661.53608  15762661.66208         0.00001
  -9163218.11708  -7140169.40208  17681979.49908  17681978.90708         0.00001
  -5786313.43708  -4508813.45708  18572706.17708  18572706.78808         0.00001
 -14768619.82908 -11508014.42208  16971564.03408  16971563.05808         0.00001
 -10569244.07208  -8235764.35408  18063959.15608  18063958.47708         0.00001
 -27608238.63209 -21512901.59409  14752009.64809  14752008.68509         0.00001
  -1742460.83508  -1357761.12208  17731756.12508  17731755.84708         0.00001
 -25566033.86008 -19921574.80308  15501036.86908  15501036.18908         0.00001
 93 04 07 11 50 00.0000000  0  8 11 28 12 25 23 01 15 21
 -19970884.68608 -15561726.49708  15760453.45408  15760453.61708         0.00001
  -8835811.95308  -6885047.73608  17744282.75608  17744282.05008         0.00001
  -5587912.09508  -4354215.02908  18610460.78908  18610461.02208         0.00001
 -15173109.45708 -11823201.02408  16894592.03408  16894590.96208         0.00001
 -10347362.16608  -8062869.38408  18106181.75308  18106181.10408         0.00001
 -27528101.84309 -21450457.33309  14767259.11209  14767258.12809         0.00001
  -2171819.09108  -1692325.92108  17650052.00508  17650051.54708         0.00001
 -25469293.02908 -19846192.34308  15519446.17408  15519445.33508         0.00001
 93 04 07 11 52 00.0000000  0  8 11 28 12 25 23 01 15 21
 -19971434.72308 -15562155.18508  15760348.85608  15760349.03008         0.00001
  -8506761.30408  -6628644.64608  17806899.18608  17806898.37208         0.00001
  -5380500.23408  -4192595.42708  18649929.64108  18649930.33908         0.00001
 -15574335.72508 -12135844.72708  16818241.08808  16818240.01908         0.00001
 -10124361.90708  -7889102.98308  18148617.28708  18148616.54208         0.00001
 -27442187.32409 -21383510.94209  14783608.08009  14783607.12809         0.00001
  -2598344.15808  -2024683.05608  17568887.06408  17568886.42908         0.00001
 -25368970.23508 -19768018.74408  15538536.92308  15538536.09808         0.00001
 93 04 07 11 54 00.0000000  0  8 11 28 12 25 23 01 15 21
 -19960960.65808 -15553993.67808  15762342.12408  15762342.23808         0.00001
  -8176175.94808  -6371045.69908  17869807.68508  17869806.67508         0.00001
  -5164203.35108  -4024052.44308  18691089.89808  18691090.20108         0.00001
 -15972502.85608 -12446104.71408  16742472.32508  16742471.14608         0.00001
  -9899436.11608  -7713836.18808  18191419.56608  18191418.47008         0.00001
 -27350055.99509 -21311720.28509  14801140.12809  14801139.13609         0.00001
  -3021863.90908  -2354698.38208  17488293.82408  17488293.22908         0.00001
 -25265520.98508 -19687408.92808  15558222.70308  15558221.90108         0.00001
 93 04 07 11 56 00.0000000  0  8 11 28 12 25 23 01 15 21
 -19939492.92808 -15537265.70708  15766427.35908  15766427.55408         0.00001
  -7843923.70108  -6112147.87208  17933032.90808  17933032.35908         0.00001
  -4939144.32607  -3848681.81407  18733916.86907  18733917.08707         0.00001
 -16367256.60508 -12753704.95308  16667353.15108  16667351.91808         0.00001
  -9672829.50708  -7537259.67008  18234541.38608  18234540.41808         0.00001
 -27252354.13209 -21235588.94809  14819732.16209  14819731.19009         0.00001
  -3442195.97208  -2682229.79308  17408307.17708  17408306.64408         0.00001
 -25158406.27508 -19603942.91208  15578605.84408  15578605.01108         0.00001
 93 04 07 11 58 00.0000000  0  8 11 28 12 25 23 01 15 21
 -19907117.57508 -15512038.22208  15772588.24208  15772588.43408         0.00001
  -7510316.66808  -5852194.33808  17996516.08108  17996515.69008         0.00001
  -4705499.09807  -3666620.64908  18778378.12607  18778378.97008         0.00001
 -16757911.33008 -13058111.09608  16593013.87108  16593012.59608         0.00001
  -9444705.57808  -7359500.83808  18277951.89808  18277951.07608         0.00001
 -27149301.78609 -21155288.39609  14839342.34009  14839341.39709         0.00001
  -3859205.18708  -3007171.96408  17328952.97908  17328952.37808         0.00001
 -25047715.06908 -19517690.02808  15599669.74108  15599668.87008         0.00001
 93 04 07 12 00 00.0000000  0  8 11 28 12 25 23 01 15 21
 -19863886.74608 -15478351.98108  15780814.92308  15780815.07308         0.00001
  -7175786.42408  -5591521.42108  18060175.37308  18060174.71508         0.00001
  -4463404.90308  -3477975.88108  18824447.65508  18824448.07208         0.00001
 -17144668.37908 -13359480.10808  16519416.39908  16519415.22508         0.00001
  -9214824.12608  -7180372.51108  18321696.81508  18321696.29508         0.00001
 -27040507.50009 -21070513.61609  14860045.20609  14860044.20509         0.00001
  -4272710.71408  -3329383.99308  17250265.53408  17250264.81108         0.00001
 -24933902.62308 -19429005.00808  15621327.50708  15621326.61608         0.00001
 93 04 07 12 02 00.0000000  0  8 11 28 12 25 23 01 15 21
 -19809853.40708 -15436248.21508  15791097.13708  15791097.50208         0.00001
  -6840399.69108  -5330181.13108  18123997.09908  18123996.27708         0.00001
  -4212996.55008  -3282852.51708  18872098.81008  18872099.03808         0.00001
 -17527359.90708 -13657681.21508  16446592.57608  16446591.31308         0.00001
  -8982945.54208  -6999687.98208  18365821.70908  18365821.31908         0.00001
 -26926270.30809 -20981497.60509  14881783.86109  14881782.84909         0.00001
  -4682524.49308  -3648719.36308  17172280.65008  17172279.79108         0.00001
 -24816281.15608 -19337351.91308  15643710.17208  15643709.31508         0.00001
 93 04 07 12 04 00.0000000  0  8 11 28 12 25 23 01 15 21
 -19745068.88108 -15385766.81808  15803425.26808  15803425.63108         0.00001
  -6504467.25808  -5068415.57108  18187922.87208  18187922.22008         0.00001
  -3954403.56508  -3081351.51608  18921307.27308  18921307.60408         0.00001
 -17906058.96608 -13952771.33308  16374528.49408  16374527.34008         0.00001
  -8749557.10508  -6817826.96608  18410234.34308  18410233.75508         0.00001
 -26806933.78609 -20888508.09508  14904492.76609  14904491.79708         0.00001
  -5088446.06808  -3965021.84208  17095036.29308  17095035.41308         0.00001
 -24695169.58008 -19242979.26408  15666756.99708  15666756.02008         0.00001
 93 04 07 12 06 00.0000000  0  8 11 28 12 25 23 01 15 21
 -19669603.58808 -15326962.70608  15817785.83908  15817786.12708         0.00001
  -6168007.63408  -4806239.23008  18251949.35108  18251948.49208         0.00001
  -3687769.79908  -2873585.05108  18972046.00808  18972046.65108         0.00001
 -18279910.45308 -14244084.13708  16303386.84208  16303385.69808         0.00001
  -8514451.90308  -6634628.21808  18454973.53908  18454972.76008         0.00001
 -26682188.20309 -20791303.73808  14928231.09009  14928230.10308         0.00001
  -5490284.25308  -4278142.47208  17018568.94408  17018568.04908         0.00001
 -24570500.22508 -19145834.31208  15690480.79708  15690479.85808         0.00001
 93 04 07 12 08 00.0000000  0  8 11 28 12 25 23 01 15 21
 -19583558.97408 -15259914.93008  15834159.63308  15834159.83608         0.00001
  -5831373.07408  -4543926.59308  18316008.63508  18316007.82808         0.00001
  -3413266.59908  -2659686.57108  19024282.43608  19024282.94108         0.00001
 -18649239.92908 -14531873.30208  16233105.83208  16233104.48308         0.00001
  -8277309.41408  -6449841.97408  18500100.25708  18500099.60308         0.00001
 -26552391.19809 -20690163.20108  14952930.65309  14952929.69208         0.00001
  -5887869.57808  -4587949.18208  16942910.94008  16942909.95408         0.00001
 -24441978.33608 -19045687.38808  15714937.52108  15714936.81108         0.00001
 93 04 07 12 10 00.0000000  0  8 01 11 28 12 25 23 15 21
 -26417842.15309 -20585319.78208  14978534.42409  14978533.41408         0.00001
 -19487050.36108 -15184713.42608  15852524.59908  15852524.84508         0.00001
  -5494892.31108  -4281733.77908  18380038.88408  18380038.03008         0.00001
  -3131075.04207  -2439797.16708  19077981.51607  19077982.25008         0.00001
 -19013732.64608 -14815893.57508  16163745.19908  16163743.77908         0.00001
  -8038249.79408  -6263561.88808  18545592.14108  18545591.41408         0.00001
  -6281037.23608  -4894313.55308  16868093.60608  16868092.54908         0.00001
 -24309739.84908 -18942644.41208  15740101.76008  15740100.88708         0.00001
 93 04 07 12 12 00.0000000  0  8 01 11 28 12 25 23 15 21
 -26278570.12309 -20476796.11608  15005036.98409  15005035.98008         0.00001
 -19380174.60408 -15101433.64908  15872862.36908  15872862.64408         0.00001
  -5158302.55408  -4019456.04508  18444089.64108  18444089.03408         0.00001
  -2841353.36407  -2214040.15707  19133113.36807  19133114.40007         0.00001
 -19373258.79008 -15096043.74308  16095329.54508  16095328.30708         0.00001
  -7797686.68008  -6076110.23808  18591369.91008  18591368.82908         0.00001
  -6669597.40208  -5197087.68008  16794153.03608  16794152.08008         0.00001
 -24174034.36408 -18836899.88408  15765925.63808  15765924.77208         0.00001
 93 04 07 12 14 00.0000000  0  8 01 11 28 12 25 23 15 21
 -26134457.52509 -20364500.58408  15032460.70409  15032459.71208         0.00001
 -19263078.30408 -15010189.82408  15895145.13308  15895145.40108         0.00001
  -4822039.73608  -3757433.06408  18508078.28508  18508077.63008         0.00001
  -2544304.47907  -1982573.64607  19189640.62407  19189641.07507         0.00001
 -19727542.42708 -15372108.81408  16027911.48208  16027910.28608         0.00001
  -7555248.05408  -5887197.19708  18637504.28508  18637503.58308         0.00001
  -7053399.28508  -5496154.05008  16721117.97108  16721117.11808         0.00001
 -24034461.78408 -18728142.03508  15792485.45008  15792484.59108         0.00001
 93 04 07 12 16 00.0000000  0  8 01 11 28 12 25 23 15 21
 -25985635.76509 -20248535.56708  15060780.56109  15060779.51808         0.00001
 -19135885.61408 -14911078.66508  15919349.16808  15919349.43508         0.00001
  -4486400.06908  -3495895.64508  18571948.57008  18571947.82308         0.00001
  -2240106.24908  -1745536.18407  19247527.92408  19247528.13707         0.00001
 -20076400.21208 -15643946.00808  15961525.99708  15961524.71808         0.00001
  -7310777.32108  -5696700.70108  18684025.78508  18684025.31908         0.00001
  -7432262.53208  -5791372.12308  16649022.61708  16649021.72008         0.00001
 -23891375.41408 -18616646.16908  15819713.81208  15819713.01308         0.00001
 93 04 07 12 18 00.0000000  0  8 01 11 28 12 25 23 15 21
 -25832340.44009 -20129084.66208  15089951.61209  15089950.69508         0.00001
 -18998721.93208 -14804197.90608  15945450.55808  15945450.84208         0.00001
  -4151390.38908  -3234849.16608  18635698.89808  18635697.95008         0.00001
  -1928931.45008  -1503062.40907  19306742.82808  19306743.05407         0.00001
 -20419907.79008 -15911614.21308  15896158.69408  15896157.35508         0.00001
  -7064471.47708  -5504774.27408  18730896.11308  18730896.42608         0.00001
  -7806000.88708  -6082596.77008  16577902.46108  16577901.68008         0.00001
 -23744354.74308 -18502084.61708  15847691.00408  15847690.16708         0.00001
 93 04 07 12 20 00.0000000  0  8 11 25 28 12 23 01 15 21
 -18851726.42608 -14689656.01808  15973422.85908  15973423.24308         0.00001
 -20757915.54208 -16174996.77608  15831837.88808  15831836.55008         0.00001
  -3817354.86408  -2974561.76008  18699263.47008  18699262.91108         0.00001
  -1610963.22508  -1255295.07507  19367250.04108  19367250.60107         0.00001
  -6816377.15108  -5311454.20508  18778107.16808  18778107.20808         0.00001
 -25674979.06809 -20006465.39308  15119896.49109  15119895.54208         0.00001
  -8174435.56208  -6369688.69308  16507791.63908  16507790.81308         0.00001
 -23593313.40908 -18384390.08108  15876433.23308  15876432.43408         0.00001
 93 04 07 12 22 00.0000000  0  8 11 25 01 28 12 23 15 21
 -18695064.44908 -14567581.78308  16003234.65208  16003235.07908         0.00001
 -21089885.84908 -16433674.87808  15768666.03108  15768664.64708         0.00001
 -25513482.05109 -19880623.55508  15150628.37909  15150627.36108         0.00001
  -3484726.57508  -2715370.90308  18762560.68508  18762559.84808         0.00001
  -1286406.57607  -1002394.01608  19429011.09507  19429011.86908         0.00001
  -6566194.44608  -5116506.89608  18825715.85308  18825715.22008         0.00001
  -8537404.01608  -6652521.22708  16438721.02108  16438720.25308         0.00001
 -23438616.96908 -18263847.41308  15905871.02408  15905870.16308         0.00001
 93 04 07 12 24 00.0000000  0  8 11 25 01 28 12 23 15 21
 -18528854.71708 -14438067.74908  16034863.31408  16034863.77308         0.00001
 -21415777.20808 -16687616.12508  15706650.83808  15706649.47808         0.00001
 -25347870.01609 -19751575.20508  15182143.26909  15182142.18708         0.00001
  -3153508.51008  -2457278.92108  18825589.33908  18825588.54708         0.00001
   -955414.46007   -744478.37808  19491997.04807  19491997.77208         0.00001
  -6314193.33708  -4920142.64508  18873670.28108  18873669.65208         0.00001
  -8894692.46908  -6930927.76908  16370731.27108  16370730.44508         0.00001
 -23280192.50708 -18140399.81508  15936018.13808  15936017.26808         0.00001
 93 04 07 12 26 00.0000000  0  8 11 25 01 28 12 23 15 21
 -18353273.08108 -14301250.92308  16068275.41508  16068275.90608         0.00001
 -21735626.37908 -16936849.19208  15645785.54208  15645784.23408         0.00001
 -25178155.67508 -19619330.26508  15214438.83808  15214437.83508         0.00001
  -2823519.19308  -2200144.38407  18888384.07508  18888383.36307         0.00001
   -618192.93807   -481708.66508  19556168.44607  19556169.29108         0.00001
  -6060148.89608  -4722186.26408  18922013.32908  18922012.91108         0.00001
  -9246139.96508  -7204782.93008  16303853.01608  16303852.15708         0.00001
 -23117941.92008 -18013970.81708  15966893.30008  15966892.59208         0.00001
 93 04 07 12 28 00.0000000  0  8 11 25 01 28 12 23 15 21
 -18168511.44508 -14157280.85308  16103434.44408  16103434.89308         0.00001
 -22048837.22208 -17180909.54108  15586183.52508  15586182.17608         0.00001
 -25004495.74708 -19484010.83908  15247485.20808  15247484.23808         0.00001
  -2494960.47707  -1944124.60907  18950906.94807  18950906.09807         0.00001
   -274959.82807   -214254.54807  19621483.45507  19621484.48007         0.00001
  -5804367.80908  -4522876.63408  18970687.04208  18970686.86408         0.00001
  -9591592.21408  -7473966.46308  16238115.60408  16238114.80508         0.00001
 -22951653.82408 -17884395.71208  15998537.01408  15998536.25608         0.00001
 93 04 07 12 30 00.0000000  0  8 11 25 01 28 12 23 15 21
 -17974728.07008 -14006280.86008  16140310.17008  16140310.64508         0.00001
 -22355864.38708 -17420151.44008  15527758.14008  15527756.83608         0.00001
 -24827478.65008 -19346075.43308  15281170.46908  15281169.48908         0.00001
  -2168413.84807  -1689672.68607  19013046.60207  19013045.94607         0.00001
     74105.64807     57744.18007  19687908.79707  19687909.71507         0.00001
  -5546415.70108  -4321875.38608  19019774.01008  19019774.08308         0.00001
  -9930859.20908  -7738330.32008  16173555.21908  16173554.52908         0.00001
 -22781465.59308 -17751781.54508  16030922.74008  16030921.99908         0.00001
 93 04 07 12 32 00.0000000  0  8 11 25 01 28 12 23 15 21
 -17772142.66108 -13848422.14508  16178860.99308  16178861.37508         0.00001
 -22656560.27408 -17654459.86908  15470537.55908  15470536.20308         0.00001
 -24647031.38108 -19205467.16708  15315508.46708  15315507.45908         0.00001
  -1843916.34807  -1436817.49307  19074796.26907  19074795.82307         0.00001
    428766.66807    334103.14207  19755398.65807  19755399.70507         0.00001
  -5286572.21808  -4119400.35108  19069221.15708  19069220.96208         0.00001
 -10263805.66908  -7997769.09708  16110197.62008  16110196.76908         0.00001
 -22607616.91808 -17616315.09808  16064005.08608  16064004.40808         0.00001
 93 04 07 12 34 00.0000000  0  8 11 25 01 28 12 23 15 21
 -17560930.24608 -13683841.06808  16219053.41808  16219053.86508         0.00001
 -22950123.69008 -17883210.52908  15414674.27708  15414672.84608         0.00001
 -24463010.11708 -19062073.97408  15350526.52308  15350525.45408         0.00001
  -1521532.07507  -1185608.97207  19136144.08807  19136143.41007         0.00001
    788835.71107    614676.11607  19823918.09107  19823918.83507         0.00001
  -5025138.48108  -3915686.21908  19118970.67308  19118970.48308         0.00001
 -10590249.37908  -8252140.80708  16048077.41108  16048076.49508         0.00001
 -22429699.25908 -17477678.00708  16097861.80108  16097861.11108         0.00001
 93 04 07 12 36 00.0000000  0  8 11 25 01 15 28 12 23 21
 -17341261.55908 -13512670.68308  16260855.01908  16260855.41108         0.00001
 -23236634.42408 -18106465.59908  15360153.08808  15360151.62608         0.00001
 -24275645.31608 -18916075.42908  15386180.80108  15386179.81508         0.00001
 -10909997.23008  -8501294.97008  15987231.49208  15987230.53608         0.00001
  -1201551.71807   -936273.65207  19197034.98207  19197033.74207         0.00001
   1154134.74608    899324.30807  19893432.59508  19893433.32007         0.00001
  -4761648.89008  -3710370.13607  19169111.10808  19169111.36707         0.00001
 -22247647.48308 -17335819.53108  16132505.09008  16132504.36308         0.00001
 93 04 07 12 38 00.0000000  0  7 11 25 01 15 23 12 21
 -17113335.80708 -13335066.22908  16304227.81308  16304228.24308         0.00001
 -23516226.66808 -18324329.64308  15306948.43808  15306946.92808         0.00001
 -24084888.18708 -18767433.51508  15422480.72108  15422479.74108         0.00001
 -11222884.33708  -8745103.09408  15927690.99508  15927690.11908         0.00001
  -4495852.62008  -3503256.70607  19219691.14608  19219691.14407         0.00001
   1524461.28608   1187890.12406  19963903.68308  19963904.35706         0.00001
 -22061861.51208 -17191051.30308  16167859.02908  16167858.24308         0.00001
 93 04 07 12 40 00.0000000  0  6 11 25 01 15 23 21
 -16877345.75508 -13151177.90908  16349135.16208  16349135.80608         0.00001
 -23788865.46209 -18536775.41208  15255066.94709  15255065.40908         0.00001
 -23891135.61608 -18616457.50308  15459350.59808  15459349.68208         0.00001
 -11528734.02708  -8983427.52208  15869489.70908  15869488.90108         0.00001
  -4228473.99208  -3294910.33208  19270572.11308  19270572.22008         0.00001
 -21872136.81408 -17043213.93308  16203962.57808  16203961.78108         0.00001
 93 04 07 12 42 00.0000000  0  8 11 25 01 15 14 20 23 21
 -16633507.00908 -12961173.71108  16395536.23408  16395536.71608         0.00001
 -24054121.01509 -18743468.00508  15204590.45109  15204588.93008         0.00001
 -23694740.15008 -18463422.08808  15496723.40908  15496722.50008         0.00001
 -11827390.17008  -9216146.58708  15812657.35508  15812656.50008         0.00001
        -0.64517        -0.92217  19139212.64017  19139212.47217         0.00011
        -0.67717        -0.19717  19350341.88717  19350342.64617         0.00011
  -3959209.69207  -3085094.61807  19321811.78307  19321812.18107         0.00001
 -21678356.93508 -16892216.69008  16240837.69508  16240836.90908         0.00001
 93 04 07 12 44 00.0000000  0  7 11 25 01 14 20 15 21
 -16382049.00708 -12765232.44708  16443387.12108  16443387.52108         0.00001
 -24311948.48609 -18944372.49108  15155527.49309  15155526.03808         0.00001
 -23495260.14108 -18307983.14308  15534683.19508  15534682.28308         0.00001
   -356759.47007   -277994.60107  19071323.56107  19071323.56807         0.00001
   -187079.05008   -145775.65207  19314742.02808  19314742.74807         0.00001
 -12118710.89108  -9443149.73808  15757220.85608  15757219.93408         0.00001
 -21480592.11708 -16738114.30808  16278470.97808  16278470.35408         0.00001
 93 04 07 12 46 00.0000000  0  6 11 25 01 20 15 21
 -16123191.06608 -12563524.97808  16492646.14608  16492646.64808         0.00001
 -24561852.96209 -19139103.21608  15107972.20709  15107970.74608         0.00001
 -23293046.66408 -18150414.22608  15573163.15408  15573162.27508         0.00001
   -368865.00607   -287427.14807  19280149.04207  19280149.79407         0.00001
 -12402541.00808  -9664316.05608  15703209.76008  15703208.89308         0.00001
 -21278535.60908 -16580667.75108  16316921.27808  16316920.54208         0.00001
 93 04 07 12 48 00.0000000  0  6 11 25 01 20 15 21
 -15857145.29808 -12356216.60708  16543272.98208  16543273.45508         0.00001
 -24804342.39309 -19328055.98708  15061828.00209  15061826.46308         0.00001
 -23088009.04908 -17990644.68908  15612180.58408  15612179.63508         0.00001
   -545196.41208   -424828.37207  19246594.79008  19246595.42107         0.00001
 -12678716.78908  -9879517.96108  15650655.24808  15650654.35308         0.00001
 -21072636.44708 -16420226.94508  16356102.51108  16356101.97808         0.00001
 93 04 07 12 50 00.0000000  0  7 11 25 01 14 20 15 21
 -15584138.35408 -12143483.94308  16595224.54608  16595224.81508         0.00001
 -25039256.64709 -19511106.03008  15017125.26109  15017123.71308         0.00001
 -22880558.66908 -17828995.08208  15651657.08608  15651656.11908         0.00001
        -0.47217        -0.06517  18866398.68417  18866398.22917         0.00011
   -715923.66508   -557862.70407  19214106.60908  19214107.68607         0.00001
 -12947089.83408 -10088639.81408  15599585.55808  15599584.59008         0.00001
 -20862821.35108 -16256734.77208  16396029.21408  16396028.60608         0.00001
 93 04 07 12 52 00.0000000  0  8 11 01 15 14 20 25 29 21
 -15304430.94808 -11925530.14108  16648451.05308  16648451.51108         0.00001
 -22670947.58108 -17665661.81808  15691544.86308  15691543.88108         0.00001
 -13207544.79108 -10291591.73008  15550022.66208  15550021.76508         0.00001
   -360779.49108   -281126.50908  18797744.71308  18797744.20808         0.00001
   -880931.75108   -686440.55407  19182706.73108  19182707.68207         0.00001
 -25266157.02009 -19687911.49508  14973947.48009  14973946.01408         0.00001
         0.42917         0.22617  19048911.07417  19048910.49817         0.00011
 -20648951.06308 -16090082.71208  16436727.37908  16436726.93308         0.00001
 93 04 07 12 54 00.0000000  0  8 11 01 15 14 20 25 29 21
 -15018248.74008 -11702531.03008  16702909.76108  16702910.27908         0.00001
 -22458982.22708 -17500494.06408  15731880.54608  15731879.60508         0.00001
 -13459932.68308 -10488257.61308  15501994.77008  15501994.06108         0.00001
   -722705.08608   -563146.32708  18728872.35708  18728871.86608         0.00001
  -1040069.37508   -810443.99107  19152423.74708  19152424.44607         0.00001
 -25484868.94109 -19858336.35608  14932328.04209  14932326.49608         0.00001
   -334950.59507   -261000.47906  18985171.95307  18985171.10906         0.00001
 -20430893.29008 -15920167.69608  16478222.55608  16478222.09608         0.00001
 93 04 07 12 56 00.0000000  0  8 11 01 15 14 20 25 29 21
 -14725776.92608 -11474630.94608  16758565.40208  16758565.75008         0.00001
 -22244586.83708 -17333432.78508  15772678.71108  15772677.73008         0.00001
 -13704064.64008 -10678490.31108  15455538.02208  15455537.22708         0.00001
  -1085805.41608   -846081.47808  18659776.64208  18659775.91908         0.00001
  -1193148.91007   -929726.78307  19123293.37407  19123294.62307         0.00001
 -25695375.35809 -20022367.31608  14892270.01009  14892268.39508         0.00001
   -667825.21207   -520383.19007  18921827.98807  18921827.06307         0.00001
 -20209112.14108 -15747351.35708  16520426.13108  16520425.59608         0.00001
 93 04 07 12 58 00.0000000  0  8 11 01 14 20 25 29 15 21
 -14427225.97008 -11241993.85208  16815377.60608  16815378.17308         0.00001
 -22028088.90508 -17164733.17508  15813876.96208  15813876.02208         0.00001
  -1449876.09808  -1129772.77208  18590496.08708  18590495.56008         0.00001
  -1340005.38007  -1044160.50307  19095348.04207  19095348.89707         0.00001
 -25897903.10309 -20180181.14208  14853730.19209  14853728.62608         0.00001
   -998163.23107   -777789.38407  18858966.83807  18858965.83807         0.00001
 -13939778.74108 -10862163.64808  15410683.21108  15410682.35408         0.00001
 -19983074.18308 -15571218.04808  16563439.86608  16563439.41008         0.00001
 93 04 07 13 00 00.0000000  0  8 11 01 14 20 25 29 15 21
 -14122853.51308 -11004820.52508  16873297.71808  16873298.43608         0.00001
 -21809558.67908 -16994449.97208  15855461.84808  15855460.95608         0.00001
  -1814747.12108  -1414087.73208  18521063.39208  18521062.95808         0.00001
  -1480523.98507  -1153655.62707  19068608.27707  19068609.11707         0.00001
 -26092070.42309 -20331480.36108  14816781.42409  14816779.93308         0.00001
  -1325900.97507  -1033169.38307  18796600.24607  18796599.57707         0.00001
 -14166960.59408 -11039188.48308  15367451.82308  15367451.08708         0.00001
 -19753093.68408 -15392012.64508  16607203.92608  16607203.44808         0.00001
 93 04 07 13 02 00.0000000  0  8 11 01 14 20 25 29 15 21
 -13812894.56008 -10763294.09208  16932281.03508  16932281.63208         0.00001
 -21589090.96408 -16822657.03908  15897415.57308  15897414.63808         0.00001
  -2180455.09708  -1699054.89808  18451471.56708  18451470.85208         0.00001
  -1614570.54708  -1258107.58707  19043100.11508  19043101.10507         0.00001
 -26277820.65009 -20476220.81408  14781434.38009  14781432.80108         0.00001
  -1651242.40508  -1286682.13007  18734689.96808  18734688.91907         0.00001
 -14385477.02508 -11209461.03708  15325869.60108  15325868.69608         0.00001
 -19519062.76108 -15209651.10708  16651738.50908  16651738.20008         0.00001
 93 04 07 13 04 00.0000000  0  8 01 11 14 20 25 29 15 21
 -21366839.83908 -16649474.44908  15939708.66308  15939707.72808         0.00001
 -13497561.42508 -10517579.99608  16992287.02508  16992287.54108         0.00001
  -2546894.57808  -1984592.07808  18381740.28408  18381739.75008         0.00001
  -1741986.91908  -1357393.19407  19018853.53508  19018854.83707         0.00001
 -26454871.73209 -20614182.71308  14747742.61209  14747741.15608         0.00001
  -1974167.21308  -1538311.77507  18673239.25108  18673238.28607         0.00001
 -14595176.55408 -11372863.28108  15285965.09308  15285964.26908         0.00001
 -19280984.47308 -15024135.78508  16697043.51908  16697043.32208         0.00001
 93 04 07 13 06 00.0000000  0  8 15 11 14 20 25 29 01 21
 -14795960.73608 -11529318.51108  15247757.19708  15247756.31508         0.00001
 -13177119.08108 -10267884.70508  17053265.11508  17053265.73508         0.00001
  -2914144.81008  -2270761.01908  18311854.64008  18311854.26608         0.00001
  -1862672.02808  -1451433.70207  18995888.00608  18995889.31007         0.00001
 -26623386.59309 -20745493.02608  14715675.37609  14715673.89608         0.00001
  -2294711.35308  -1788086.37008  18612241.65108  18612240.76508         0.00001
 -21142651.80308 -16474782.59708  15982370.31508  15982369.51808         0.00001
 -19038684.97508 -14835331.21408  16743151.71808  16743151.65008         0.00001
 93 04 07 13 08 00.0000000  0  8 15 11 14 20 25 29 01 21
 -14987687.96408 -11678716.38208  15211272.73808  15211271.80808         0.00001
 -12851783.56208 -10014376.54008  17115174.40908  17115174.98308         0.00001
  -3281915.88708  -2557335.82908  18241870.18708  18241869.68508         0.00001
  -1976479.69108  -1540115.12908  18974231.43108  18974232.66208         0.00001
 -26783344.55609 -20870135.62508  14685236.44809  14685234.96808         0.00001
  -2612931.08108  -2036049.74508  18551686.55808  18551685.45808         0.00001
 -20916820.21608 -16298810.06408  16025344.74608  16025343.93408         0.00001
 -18792307.12108 -14643348.71908  16790036.16208  16790035.86008         0.00001
 93 04 07 13 10 00.0000000  0  8 15 11 14 20 25 29 01 21
 -15170260.70308 -11820980.88908  15176530.28208  15176529.45208         0.00001
 -12521812.04308  -9757255.89708  17177965.85308  17177966.54608         0.00001
  -3650457.07708  -2844510.73908  18171739.15008  18171738.52808         0.00001
  -2083307.66608  -1623357.83807  18953902.67408  18953903.83807         0.00001
 -26934534.03109 -20987945.64308  14656466.02509  14656464.56508         0.00001
  -2928809.60108  -2282188.77708  18491576.80608  18491575.92508         0.00001
 -20689292.10308 -16121515.57408  16068641.93908  16068641.16008         0.00001
 -18542010.44008 -14448312.60508  16837666.20308  16837666.10608         0.00001
 93 04 07 13 12 00.0000000  0  8 15 01 11 14 20 25 29 21
 -15343590.24408 -11956042.91108  15143546.80908  15143546.04108         0.00001
 -20460149.79908 -15942963.28208  16112246.40608  16112245.75508         0.00001
 -12187464.42708  -9496725.32108  17241590.10408  17241590.87908         0.00001
  -4019666.02408  -3132205.98308  18101480.83708  18101480.35308         0.00001
  -2183059.41408  -1701086.61107  18934920.85408  18934921.91407         0.00001
 -27077158.99409 -21099082.02708  14629325.45109  14629323.99608         0.00001
  -3242039.76108  -2526264.17008  18431970.99008  18431970.08708         0.00001
 -18287574.27208 -14250050.93808  16886084.00408  16886084.07708         0.00001
 93 04 07 13 14 00.0000000  0  8 15 01 11 14 20 25 29 21
 -15507577.72708 -12083825.42008  15112341.14108  15112340.29708         0.00001
 -20229767.76908 -15763444.98608  16156086.79008  16156086.12108         0.00001
 -11848986.70008  -9232976.47008  17306000.56908  17306001.09408         0.00001
  -4389201.81808  -3420155.98108  18031160.62408  18031159.87508         0.00001
  -2275629.25808  -1773219.11607  18917305.22708  18917306.88107         0.00001
 -27210805.41809 -21203222.15108  14603893.40009  14603891.93308         0.00001
  -3552838.04808  -2768444.59208  18372827.85408  18372827.19808         0.00001
 -18029287.81008 -14048789.04808  16935234.57808  16935234.61008         0.00001
 93 04 07 13 16 00.0000000  0  8 15 01 11 14 20 25 29 21
 -15662142.47808 -12204265.54808  15082928.38908  15082927.69108         0.00001
 -19997911.46508 -15582777.90408  16200207.63708  16200207.18508         0.00001
 -11506637.51908  -8966210.93408  17371147.48408  17371147.90008         0.00001
  -4759337.17108  -3708573.22108  17960726.21708  17960725.59008         0.00001
  -2360927.19108  -1839685.21807  18901073.90508  18901075.19707         0.00001
 -27335468.43309 -21300362.22408  14580170.89409  14580169.44908         0.00001
  -3861497.96808  -3008958.76908  18314092.03108  18314090.99208         0.00001
 -17767013.18608 -13844419.52108  16985144.11508  16985144.06608         0.00001
 93 04 07 13 18 00.0000000  0  8 15 01 11 14 20 25 29 21
 -15807174.07508 -12317277.24508  15055329.93808  15055329.20808         0.00001
 -19764909.63808 -15401218.21808  16244546.57808  16244546.07708         0.00001
 -11160640.18208  -8696602.66408  17436988.55008  17436989.11108         0.00001
  -5129758.86808  -3997213.55108  17890237.56008  17890236.75308         0.00001
  -2438836.20607  -1900393.73007  18886248.29307  18886249.60807         0.00001
 -27451257.91309 -21390587.85909  14558136.93909  14558135.53309         0.00001
  -4167696.45508  -3247554.96508  18255824.38508  18255823.32908         0.00001
 -17500281.99608 -13636577.34908  17035901.56708  17035901.64208         0.00001
 93 04 07 13 20 00.0000000  0  8 15 01 11 14 20 25 29 21
 -15942622.22908 -12422821.34108  15029555.09008  15029554.34308         0.00001
 -19530957.14608 -15218917.75708  16289066.46608  16289065.93008         0.00001
 -10811271.12208  -8424367.10508  17503471.43808  17503472.07208         0.00001
  -5500594.01708  -4286176.03808  17819670.03408  17819669.29208         0.00001
  -2509293.67607  -1955295.83008  18872840.80707  18872842.28008         0.00001
 -27558147.24909 -21473878.31809  14537796.63709  14537795.29509         0.00001
  -4471208.94108  -3484058.18808  18198067.78908  18198066.75608         0.00001
 -17229540.84408 -13425610.53608  17087422.00308  17087422.25108         0.00001
 93 04 07 13 22 00.0000000  0  8 15 11 14 20 25 29 01 21
 -16068375.19208 -12520810.74208  15005625.06308  15005624.36508         0.00001
 -10458740.47308  -8149667.96108  17570555.47608  17570556.39008         0.00001
  -5871680.42508  -4575334.35408  17749054.81508  17749054.05808         0.00001
  -2572175.99408  -2004295.20108  18860874.80408  18860876.63008         0.00001
 -27655949.57509 -21550087.99309  14519185.50909  14519184.12409         0.00001
  -4772211.65408  -3718605.74508  18140788.80808  18140787.82008         0.00001
 -19295744.52408 -15035635.38808  16333825.95308  16333825.54508         0.00001
 -16955322.14508 -13211933.98308  17139604.26608  17139604.77208         0.00001
 93 04 07 13 24 00.0000000  0  8 01 11 14 20 25 29 15 21
 -19059299.26308 -14851392.52708  16378820.28608  16378819.76808         0.00001
 -10103323.74408  -7872719.94008  17638189.29608  17638190.06308         0.00001
  -6243055.89508  -4864717.93508  17678384.29308  17678383.67108         0.00001
  -2627433.14408  -2047352.87208  18850359.79508  18850361.57508         0.00001
 -27744890.91009 -21619392.99709  14502260.60209  14502259.23209         0.00001
  -5071243.31008  -3951617.43308  18083884.93208  18083884.01608         0.00001
 -16184395.31908 -12611216.11608  14983547.31108  14983546.54608         0.00001
 -16677130.08508 -12995161.32408  17192542.75708  17192543.26308         0.00001
 93 04 07 13 26 00.0000000  0  8 01 11 14 20 25 29 15 21
 -18821843.21408 -14666362.03908  16424006.81908  16424006.55708         0.00001
  -9745256.16708  -7593706.32808  17706327.16208  17706328.06908         0.00001
  -6614577.05808  -5154215.05608  17607686.23008  17607685.66408         0.00001
  -2674977.92908  -2084400.90108  18841312.82808  18841314.09708         0.00001
 -27824945.00609 -21681772.88309  14487026.83409  14487025.45309         0.00001
  -5367842.60408  -4182733.77308  18027444.10208  18027443.08408         0.00001
 -16290610.77008 -12693981.47708  14963335.20108  14963334.53408         0.00001
 -16394975.75308 -12775301.17908  17246235.16008  17246235.86108         0.00001
 93 04 07 13 28 00.0000000  0  8 01 11 14 20 25 29 15 21
 -18583673.61408 -14480775.55408  16469329.09108  16469328.81408         0.00001
  -9384812.97908  -7312841.59608  17774917.54808  17774918.21708         0.00001
  -6986065.57608  -5443686.71708  17536994.35008  17536993.85708         0.00001
  -2714772.67007  -2115409.96508  18833739.91707  18833741.68708         0.00001
 -27895421.86009 -21736689.99809  14473615.61209  14473614.28309         0.00001
  -5661913.22508  -4411879.73808  17971484.37008  17971483.32208         0.00001
 -16386997.92708 -12769088.44808  14944993.43508  14944992.72308         0.00001
 -16108784.88208 -12552295.69208  17300695.82708  17300696.47108         0.00001
 93 04 07 13 30 00.0000000  0  8 01 11 14 20 25 29 15 21
 -18344579.58808 -14294468.73108  16514827.29108  16514827.17208         0.00001
  -9022210.95108  -7030294.66108  17843918.48508  17843919.28308         0.00001
  -7357568.45808  -5733169.57008  17466299.72208  17466299.15808         0.00001
  -2746725.02507  -2140308.08407  18827659.86907  18827661.47007         0.00001
 -27957264.07109 -21784878.80109  14461847.49009  14461846.14509         0.00001
  -5953684.36808  -4639233.92708  17915962.16808  17915961.28308         0.00001
 -16473481.12608 -12836478.02808  14928536.28408  14928535.61608         0.00001
 -15818796.26308 -12326330.93708  17355879.15208  17355879.79108         0.00001
 93 04 07 13 32 00.0000000  0  8 01 11 14 20 25 29 15 21
 -18104574.89608 -14107452.32308  16560498.87708  16560498.70308         0.00001
  -8657689.67608  -6746252.21208  17913284.51508  17913285.50508         0.00001
  -7729200.01608  -6022752.70808  17395580.77208  17395580.24408         0.00001
  -2770772.38907  -2159046.50508  18823084.03307  18823085.96008         0.00001
 -28010084.81109 -21826037.90108  14451796.03109  14451794.70408         0.00001
  -6242991.72308  -4864668.30808  17860908.86008  17860907.75108         0.00001
 -16550016.92108 -12896116.39008  14913972.00008  14913971.43908         0.00001
 -15525006.40008 -12097404.17608  17411785.74408  17411786.61608         0.00001
 93 04 07 13 34 00.0000000  0  8 11 14 20 25 29 01 15 21
  -8291498.43008  -6460908.48208  17982968.57908  17982969.28108         0.00001
  -8100661.98608  -6312203.68808  17324893.98908  17324893.46908         0.00001
  -2786869.09307  -2171589.63007  18820021.00507  18820022.87007         0.00001
 -28053992.98409 -21860252.14809  14443440.67909  14443439.45909         0.00001
  -6529778.67008  -5088138.73308  17806335.23208  17806334.12508         0.00001
 -17863750.90308 -13919797.48908  16606326.32008  16606326.22608         0.00001
 -16616578.81408 -12947982.88808  14901305.78008  14901305.18508         0.00001
 -15227363.77808 -11865475.29108  17468425.52708  17468426.50508         0.00001
 93 04 07 13 36 00.0000000  0  8 11 14 20 25 29 01 15 21
  -7923861.37908  -6174438.23608  18052927.58108  18052928.31708         0.00001
  -8471679.45808  -6601308.33008  17254291.76908  17254291.28708         0.00001
  -2794952.44707  -2177888.58407  18818482.89307  18818484.60507         0.00001
 -28088827.56009 -21887396.06109  14436812.00309  14436810.75009         0.00001
  -6814308.72108  -5309850.55108  17752191.01008  17752189.99608         0.00001
 -17622308.14808 -13731660.51008  16652271.53808  16652271.45008         0.00001
 -16673124.21708 -12992044.33108  14890545.63308  14890545.08308         0.00001
 -14926259.26908 -11630848.83508  17525724.28908  17525725.51708         0.00001
 93 04 07 13 38 00.0000000  0  8 11 14 20 25 29 01 15 21
  -7555021.13708  -5887030.41208  18123115.70708  18123116.72208         0.00001
  -8842394.54108  -6890177.31208  17183747.12908  17183746.77408         0.00001
  -2794982.21407  -2177912.02107  18818477.20207  18818479.47507         0.00001
 -28114331.56009 -21907269.39508  14431958.78509  14431957.51408         0.00001
  -7096641.22408  -5529850.03608  17698464.94708  17698463.98508         0.00001
 -17380344.23108 -13543117.44208  16698315.83108  16698315.85708         0.00001
 -16719635.81808 -13028287.23108  14881694.82208  14881694.26508         0.00001
 -14621418.72008 -11393311.22908  17583734.10408  17583734.98308         0.00001
 93 04 07 13 40 00.0000000  0  8 11 14 20 25 29 01 15 21
  -7185224.90008  -5598877.66908  18193485.86508  18193486.94508         0.00001
  -9212760.20108  -7178773.99608  17113268.97308  17113268.59208         0.00001
  -2786933.34907  -2171640.46107  18820009.27907  18820011.35907         0.00001
 -28131084.57609 -21920323.77408  14428770.84109  14428769.61508         0.00001
  -7376596.61908  -5747997.20008  17645191.34308  17645190.35108         0.00001
 -17137666.65108 -13354018.27008  16744496.03208  16744496.05908         0.00001
 -16756113.22808 -13056711.28908  14874753.52408  14874753.02408         0.00001
 -14312730.09108 -11152775.09708  17642475.69208  17642476.93108         0.00001
 93 04 07 13 42 00.0000000  0  8 11 14 20 25 29 01 15 21
  -6814704.17008  -5310160.42707  18263993.92408  18263994.54507         0.00001
  -9582469.77708  -7466859.44708  17042915.74108  17042915.10908         0.00001
  -2770771.36208  -2159047.00307  18823085.07208  18823087.08407         0.00001
 -28139006.18809 -21926496.54808  14427263.51209  14427262.30208         0.00001
  -7654282.30008  -5964375.78408  17592349.48808  17592348.58408         0.00001
 -16894574.85208 -13164596.35308  16790755.20208  16790755.24908         0.00001
 -16782546.59508 -13077308.82808  14869723.50008  14869723.02608         0.00001
 -14000195.06108 -10909241.81408  17701949.39608  17701950.95408         0.00001
 93 04 07 13 44 00.0000000  0  8 11 14 20 25 29 01 15 21
  -6443686.32108  -5021055.78607  18334596.09508  18334597.14107         0.00001
  -9951661.33408  -7754541.25908  16972660.75508  16972660.37808         0.00001
  -2746465.69008  -2140107.86508  18827710.55208  18827712.81008         0.00001
 -28137781.37809 -21925542.24708  14427496.68809  14427495.49008         0.00001
  -7929687.41208  -6178977.30508  17539941.68208  17539940.88908         0.00001
 -16650974.52608 -12974778.17508  16837110.94208  16837111.12508         0.00001
 -16798931.28908 -13090076.24008  14866605.64608  14866605.19208         0.00001
 -13684280.09908 -10663074.82608  17762066.90008  17762068.02508         0.00001
 93 04 07 13 46 00.0000000  0  8 11 14 20 25 29 01 15 21
  -6072416.85308  -4731755.04007  18405246.39508  18405247.65107         0.00001
 -10320207.00008  -8041719.78708  16902528.96308  16902528.62808         0.00001
  -2714011.43208  -2114819.14008  18833886.54108  18833888.78608         0.00001
 -28127812.87309 -21917774.67208  14429393.71609  14429392.51508         0.00001
  -8202746.81308  -6391750.99108  17487980.37808  17487979.50008         0.00001
 -16406943.18408 -12784624.14108  16883548.72908  16883549.03908         0.00001
 -16805290.96708 -13095031.95708  14865395.64008  14865395.08008         0.00001
 -13364611.64208 -10413983.03508  17822898.06608  17822899.45908         0.00001
 93 04 07 13 48 00.0000000  0  8 11 14 20 25 29 01 15 21
  -5701140.28308  -4442448.84507  18475898.35408  18475899.32407         0.00001
 -10687959.25108  -8328280.08508  16832548.23008  16832547.74108         0.00001
  -2673411.44408  -2083183.09208  18841612.69408  18841615.11608         0.00001
 -28108994.34609 -21903110.98108  14432974.78809  14432973.66808         0.00001
  -8473596.69408  -6602802.95808  17436439.46108  17436438.62408         0.00001
 -16162228.40508 -12593937.57408  16930116.54608  16930116.91308         0.00001
 -16801657.69108 -13092200.95708  14866087.04208  14866086.60408         0.00001
 -13041623.44608 -10162304.47208  17884360.84308  17884362.58808         0.00001
 93 04 07 13 50 00.0000000  0  8 11 14 20 25 29 01 15 21
  -5330065.15208  -4153299.62407  18546511.78508  18546512.81107         0.00001
 -11054459.22208  -8613864.57708  16762805.49808  16762805.20908         0.00001
  -2624639.64108  -2045179.36808  18850894.14908  18850896.43708         0.00001
 -28081593.29809 -21881759.61009  14438189.05109  14438188.02009         0.00001
  -8742338.70708  -6812212.41608  17385299.59908  17385298.92508         0.00001
 -15917179.58208 -12402990.71608  16976748.07508  16976748.44408         0.00001
 -16788036.36008 -13081587.04508  14868679.23408  14868678.84308         0.00001
 -12715056.39308  -9907837.18708  17946504.78908  17946506.58808         0.00001
 93 04 07 13 52 00.0000000  0  8 11 14 20 25 29 01 15 21
  -4959418.37607  -3864484.16507  18617043.43507  18617044.73907         0.00001
 -11419959.38208  -8898669.96808  16693253.16608  16693252.97108         0.00001
  -2567697.84207  -2000809.44507  18861729.94907  18861732.35407         0.00001
 -28045226.67309 -21853422.08009  14445109.55309  14445108.48509         0.00001
  -9008881.25608  -7019908.02008  17334578.28208  17334577.72508         0.00001
 -15671971.57808 -12211919.82908  17023409.76208  17023410.09908         0.00001
 -16764461.83708 -13063217.40508  14873165.38108  14873165.08408         0.00001
 -12385138.67608  -9650759.02608  18009286.47708  18009288.54708         0.00001
 93 04 07 13 54 00.0000000  0  8 11 14 20 25 29 01 15 21
  -4589423.68607  -3576176.79407  18687451.51407  18687452.68907         0.00001
 -11784687.20608  -9182873.55008  16623847.92808  16623847.77608         0.00001
  -2502591.65507  -1950077.64507  18874119.37207  18874121.95207         0.00001
 -28000453.69109 -21818534.14608  14453629.60409  14453628.53508         0.00001
  -9272975.88508  -7225696.11808  17284322.86208  17284322.20108         0.00001
 -15426465.18908 -12020616.43208  17070128.12208  17070128.63708         0.00001
 -16730972.08108 -13037121.62208  14879538.27908  14879537.97508         0.00001
 -12052159.29208  -9391295.17408  18072650.83308  18072653.07608         0.00001
 93 04 07 13 56 00.0000000  0  8 11 14 20 25 29 01 15 21
  -4220300.29607  -3288548.41307  18757693.45007  18757694.38807         0.00001
 -12148085.70708  -9466041.30608  16554695.35008  16554695.22808         0.00001
  -2429331.31307  -1892991.98607  18888060.66607  18888063.32207         0.00001
 -27947171.64209 -21777015.77108  14463768.90109  14463767.80908         0.00001
  -9534953.59708  -7429834.68308  17234470.37808  17234469.62708         0.00001
 -15180679.57408 -11829095.46708  17116899.98208  17116900.47208         0.00001
 -16687613.87108 -13003336.13808  14887789.27508  14887788.86408         0.00001
 -11715761.80208  -9129167.88108  18136665.61808  18136668.04108         0.00001
 93 04 07 13 58 00.0000000  0  8 11 14 20 25 29 01 15 21
  -3852275.64207  -3001776.19007  18827726.18907  18827727.75207         0.00001
 -12509975.35308  -9748033.31908  16485830.26508  16485830.12308         0.00001
  -2347943.73007  -1829573.42708  18903548.42007  18903551.24008         0.00001
 -27885297.03409 -21728801.90408  14475543.24509  14475542.29808         0.00001
  -9794892.28908  -7632384.40708  17185005.63908  17185004.97808         0.00001
 -14934646.45508 -11637381.67108  17163718.82508  17163719.50108         0.00001
 -16634450.65208 -12961910.39408  14897905.96808  14897905.71208         0.00001
 -11375814.59208  -8864274.60808  18201356.01608  18201358.65808         0.00001
 93 04 07 14 00 00.0000000  0  8 14 11 20 25 29 01 15 21
 -12870410.13808 -10028891.68708  16417241.89808  16417241.86408         0.00001
  -3485555.15106  -2716020.15506  18897511.09806  18897512.57906         0.00001
  -2258442.98807  -1759832.83707  18920580.27507  18920582.81707         0.00001
 -27814834.23409 -21673895.94008  14488951.97709  14488951.06808         0.00001
 -10052557.41808  -7833162.47708  17135973.64908  17135973.02808         0.00001
 -14688377.16308 -11445483.83008  17210582.52908  17210583.14808         0.00001
 -16571532.36108 -12912883.30008  14909879.00708  14909878.80208         0.00001
 -11033000.88008  -8597147.72608  18266591.46408  18266594.35508         0.00001
 93 04 07 14 02 00.0000000  0  8 14 11 20 25 29 01 15 21
 -13229320.36608 -10308562.05808  16348943.66308  16348943.63508         0.00001
  -3120339.65406  -2431436.84306  18967009.47406  18967011.11806         0.00001
  -2160845.58307  -1683783.10807  18939152.25107  18939155.12307         0.00001
 -27736090.47509 -21612537.27508  14503936.52009  14503935.63208         0.00001
 -10308168.17208  -8032339.69908  17087332.42208  17087331.92708         0.00001
 -14441934.44808 -11253450.87008  17257479.34608  17257480.00408         0.00001
 -16498915.51008 -12856298.87108  14923697.63508  14923697.45608         0.00001
 -10686840.41008  -8327412.97008  18332464.24908  18332466.98508         0.00001
 93 04 07 14 04 00.0000000  0  7 14 29 20 01 21 25 15
 -13586311.38208 -10586736.97308  16281010.59108  16281010.47508         0.00001
 -10561865.98908  -8230026.22708  17039055.38308  17039054.75908         0.00001
  -2055177.35508  -1601444.42207  18959260.39508  18959263.17607         0.00001
 -14195323.26908 -11061286.66008  17304408.18608  17304408.90908         0.00001
 -10337586.91608  -8055268.09808  18398925.64808  18398928.62008         0.00001
 -27649164.46109 -21544802.83008  14520478.12009  14520477.18608         0.00001
 -16416665.60908 -12792208.17808  14939349.45008  14939349.26208         0.00001
 93 04 07 14 06 00.0000000  0  7 14 20 25 29 01 15 21
 -13941332.61308 -10863376.98908  16213452.29408  16213452.23208         0.00001
  -1941476.65208  -1512846.73208  18980897.41308  18980900.03608         0.00001
 -27554033.90709 -21470675.24308  14538581.01909  14538580.07208         0.00001
 -10813438.28008  -8426056.55208  16991182.90608  16991182.16708         0.00001
 -13948611.09108 -10869043.73608  17351355.94408  17351357.03808         0.00001
 -16324864.04108 -12720674.63108  14956818.75408  14956818.65208         0.00001
  -9985367.45108  -7780812.13908  18465951.32308  18465954.59708         0.00001
 93 04 07 14 08 00.0000000  0  8 14 22 20 29 25 01 15 21
 -14294765.54808 -11138779.35708  16146196.32708  16146196.31308         0.00001
        -0.40318        -0.75818  17648499.54918  17648500.93118         0.00011
  -1819781.64908  -1418019.70508  19004055.19908  19004058.40108         0.00001
 -11062896.54108  -8620439.62708  16943712.55708  16943711.73308         0.00001
 -27450559.76809 -21390046.16708  14558271.58209  14558270.69408         0.00001
 -13701668.40308 -10676621.19308  17398347.98108  17398348.95208         0.00001
 -16223591.57108 -12641761.16108  14976090.35908  14976090.30008         0.00001
  -9630352.96508  -7504178.24307  18533509.19108  18533512.24207         0.00001
 93 04 07 14 10 00.0000000  0  8 15 14 22 20 29 25 01 21
 -16112962.06508 -12555556.49808  14997142.58708  14997142.53008         0.00001
 -14646178.38808 -11412607.62708  16079324.74908  16079324.68008         0.00001
   -376014.39208   -292998.62808  17576946.36508  17576947.95508         0.00001
  -1690163.93808  -1317019.08608  19028720.87308  19028723.83708         0.00001
 -11310235.16708  -8813171.03308  16896645.52108  16896644.80408         0.00001
 -27339153.20409 -21303235.97808  14579471.59509  14579470.80108         0.00001
 -13454803.16908 -10484259.00608  17445325.22208  17445326.10408         0.00001
  -9272554.03708  -7225374.69007  18601596.60808  18601600.01707         0.00001
 93 04 07 14 12 00.0000000  0  8 15 14 22 20 29 25 01 21
 -15993063.10208 -12462128.89208  15019958.72708  15019958.75708         0.00001
 -14994856.78008 -11684305.15608  16012973.52008  16012973.46508         0.00001
   -750781.30408   -585024.74908  17505630.61208  17505631.94308         0.00001
  -1552664.79408  -1209877.03708  19054886.17008  19054889.05108         0.00001
 -11555697.61008  -9004440.49608  16849935.54208  16849934.82808         0.00001
 -27220129.68509 -21210490.49808  14602121.03009  14602120.24208         0.00001
 -13207595.33408 -10291629.88208  17492367.58608  17492368.75108         0.00001
  -8911655.86807  -6944156.15007  18670273.69907  18670277.36507         0.00001
 93 04 07 14 14 00.0000000  0  8 15 14 22 20 29 25 01 21
 -15863973.34308 -12361539.62208  15044523.74108  15044523.86708         0.00001
 -15341350.14808 -11954300.06108  15947038.13408  15947038.13508         0.00001
  -1124071.49408   -875900.15008  17434595.94608  17434597.22108         0.00001
  -1407319.23407  -1096620.92908  19082544.40707  19082547.63408         0.00001
 -11799107.75108  -9194110.70708  16803616.15508  16803615.40108         0.00001
 -27093288.85609 -21111653.61008  14626258.10709  14626257.41408         0.00001
 -12960430.27308 -10099034.11708  17539401.77808  17539403.16108         0.00001
  -8547968.68107  -6660764.37107  18739481.41207  18739485.70607         0.00001
 93 04 07 14 16 00.0000000  0  8 15 22 14 20 29 01 25 21
 -15725813.13708 -12253882.47308  15070814.92008  15070814.94308         0.00001
  -1495687.32708  -1165470.87608  17363879.82308  17363880.99008         0.00001
 -15685547.25108 -12222505.65908  15881539.63808  15881539.60108         0.00001
  -1254200.13807   -977307.52607  19111682.46707  19111685.38607         0.00001
 -12040440.93108  -9382162.55208  16757691.96708  16757691.23608         0.00001
 -12713083.61308  -9906296.83508  17586470.56908  17586471.84608         0.00001
 -26958603.96909 -21006704.47208  14651887.93309  14651887.22508         0.00001
  -8181726.62607  -6375381.83107  18809175.87107  18809180.00207         0.00001
 93 04 07 14 18 00.0000000  0  8 14 22 29 20 01 25 15 21
 -16027013.34508 -12488583.19808  15816560.76908  15816560.74808         0.00001
  -1865419.85508  -1453574.11608  17293522.11108  17293523.29708         0.00001
 -12279620.41008  -9568536.22908  16712177.66708  16712177.01208         0.00001
  -1093372.15207   -851987.11107  19142286.98107  19142290.27907         0.00001
 -12465508.46308  -9713381.51408  17633582.86208  17633584.25408         0.00001
 -26816551.33509 -20896014.22808  14678919.78009  14678919.10408         0.00001
 -15578694.70908 -12139244.89708  15098810.72308  15098810.87708         0.00001
  -7813016.67707  -6088076.34507  18879339.73107  18879344.10407         0.00001
 93 04 07 14 20 00.0000000  0  8 14 22 29 20 01 25 15 21
 -16365431.89308 -12752286.02508  15752161.99708  15752162.07808         0.00001
  -2233055.29608  -1740043.28908  17223563.18208  17223564.55608         0.00001
 -12516910.80708  -9753437.88608  16667022.75108  16667022.10708         0.00001
   -924904.28506   -720713.58207  19174344.89406  19174348.47007         0.00001
 -12218048.53408  -9520555.95808  17680673.17908  17680674.57808         0.00001
 -26667103.41809 -20779561.43208  14707358.90609  14707358.24808         0.00001
 -15422737.40008 -12017719.89408  15128488.55408  15128488.78908         0.00001
  -7441676.45407  -5798721.28207  18950004.13307  18950008.74507         0.00001
 93 04 07 14 22 00.0000000  0  8 22 14 29 20 01 25 15 21
  -2598392.78008  -2024721.87408  17154041.73508  17154043.24708         0.00001
 -16700806.72908 -13013617.13008  15688342.27408  15688342.36308         0.00001
 -12752393.15308  -9936930.66908  16622211.99808  16622211.33408         0.00001
   -748884.36006   -583555.22907  19207841.12206  19207844.11707         0.00001
 -11970410.32808  -9327591.51208  17727797.44608  17727798.90608         0.00001
 -26509983.06509 -20657130.11908  14737257.95109  14737257.32908         0.00001
 -15258074.52808 -11889411.29908  15159823.02108  15159823.21708         0.00001
  -7067702.33907  -5507314.00907  19021170.16807  19021174.97707         0.00001
 93 04 07 14 24 00.0000000  0  7 22 14 29 20 01 15 25
  -2961189.51008  -2307420.60808  17085003.84908  17085005.37808         0.00001
 -17033140.19408 -13272578.35608  15625101.34808  15625101.56908         0.00001
 -12985989.26508 -10118953.72008  16577760.24408  16577759.56708         0.00001
   -565360.82006   -440549.99006  19242764.02706  19242767.40406         0.00001
 -11722828.46008  -9134670.98508  17774910.89708  17774912.56508         0.00001
 -15084806.93408 -11754397.74308  15192794.85308  15192795.10208         0.00001
 -26345626.85009 -20529060.47108  14768534.01009  14768533.43508         0.00001
 93 04 07 14 26 00.0000000  0  7 22 14 29 01 20 15 25
  -3321243.99808  -2587982.48208  17016487.68008  17016489.26408         0.00001
 -17362171.96808 -13528966.80808  15562488.69908  15562488.93308         0.00001
 -13217641.58408 -10299462.13808  16533678.28108  16533677.83008         0.00001
 -11475094.60408  -8941632.00208  17822053.45508  17822055.22608         0.00001
   -374431.02706   -291773.61907  19279097.01906  19279100.21507         0.00001
 -14903082.86608 -11612794.71508  15227375.84808  15227376.24908         0.00001
 -26174159.76709 -20395449.89108  14801163.19809  14801162.65808         0.00001
 93 04 07 14 28 00.0000000  0  7 22 14 29 01 20 15 25
  -3678364.13308  -2866257.81008  16948529.92508  16948531.33208         0.00001
 -17687971.08408 -13782836.30808  15500491.26108  15500491.42208         0.00001
 -13447302.72108 -10478418.95008  16489975.33708  16489974.85808         0.00001
 -11227200.83108  -8748468.42408  17869226.34208  17869228.27108         0.00001
   -176205.17907   -137311.98606  19316818.75307  19316821.27506         0.00001
 -14713061.33408 -11464726.13608  15263535.94808  15263536.27108         0.00001
 -25995936.60609 -20256574.83908  14835078.05909  14835077.54908         0.00001
 93 04 07 14 30 00.0000000  0  7 22 14 29 01 20 15 25
  -4032371.98808  -3142107.96608  16881164.37608  16881165.76808         0.00001
 -18010237.08208 -14033952.72108  15439166.08108  15439166.26708         0.00001
 -13675037.93608 -10655875.03608  16446638.77608  16446638.39108         0.00001
 -10979179.18508  -8555205.21508  17916423.72808  17916425.66608         0.00001
     29187.46206     22734.20406  19355903.23706  19355906.66706         0.00001
 -14514923.70808 -11310333.34308  15301240.37508  15301240.68908         0.00001
 -25810825.60509 -20112332.64408  14870303.60009  14870303.14508         0.00001
 93 04 07 14 32 00.0000000  0  6 22 14 29 01 15 25
  -4383063.60508  -3415374.03108  16814429.90508  16814431.16108         0.00001
 -18328602.23708 -14282029.50808  15378583.26308  15378583.51408         0.00001
 -13901121.06408 -10832043.78908  16403616.65808  16403616.26908         0.00001
 -10731180.05308  -8361959.55608  17963616.54108  17963618.72608         0.00001
 -14308830.40008 -11149741.33108  15340458.75308  15340459.11008         0.00001
 -25618966.13709 -19962831.91508  14906813.32509  14906812.94608         0.00001
 93 04 07 14 34 00.0000000  0  6 22 14 29 01 15 25
  -4730237.06008  -3685898.69308  16748365.01708  16748366.25708         0.00001
 -18643351.46308 -14527288.69408  15318688.54608  15318688.81608         0.00001
 -14125342.61608 -11006761.94708  16360948.84808  16360948.43708         0.00001
 -10483411.39408  -8168893.49108  18010765.75308  18010767.86708         0.00001
 -14094945.95408 -10983078.33608  15381159.71908  15381160.23608         0.00001
 -25420691.58108 -19808332.41608  14944543.89708  14944543.52808         0.00001
 93 04 07 14 36 00.0000000  0  6 22 14 25 29 01 15
  -5073690.21908  -3953524.43108  16683007.86308  16683009.32008         0.00001
 -18954137.30208 -14769459.53008  15259548.00408  15259548.18608         0.00001
 -25215964.84808 -19648805.24208  14983502.19908  14983501.93308         0.00001
 -14347846.44608 -11180141.63208  16318607.77808  16318607.36608         0.00001
 -10235335.21808  -7975587.84108  18057973.59108  18057975.79908         0.00001
 -13873439.99008 -10810476.52908  15423311.06008  15423311.59808         0.00001
 93 04 07 14 38 00.0000000  0  6 22 14 25 29 01 15
  -5413228.01208  -4218099.25308  16618395.87308  16618397.37808         0.00001
 -19260853.51508 -15008459.22608  15201181.89708  15201182.14808         0.00001
 -25005263.28108 -19484622.34708  15023597.50208  15023597.25708         0.00001
 -14568549.92908 -11352118.44508  16276609.46008  16276609.07708         0.00001
  -9987033.71508  -7782106.62308  18105223.90608  18105226.65308         0.00001
 -13644494.11308 -10632077.38908  15466878.24208  15466878.79408         0.00001
 93 04 07 14 40 00.0000000  0  6 22 14 25 29 01 15
  -5748621.18308  -4479444.51208  16554572.63708  16554574.09508         0.00001
 -19563209.74308 -15244061.51608  15143645.40808  15143645.65008         0.00001
 -24788270.19708 -19315536.97208  15064889.94908  15064889.78808         0.00001
 -14787436.16808 -11522679.20508  16234956.84508  16234956.47808         0.00001
  -9738908.09208  -7588762.43808  18152441.10608  18152443.68008         0.00001
 -13408255.66708 -10447995.72008  15511833.12908  15511833.84608         0.00001
 93 04 07 14 42 00.0000000  0  6 22 14 25 29 01 15
  -6079714.61108  -4737439.31408  16491567.64408  16491568.96608         0.00001
 -19861280.60608 -15476324.57508  15086924.53308  15086924.74708         0.00001
 -24565282.64208 -19141780.59508  15107323.31108  15107323.09908         0.00001
 -15004531.50308 -11691844.46908  16193645.06408  16193644.64008         0.00001
  -9490786.00208  -7395421.01608  18199657.61708  18199660.16908         0.00001
 -13164950.73808 -10258407.67908  15558132.63708  15558133.44708         0.00001
 93 04 07 14 44 00.0000000  0  6 22 14 25 29 01 15
  -6406215.88908  -4991855.80508  16429436.48708  16429437.61308         0.00001
 -20154462.31708 -15704777.90108  15031133.93308  15031134.28708         0.00001
 -24336492.83308 -18963502.98708  15150860.69208  15150860.52608         0.00001
 -15220072.99208 -11859798.93308  16152628.94908  16152628.51908         0.00001
  -9242499.63608  -7201951.63108  18246905.29608  18246907.86908         0.00001
 -12914670.36408 -10063384.24608  15605759.58208  15605760.43008         0.00001
 93 04 07 14 46 00.0000000  0  6 22 25 29 01 15 14
  -6727906.12808  -5242523.44808  16368220.80408  16368222.06708         0.00001
 -24101950.92908 -18780743.23708  15195492.63508  15195492.53008         0.00001
 -15433845.15708 -12026374.70708  16111949.49008  16111949.11708         0.00001
  -8994088.38608  -7008384.92308  18294176.58108  18294179.39708         0.00001
 -12657581.00408  -9863055.10008  15654682.25608  15654683.00208         0.00001
 -20443114.00108 -15929701.32708  14976205.36008  14976205.73308         0.00001
 93 04 07 14 48 00.0000000  0  7 22 25 18 29 01 15 14
  -7044585.38408  -5489286.45908  16307958.70008  16307959.97408         0.00001
 -23861616.38008 -18593469.73908  15241226.86108  15241226.79108         0.00001
         0.04517        -0.31916  18898319.02617  18898320.40316         0.00011
 -15645635.68208 -12191406.34608  16071647.10608  16071646.81408         0.00001
  -8745369.57408  -6814578.58508  18341506.36608  18341509.64408         0.00001
 -12393871.51708  -9657567.43908  15704864.70008  15704865.41808         0.00001
 -20726895.74808 -16150830.00208  14922203.49708  14922203.88008         0.00001
 93 04 07 14 50 00.0000000  0  7 22 25 18 29 01 15 14
  -7356040.64908  -5731978.83908  16248690.70508  16248691.89808         0.00001
 -23615989.84908 -18402072.62808  15287968.17608  15287968.01908         0.00001
   -327387.21407   -255107.57906  18836019.54807  18836020.67706         0.00001
 -15855738.19108 -12355122.66008  16031666.01008  16031665.69508         0.00001
  -8496337.10708  -6620527.84408  18388896.41108  18388899.80208         0.00001
 -12123715.52908  -9447056.55108  15756273.90508  15756274.75808         0.00001
 -21005344.73608 -16367803.27808  14869216.46808  14869216.84608         0.00001
 93 04 07 14 52 00.0000000  0  7 22 25 18 29 01 15 14
  -7662020.41908  -5970404.57808  16190464.61708  16190465.86808         0.00001
 -23365096.37408 -18206571.39508  15335711.84308  15335711.72808         0.00001
   -654017.32507   -509624.86606  18773863.79107  18773865.17106         0.00001
 -16064249.44408 -12517599.00508  15991987.61208  15991987.37108         0.00001
  -8247265.07308  -6426446.31808  18436293.62408  18436297.15108         0.00001
 -11847252.04608  -9231630.73608  15808883.31308  15808884.41608         0.00001
 -21278667.89809 -16580782.39708  14817204.85309  14817205.19808         0.00001
 93 04 07 14 54 00.0000000  0  7 22 25 29 18 01 15 14
  -7962327.65808  -6204410.13608  16133317.94608  16133319.17808         0.00001
 -23109067.06308 -18007068.21008  15384432.77408  15384432.69708         0.00001
 -16270820.42008 -12678563.43808  15952678.44908  15952678.26008         0.00001
   -979944.66507   -763594.47007  18711842.14407  18711843.64907         0.00001
  -7998044.09008  -6232248.73008  18483719.15808  18483722.86708         0.00001
 -11564673.41808  -9011439.87908  15862656.53608  15862657.68408         0.00001
 -21546668.52309 -16789614.10308  14766206.01709  14766206.42108         0.00001
 93 04 07 14 56 00.0000000  0  7 22 25 18 29 01 15 14
  -8256760.79308  -6433838.45808  16077289.17608  16077290.49508         0.00001
 -22847902.35608 -17803563.42608  15434130.94008  15434130.94508         0.00001
  -1305335.73407  -1017146.13607  18649922.78007  18649924.11407         0.00001
 -16475557.04108 -12838098.49208  15913718.43108  15913718.20908         0.00001
  -7748157.29908  -6037532.41708  18531271.96808  18531275.46808         0.00001
 -11276168.08808  -8786630.82108  15917557.49908  15917558.62408         0.00001
 -21808795.69409 -16993869.08508  14716324.91009  14716325.35708         0.00001
 93 04 07 14 58 00.0000000  0  7 22 25 18 29 01 15 14
  -8545132.83108  -6658543.87508  16022413.74508  16022415.11508         0.00001
 -22581612.49508 -17596065.02308  15484804.30208  15484804.42708         0.00001
  -1629931.64507  -1270078.13207  18588154.29807  18588155.79107         0.00001
 -16678677.98308 -12996374.57208  15875065.71408  15875065.63608         0.00001
  -7498354.02508  -5842881.14208  18578808.27008  18578811.99608         0.00001
 -10981938.98008  -8557361.68408  15973547.66208  15973548.85308         0.00001
 -22064939.86009 -17193461.98008  14667582.33509  14667582.78408         0.00001
 93 04 07 15 00 00.0000000  0  7 22 25 18 29 01 15 14
  -8827248.28208  -6878374.02408  15968728.96208  15968730.27808         0.00001
 -22310632.35908 -17384911.88208  15536370.32108  15536370.39808         0.00001
  -1953879.51207  -1522505.21707  18526508.99507  18526510.81307         0.00001
 -16879876.64908 -13153152.77308  15836778.96708  15836778.81408         0.00001
  -7248133.20808  -5647904.50508  18626424.10808  18626427.86508         0.00001
 -10682179.58008  -8323783.20908  16030590.05308  16030591.44908         0.00001
 -22315541.70509 -17388736.18008  14619894.45509  14619894.82008         0.00001
 93 04 07 15 02 00.0000000  0  7 22 25 18 29 01 15 14
  -9102930.15608  -7093191.00008  15916268.45808  15916269.64408         0.00001
 -22035083.52808 -17170198.71808  15588805.52508  15588805.74908         0.00001
  -2276989.70307  -1774279.56807  18465023.36207  18465025.00107         0.00001
 -17079179.85908 -13308454.02408  15798852.88008  15798852.74908         0.00001
  -6997609.61208  -5452691.96308  18674097.66908  18674101.48508         0.00001
 -10377099.84808  -8086059.01308  16088645.06008  16088646.46408         0.00001
 -22559876.53109 -17579126.99608  14573399.12409  14573399.43408         0.00001
 93 04 07 15 04 00.0000000  0  7 22 18 25 29 01 14 15
  -9371971.20708  -7302833.31008  15865071.52608  15865072.74608         0.00001
  -2599617.45008  -2025677.95007  18403629.54808  18403631.19807         0.00001
 -21754976.69708 -16951933.86608  15642108.22608  15642108.57308         0.00001
 -17276713.35008 -13462376.28608  15761263.50208  15761263.41408         0.00001
  -6746598.47608  -5257099.52908  18721863.85108  18721868.24208         0.00001
 -22797819.81509 -17764537.40808  14528120.07309  14528120.45108         0.00001
 -10066879.26708  -7844328.99608  16147678.35308  16147679.80108         0.00001
 93 04 07 15 06 00.0000000  0  7 22 18 25 29 01 14 15
  -9634194.39908  -7507163.01008  15815171.96508  15815173.25808         0.00001
  -2921763.61708  -2276701.03407  18342327.28708  18342329.15407         0.00001
 -21470597.91308 -16730340.24608  15696223.83808  15696224.24008         0.00001
 -17472712.50708 -13615102.95808  15723966.19908  15723966.08008         0.00001
  -6495490.62907  -5061431.70607  18769648.48207  18769653.17507         0.00001
 -23029568.06709 -17945120.51608  14484019.89009  14484020.32108         0.00001
  -9751724.53608  -7598754.20108  16207650.57208  16207652.08508         0.00001
 93 04 07 15 08 00.0000000  0  7 22 18 25 29 01 14 15
  -9889420.65908  -7706040.55408  15766604.09808  15766605.25608         0.00001
  -3243022.86407  -2527033.03508  18281193.51107  18281195.62108         0.00001
 -21182003.57108 -16505461.78108  15751141.72708  15751142.14908         0.00001
 -17666794.10408 -13766335.40808  15687033.66908  15687033.62708         0.00001
  -6243671.01607  -4865209.25008  18817568.61207  18817573.46608         0.00001
 -23254473.90809 -18120371.87008  14441221.73109  14441222.19008         0.00001
  -9431839.23908  -7349493.24008  16268522.96508  16268524.45208         0.00001
 93 04 07 15 10 00.0000000  0  7 22 18 25 29 14 01 15
 -10137450.65908  -7899310.62808  15719405.43908  15719406.62708         0.00001
  -3563440.58208  -2776709.32808  18220220.24108  18220222.26208         0.00001
 -20889331.56208 -16277405.92508  15806835.47808  15806836.01508         0.00001
 -17859296.87408 -13916337.60808  15650401.73208  15650401.59808         0.00001
 -23472936.32709 -18290602.37108  14399649.75509  14399650.23208         0.00001
  -5991236.72308  -4668507.76507  18865606.02308  18865610.62007         0.00001
  -9107404.11808  -7096686.98608  16330261.07508  16330262.77508         0.00001
 93 04 07 15 12 00.0000000  0  7 22 18 25 29 14 01 15
 -10378105.46508  -8086833.78408  15673610.32108  15673611.49508         0.00001
  -3883237.95908  -3025902.16708  18159364.94708  18159367.01508         0.00001
 -20592542.99308 -16046142.35608  15863312.72408  15863313.34408         0.00001
 -18049830.70108 -14064805.58208  15614144.37908  15614144.23808         0.00001
 -23684473.45609 -18455436.54708  14359395.66109  14359396.19008         0.00001
  -5738513.64508  -4471581.33807  18913698.30208  18913702.87007         0.00001
  -8778615.97408  -6840488.75108  16392827.56408  16392829.41208         0.00001
 93 04 07 15 14 00.0000000  0  7 22 18 25 29 01 14 15
 -10611235.54308  -8268493.51608  15629247.13708  15629248.33508         0.00001
  -4202492.25408  -3274671.75708  18098612.90508  18098614.71908         0.00001
 -20292028.87408 -15811975.78808  15920498.86108  15920499.54808         0.00001
 -18238367.43808 -14211717.37808  15578267.08308  15578267.05308         0.00001
  -5485221.00507  -4274211.05407  18961898.72807  18961903.51007         0.00001
 -23888942.23909 -18614762.92408  14320486.54709  14320487.09608         0.00001
  -8445700.19908  -6581074.18508  16456179.66708  16456181.43708         0.00001
 93 04 07 15 16 00.0000000  0  7 22 18 25 29 14 01 15
 -10836699.71508  -8444179.83208  15586342.59508  15586343.82508         0.00001
  -4520976.80508  -3522841.58107  18038007.37308  18038009.33607         0.00001
 -19987811.93208 -15574923.91208  15978389.61108  15978390.45308         0.00001
 -18425295.53608 -14357375.68908  15542695.89008  15542695.76708         0.00001
 -24086226.91709 -18768491.30308  14282944.60509  14282945.07508         0.00001
  -5231508.32207  -4076513.49807  19010178.96107  19010183.81307         0.00001
  -8108881.55208  -6318618.44608  16520274.48008  16520276.29708         0.00001
 93 04 07 15 18 00.0000000  0  6 22 18 25 29 15 14
 -11054318.29508  -8613752.70308  15544931.21008  15544932.27608         0.00001
  -4838625.63108  -3770360.08608  17977560.67208  17977562.66508         0.00001
 -19680246.82708 -15335263.06708  16036917.50208  16036918.54108         0.00001
 -18610447.86908 -14501650.29108  15507462.56108  15507462.47208         0.00001
  -7768347.11908  -6053267.30408  16585076.36108  16585078.36708         0.00001
 -24276231.59109 -18916546.94908  14246787.94209  14246788.45208         0.00001
 93 04 07 15 20 00.0000000  0  6 22 18 25 29 15 14
 -11263919.08508  -8777077.95308  15505045.50808  15505046.54608         0.00001
  -5155622.68808  -4017370.68508  17917238.13008  17917240.04608         0.00001
 -19369439.13408 -15093075.54608  16096062.52408  16096063.50208         0.00001
 -18793826.85308 -14644543.07208  15472566.80308  15472566.74208         0.00001
  -7424287.69708  -5785169.38708  16650548.80108  16650551.04308         0.00001
 -24458507.34009 -19058580.04108  14212102.04409  14212102.56108         0.00001
 93 04 07 15 22 00.0000000  0  6 22 18 25 29 15 14
 -11465397.23308  -8934073.88708  15466705.45208  15466706.53508         0.00001
  -5472053.40208  -4263939.94608  17857023.15208  17857025.19908         0.00001
 -19055227.32108 -14848235.47508  16155855.30408  16155856.30608         0.00001
 -18974963.16508 -14785688.31408  15438097.78508  15438097.74308         0.00001
  -7076951.35908  -5514518.04808  16716644.97708  16716647.26508         0.00001
 -24633588.31209 -19195006.82508  14178785.28809  14178785.78708         0.00001
 93 04 07 15 24 00.0000000  0  6 22 18 25 29 15 14
 -11658615.02708  -9084633.18008  15429937.35408  15429938.41108         0.00001
  -5787945.92108  -4510089.86508  17796910.92708  17796912.73208         0.00001
 -18738002.42608 -14601047.57908  16216221.43108  16216222.39608         0.00001
 -19154460.54608 -14925556.45008  15403940.58208  15403940.52308         0.00001
  -6726554.34108  -5241481.79008  16783323.78408  16783325.87808         0.00001
 -24801092.60309 -19325529.71208  14146910.35509  14146910.90108         0.00001
 93 04 07 15 26 00.0000000  0  6 22 18 25 29 15 14
 -11843445.01108  -9228656.52608  15394765.33708  15394766.33608         0.00001
  -6102757.86908  -4755397.81908  17737004.15408  17737005.96608         0.00001
 -18417854.56308 -14351582.03208  16277143.68808  16277144.83608         0.00001
 -19332143.33008 -15064010.62408  15370128.72908  15370128.67408         0.00001
  -6373311.97108  -4966228.38008  16850543.68108  16850546.16508         0.00001
 -24960823.03009 -19449995.03708  14116514.70109  14116515.26008         0.00001
 93 04 07 15 28 00.0000000  0  6 22 18 25 29 15 14
 -12019762.44508  -9366046.70508  15361213.30408  15361214.23708         0.00001
  -6417153.93508  -5000381.74707  17677176.47508  17677178.21007         0.00001
 -18095119.05008 -14100100.15808  16338558.53208  16338559.77408         0.00001
 -19508046.87408 -15201078.36308  15336655.41708  15336655.41108         0.00001
  -6017440.51908  -4688926.34108  16918264.09908  16918266.60508         0.00001
 -25112571.65309 -19568240.77908  14087637.96609  14087638.54808         0.00001
 93 04 07 15 30 00.0000000  0  6 22 18 14 25 29 15
 -12187434.94308  -9496700.58208  15329306.18708  15329307.22008         0.00001
  -6731115.58208  -5245027.22907  17617431.55508  17617433.40507         0.00001
 -25256072.38909 -19680059.59708  14060330.75709  14060331.38208         0.00001
 -17769390.76208 -13846286.24608  16400542.93908  16400544.14908         0.00001
 -19682109.93308 -15336711.96608  15303532.45608  15303532.37608         0.00001
  -5659141.24908  -4409732.53008  16986446.72408  16986449.15308         0.00001
 93 04 07 15 32 00.0000000  0  6 22 18 25 29 15 14
 -12346314.17808  -9620502.58308  15299072.44908  15299073.50108         0.00001
  -7044096.27808  -5488908.31507  17557873.30908  17557875.03407         0.00001
 -17441275.12408 -13590612.08408  16462981.50508  16462982.96608         0.00001
 -19854181.63308 -15470793.86608  15270788.28108  15270788.26908         0.00001
  -5298595.09408  -4128787.92208  17055056.42508  17055059.19308         0.00001
 -25391479.12509 -19785571.40408  14034563.71309  14034564.34408         0.00001
 93 04 07 15 34 00.0000000  0  6 22 18 25 29 15 14
 -12496287.22208  -9737364.69808  15270533.58608  15270534.63208         0.00001
  -7356647.77708  -5732454.96008  17498396.77208  17498398.50708         0.00001
 -17110953.41508 -13333218.92108  16525839.82508  16525841.34308         0.00001
 -20024254.27408 -15603318.05108  15238424.54908  15238424.58208         0.00001
  -4936006.59908  -3846251.86208  17124055.10508  17124057.78308         0.00001
 -25518638.32309 -19884656.55708  14010366.24109  14010366.83008         0.00001
 93 04 07 15 36 00.0000000  0  6 22 18 25 29 14 15
 -12637231.69008  -9847191.56808  15243712.75208  15243713.78808         0.00001
  -7668311.80408  -5975310.04608  17439089.13008  17439090.93908         0.00001
 -16778153.48408 -13073894.66108  16589169.84808  16589171.50008         0.00001
 -20192421.17108 -15734357.24708  15206423.53108  15206423.52408         0.00001
 -25637262.84909 -19977091.32808  13987792.80109  13987793.43408         0.00001
  -4571569.11008  -3562275.05208  17193405.77808  17193408.45408         0.00001
 93 04 07 15 38 00.0000000  0  6 22 18 25 29 14 15
 -12769056.61108  -9949912.29808  15218627.30508  15218628.32808         0.00001
  -7979133.64708  -6217508.89108  17379941.75208  17379943.68508         0.00001
 -16443280.59508 -12812955.14808  16652894.53508  16652896.11808         0.00001
 -20358605.84708 -15863851.86508  15174799.72008  15174799.72008         0.00001
 -25747620.93709 -20063084.70708  13966792.37009  13966793.04408         0.00001
  -4205498.59808  -3277025.75908  17263066.92008  17263069.98608         0.00001
 93 04 07 15 40 00.0000000  0  7 22 29 18 25 19 14 15
 -12891686.01108 -10045467.69008  15195291.65208  15195292.74008         0.00001
 -20522939.29508 -15991903.94908  15143528.12108  15143528.09308         0.00001
  -8289357.24108  -6459241.53708  17320907.99708  17320909.90908         0.00001
 -16106413.29508 -12550461.54608  16716998.62508  16717000.28408         0.00001
        -0.28017        -0.96417  18490341.79017  18490345.78517         0.00011
 -25849313.14209 -20142325.45408  13947441.03209  13947441.67008         0.00001
  -3838018.41908  -2990678.02108  17332996.39808  17332999.39908         0.00001
 93 04 07 15 42 00.0000000  0  7 22 29 18 25 14 19 15
 -13005005.87108 -10133768.90608  15173727.71308  15173728.74508         0.00001
 -20685164.66408 -16118313.38608  15112657.77808  15112657.72608         0.00001
  -8598900.70708  -6700444.20408  17262004.21708  17262005.63508         0.00001
 -15767758.33408 -12286575.00708  16781442.70208  16781444.55408         0.00001
 -25942213.24609 -20214715.21708  13929762.76609  13929763.47808         0.00001
   -394191.44507   -307162.86007  18415329.51207  18415333.60207         0.00001
  -3469307.49508  -2703371.31608  17403160.12408  17403163.21008         0.00001
 93 04 07 15 44 00.0000000  0  7 22 29 18 25 14 19 15
 -13108900.42808 -10214725.72608  15153957.29408  15153958.27408         0.00001
 -20845433.10408 -16243197.95108  15082159.74508  15082159.74908         0.00001
  -8907691.08908  -6941060.05408  17203243.15208  17203244.84208         0.00001
 -15427293.23008 -12021277.97408  16846231.49308  16846233.24808         0.00001
 -26026408.45809 -20280321.94608  13913741.08609  13913741.75908         0.00001
   -785353.23407   -611964.13207  18340893.91007  18340898.12007         0.00001
  -3099531.18708  -2415234.47008  17473526.65308  17473530.09308         0.00001
 93 04 07 15 46 00.0000000  0  7 22 29 18 25 14 19 15
 -13203333.23108 -10288309.74908  15135987.28308  15135988.36308         0.00001
 -21003454.85908 -16366331.84408  15052089.14308  15052089.36108         0.00001
  -9215540.54308  -7180942.71608  17144661.31408  17144662.97908         0.00001
 -15085335.27708 -11754817.68008  16911304.26708  16911306.12808         0.00001
 -26101535.83209 -20338862.82608  13899444.86709  13899445.52908         0.00001
  -1173296.66308   -914257.63607  18267070.68508  18267074.60107         0.00001
  -2728930.98308  -2126455.62108  17544049.86008  17544053.57308         0.00001
 93 04 07 15 48 00.0000000  0  7 22 29 18 25 14 19 15
 -13288225.63708 -10354459.70108  15119832.86308  15119833.87208         0.00001
 -21159169.84908 -16487668.25708  15022457.71508  15022457.78508         0.00001
  -9522742.98208  -7420321.23708  17086202.65208  17086204.41808         0.00001
 -14741477.22808 -11486876.83008  16976738.71508  16976740.64808         0.00001
 -26167837.54609 -20390526.57508  13886828.14909  13886828.91008         0.00001
  -1558311.09508  -1214268.80907  18193804.97808  18193808.73107         0.00001
  -2357696.98508  -1837182.96208  17614693.85908  17614697.59408         0.00001
 93 04 07 15 50 00.0000000  0  7 22 18 25 14 19 29 15
 -13363542.88608 -10413148.49308  15105500.48708  15105501.49508         0.00001
  -9829144.35908  -7659075.53208  17027896.38508  17027898.26708         0.00001
 -14396273.90208 -11217887.71808  17042429.04508  17042431.13508         0.00001
 -26224930.13009 -20435014.38208  13875963.80809  13875964.63208         0.00001
  -1940514.78208  -1512089.77907  18121074.06708  18121078.05907         0.00001
 -21313028.12008 -16607557.88908  14993179.45608  14993179.61408         0.00001
  -1986051.18108  -1547589.42508  17685416.03608  17685419.95108         0.00001
 93 04 07 15 52 00.0000000  0  7 22 18 25 19 14 15 29
 -13429246.75508 -10464346.35608  15092997.48408  15092998.49908         0.00001
 -10134840.19208  -7897280.06908  16969724.38508  16969726.11508         0.00001
 -14049983.66908 -10948051.67708  17108326.30308  17108328.32208         0.00001
  -2319634.50108  -1807507.58808  18048929.72308  18048933.86408         0.00001
 -26273027.77309 -20472493.15508  13866811.25309  13866811.98508         0.00001
  -1614207.81108  -1257841.99508  17756175.89608  17756180.02808         0.00001
 -21464556.41108 -16725631.95908  14964344.66108  14964344.80408         0.00001
 93 04 07 15 54 00.0000000  0  7 22 18 25 19 14 15 29
 -13485288.96208 -10508015.65808  15082333.03708  15082334.06708         0.00001
 -10439646.09808  -8134791.14508  16911721.83708  16911723.50708         0.00001
 -13702213.25908 -10677062.29308  17174505.20408  17174507.46108         0.00001
  -2695686.38508  -2100534.88108  17977369.12308  17977373.36008         0.00001
 -26312001.42609 -20502862.32908  13859394.82709  13859395.63708         0.00001
  -1242362.15508   -968092.75208  17826936.28808  17826940.45808         0.00001
 -21614031.71508 -16842106.29608  14935900.55208  14935900.65708         0.00001
 93 04 07 15 56 00.0000000  0  7 22 18 25 19 14 15 29
 -13531666.58008 -10544154.13008  15073507.69908  15073508.73008         0.00001
 -10743736.71408  -8371744.83108  16853855.17008  16853856.89408         0.00001
 -13353659.10108 -10405462.19008  17240833.13808  17240835.70008         0.00001
  -3068339.24508  -2390913.56508  17906455.68708  17906459.40208         0.00001
 -26341947.33609 -20526196.89908  13853696.43709  13853697.25208         0.00001
   -870741.55208   -678518.90408  17897653.93908  17897657.94908         0.00001
 -21761182.42008 -16956769.25208  14907898.64008  14907898.84008         0.00001
 93 04 07 15 58 00.0000000  0  7 22 18 25 19 14 15 29
 -13568333.96708 -10572726.20208  15066530.22508  15066531.23008         0.00001
 -11047006.10608  -8608058.65608  16796145.05508  16796146.61608         0.00001
 -13004252.24608 -10133197.66808  17307323.33508  17307326.10608         0.00001
  -3437779.82108  -2678789.12908  17836153.28608  17836157.10908         0.00001
 -26362660.63709 -20542337.24108  13849754.86109  13849755.68908         0.00001
   -499528.18608   -389262.40508  17968294.10708  17968298.29708         0.00001
 -21906292.01508 -17069841.72008  14880285.26508  14880285.60308         0.00001
 93 04 07 16 00 00.0000000  0  7 22 18 25 19 14 15 29
 -13595268.44908 -10593714.17908  15061404.82808  15061405.86508         0.00001
 -11349530.80508  -8843792.21508  16738576.38208  16738578.21208         0.00001
 -12654229.76408  -9860453.43308  17373931.07708  17373933.88208         0.00001
  -3804130.44008  -2964256.93008  17766439.05308  17766442.79008         0.00001
 -26373960.32809 -20551142.29208  13847604.75109  13847605.66408         0.00001
   -128911.74508   -100471.08208  18038820.70908  18038825.24008         0.00001
 -22048845.95408 -17180922.77108  14853158.27908  14853158.50308         0.00001
 93 04 07 16 02 00.0000000  0  7 22 18 25 19 14 15 29
 -13612459.61508 -10607109.95908  15058133.51908  15058134.65408         0.00001
 -11651189.33008  -9078850.81908  16681172.74008  16681174.53408         0.00001
 -12303431.36908  -9587104.64108  17440686.36908  17440689.30608         0.00001
  -4167009.22008  -3247019.48008  17697385.24108  17697388.99508         0.00001
 -26376045.22209 -20552766.98408  13847208.08809  13847209.00208         0.00001
    240910.63708    187701.45308  18109196.08008  18109200.84008         0.00001
 -22189302.50208 -17290369.51408  14826430.25708  14826430.50008         0.00001
 93 04 07 16 04 00.0000000  0  7 22 18 25 19 15 14 29
 -13619897.86608 -10612906.07408  15056718.08608  15056719.25008         0.00001
 -11951935.16408  -9313198.21608  16623942.73108  16623944.57608         0.00001
 -11951870.53408  -9313161.72608  17507586.41308  17507589.62508         0.00001
  -4526548.43308  -3527179.81307  17628967.42408  17628970.74207         0.00001
    609751.92807    475109.48408  18179384.60007  18179389.73308         0.00001
 -26368819.34209 -20547136.53108  13848583.21509  13848584.12708         0.00001
 -22327417.75308 -17397991.87008  14800148.00108  14800148.22208         0.00001
 93 04 07 16 06 00.0000000  0  7 22 18 25 19 15 14 29
 -13617596.54708 -10611112.94308  15057156.12308  15057157.11608         0.00001
 -12251742.86508  -9546814.59808  16566891.27408  16566893.05308         0.00001
 -11600220.98208  -9039149.66008  17574503.48808  17574506.88008         0.00001
  -4882779.75508  -3804762.58008  17561178.65708  17561182.14908         0.00001
    977410.87607    761596.16508  18249348.34507  18249353.72008         0.00001
 -26352213.89509 -20534197.32908  13851743.11809  13851744.09308         0.00001
 -22463126.51908 -17503739.03808  14774323.41408  14774323.78708         0.00001
 93 04 07 16 08 00.0000000  0  7 22 18 25 14 29 19 15
 -13605588.90508 -10601756.44208  15059441.22108  15059442.37308         0.00001
 -12550697.44608  -9779766.21508  16510002.07108  16510003.82208         0.00001
 -11248098.00308  -8764768.74908  17641510.55408  17641514.26208         0.00001
 -26326361.81709 -20514052.96108  13856662.75109  13856663.73308         0.00001
 -22596299.36308 -17607510.15408  14748981.60608  14748981.88908         0.00001
  -5235549.00608  -4079647.57108  17494048.72508  17494052.29408         0.00001
   1343675.47607   1046996.25008  18319046.95107  18319052.23008         0.00001
 93 04 07 16 10 00.0000000  0  7 22 18 25 19 15 14 29
 -13583882.46208 -10584842.44608  15063571.85908  15063573.17508         0.00001
 -12848829.56108 -10012076.94808  16453269.46108  16453271.17608         0.00001
 -10895660.98608  -8490143.13508  17708577.60508  17708581.33108         0.00001
  -5584823.45408  -4351809.28208  17427583.91808  17427587.43508         0.00001
   1708367.82807   1331171.17208  18388446.40907  18388452.01408         0.00001
 -26291231.76109 -20486679.01208  13863347.78609  13863348.80908         0.00001
 -22727194.91208 -17709506.75808  14724073.10308  14724073.35008         0.00001
